<?xml version="1.0" encoding="UTF-8" standalone="no" ?>
<gpx xmlns="http://www.topografix.com/GPX/1/1" creator="www.cicloide.com" version="1.1" xmlns:xsi="http://www.w3.org/2001/XMLSchema-instance" xsi:schemaLocation="http://www.topografix.com/GPX/1/1 http://www.topografix.com/GPX/1/1/gpx.xsd">
  <trk>
    <name>www.cicloide.com 20625</name>
    <desc>www.cicloide.com 20625</desc>
    <trkseg>
      <trkpt lat="41.605797770" lon="2.540369300">
        <ele>115.01</ele>
        <time>2015-01-18T06:07:38Z</time>
      </trkpt>
      <trkpt lat="41.605797180" lon="2.540352540">
        <ele>115.01</ele>
        <time>2015-01-18T06:07:56Z</time>
      </trkpt>
      <trkpt lat="41.605801460" lon="2.540371480">
        <ele>115.01</ele>
        <time>2015-01-18T06:08:15Z</time>
      </trkpt>
      <trkpt lat="41.605788890" lon="2.540353210">
        <ele>114.53</ele>
        <time>2015-01-18T06:08:33Z</time>
      </trkpt>
      <trkpt lat="41.605813700" lon="2.540374920">
        <ele>114.53</ele>
        <time>2015-01-18T06:08:45Z</time>
      </trkpt>
      <trkpt lat="41.605885360" lon="2.540384560">
        <ele>114.53</ele>
        <time>2015-01-18T06:08:49Z</time>
      </trkpt>
      <trkpt lat="41.606015280" lon="2.540376590">
        <ele>115.50</ele>
        <time>2015-01-18T06:08:53Z</time>
      </trkpt>
      <trkpt lat="41.606221390" lon="2.540414060">
        <ele>115.50</ele>
        <time>2015-01-18T06:08:59Z</time>
      </trkpt>
      <trkpt lat="41.606273530" lon="2.540443480">
        <ele>115.50</ele>
        <time>2015-01-18T06:09:01Z</time>
      </trkpt>
      <trkpt lat="41.606490120" lon="2.540567030">
        <ele>115.50</ele>
        <time>2015-01-18T06:09:10Z</time>
      </trkpt>
      <trkpt lat="41.606719360" lon="2.540673480">
        <ele>115.98</ele>
        <time>2015-01-18T06:09:20Z</time>
      </trkpt>
      <trkpt lat="41.606924380" lon="2.540752520">
        <ele>116.94</ele>
        <time>2015-01-18T06:09:29Z</time>
      </trkpt>
      <trkpt lat="41.607126640" lon="2.540817650">
        <ele>116.94</ele>
        <time>2015-01-18T06:09:38Z</time>
      </trkpt>
      <trkpt lat="41.607312300" lon="2.540847660">
        <ele>117.90</ele>
        <time>2015-01-18T06:09:46Z</time>
      </trkpt>
      <trkpt lat="41.607507260" lon="2.540861990">
        <ele>118.38</ele>
        <time>2015-01-18T06:09:54Z</time>
      </trkpt>
      <trkpt lat="41.607688640" lon="2.540844970">
        <ele>119.34</ele>
        <time>2015-01-18T06:10:02Z</time>
      </trkpt>
      <trkpt lat="41.607924010" lon="2.540817230">
        <ele>120.30</ele>
        <time>2015-01-18T06:10:12Z</time>
      </trkpt>
      <trkpt lat="41.608156610" lon="2.540805500">
        <ele>120.78</ele>
        <time>2015-01-18T06:10:21Z</time>
      </trkpt>
      <trkpt lat="41.608345280" lon="2.540767440">
        <ele>121.26</ele>
        <time>2015-01-18T06:10:28Z</time>
      </trkpt>
      <trkpt lat="41.608571260" lon="2.540695360">
        <ele>122.22</ele>
        <time>2015-01-18T06:10:37Z</time>
      </trkpt>
      <trkpt lat="41.608773510" lon="2.540667360">
        <ele>122.71</ele>
        <time>2015-01-18T06:10:45Z</time>
      </trkpt>
      <trkpt lat="41.608965790" lon="2.540623100">
        <ele>123.19</ele>
        <time>2015-01-18T06:10:53Z</time>
      </trkpt>
      <trkpt lat="41.609168380" lon="2.540583210">
        <ele>124.15</ele>
        <time>2015-01-18T06:11:01Z</time>
      </trkpt>
      <trkpt lat="41.609378690" lon="2.540566020">
        <ele>124.63</ele>
        <time>2015-01-18T06:11:09Z</time>
      </trkpt>
      <trkpt lat="41.609611370" lon="2.540542470">
        <ele>125.59</ele>
        <time>2015-01-18T06:11:18Z</time>
      </trkpt>
      <trkpt lat="41.609793510" lon="2.540518330">
        <ele>126.55</ele>
        <time>2015-01-18T06:11:25Z</time>
      </trkpt>
      <trkpt lat="41.610021910" lon="2.540455800">
        <ele>127.03</ele>
        <time>2015-01-18T06:11:34Z</time>
      </trkpt>
      <trkpt lat="41.610203470" lon="2.540346330">
        <ele>127.99</ele>
        <time>2015-01-18T06:11:42Z</time>
      </trkpt>
      <trkpt lat="41.610400270" lon="2.540234690">
        <ele>128.95</ele>
        <time>2015-01-18T06:11:50Z</time>
      </trkpt>
      <trkpt lat="41.610585090" lon="2.540106610">
        <ele>129.43</ele>
        <time>2015-01-18T06:11:58Z</time>
      </trkpt>
      <trkpt lat="41.610768570" lon="2.539992790">
        <ele>129.92</ele>
        <time>2015-01-18T06:12:06Z</time>
      </trkpt>
      <trkpt lat="41.610955910" lon="2.539894380">
        <ele>130.88</ele>
        <time>2015-01-18T06:12:14Z</time>
      </trkpt>
      <trkpt lat="41.611170400" lon="2.539783240">
        <ele>131.84</ele>
        <time>2015-01-18T06:12:23Z</time>
      </trkpt>
      <trkpt lat="41.611308030" lon="2.539690950">
        <ele>131.84</ele>
        <time>2015-01-18T06:12:29Z</time>
      </trkpt>
      <trkpt lat="41.611462760" lon="2.539593220">
        <ele>132.80</ele>
        <time>2015-01-18T06:12:36Z</time>
      </trkpt>
      <trkpt lat="41.611666780" lon="2.539430780">
        <ele>133.76</ele>
        <time>2015-01-18T06:12:46Z</time>
      </trkpt>
      <trkpt lat="41.611868360" lon="2.539216960">
        <ele>134.72</ele>
        <time>2015-01-18T06:12:57Z</time>
      </trkpt>
      <trkpt lat="41.611998530" lon="2.539077230">
        <ele>135.20</ele>
        <time>2015-01-18T06:13:04Z</time>
      </trkpt>
      <trkpt lat="41.612132640" lon="2.538883860">
        <ele>136.64</ele>
        <time>2015-01-18T06:13:12Z</time>
      </trkpt>
      <trkpt lat="41.612252760" lon="2.538636170">
        <ele>137.61</ele>
        <time>2015-01-18T06:13:21Z</time>
      </trkpt>
      <trkpt lat="41.612381590" lon="2.538420420">
        <ele>138.09</ele>
        <time>2015-01-18T06:13:29Z</time>
      </trkpt>
      <trkpt lat="41.612542860" lon="2.538213220">
        <ele>139.05</ele>
        <time>2015-01-18T06:13:38Z</time>
      </trkpt>
      <trkpt lat="41.612716280" lon="2.537990010">
        <ele>139.53</ele>
        <time>2015-01-18T06:13:47Z</time>
      </trkpt>
      <trkpt lat="41.612937890" lon="2.537742500">
        <ele>140.97</ele>
        <time>2015-01-18T06:13:58Z</time>
      </trkpt>
      <trkpt lat="41.613096060" lon="2.537540070">
        <ele>141.93</ele>
        <time>2015-01-18T06:14:06Z</time>
      </trkpt>
      <trkpt lat="41.613265040" lon="2.537348380">
        <ele>142.89</ele>
        <time>2015-01-18T06:14:15Z</time>
      </trkpt>
      <trkpt lat="41.613453130" lon="2.537137660">
        <ele>142.89</ele>
        <time>2015-01-18T06:14:25Z</time>
      </trkpt>
      <trkpt lat="41.613597630" lon="2.536952000">
        <ele>143.85</ele>
        <time>2015-01-18T06:14:33Z</time>
      </trkpt>
      <trkpt lat="41.613676680" lon="2.536824590">
        <ele>144.82</ele>
        <time>2015-01-18T06:14:38Z</time>
      </trkpt>
      <trkpt lat="41.613652620" lon="2.536657790">
        <ele>144.82</ele>
        <time>2015-01-18T06:14:43Z</time>
      </trkpt>
      <trkpt lat="41.613675330" lon="2.536489150">
        <ele>145.30</ele>
        <time>2015-01-18T06:14:48Z</time>
      </trkpt>
      <trkpt lat="41.613743650" lon="2.536363920">
        <ele>145.78</ele>
        <time>2015-01-18T06:14:53Z</time>
      </trkpt>
      <trkpt lat="41.613882450" lon="2.536011130">
        <ele>146.74</ele>
        <time>2015-01-18T06:15:05Z</time>
      </trkpt>
      <trkpt lat="41.613978930" lon="2.535736370">
        <ele>148.18</ele>
        <time>2015-01-18T06:15:14Z</time>
      </trkpt>
      <trkpt lat="41.614066770" lon="2.535436130">
        <ele>149.14</ele>
        <time>2015-01-18T06:15:23Z</time>
      </trkpt>
      <trkpt lat="41.614130390" lon="2.535201190">
        <ele>150.10</ele>
        <time>2015-01-18T06:15:31Z</time>
      </trkpt>
      <trkpt lat="41.614216050" lon="2.534976050">
        <ele>151.06</ele>
        <time>2015-01-18T06:15:39Z</time>
      </trkpt>
      <trkpt lat="41.614282440" lon="2.534748480">
        <ele>151.54</ele>
        <time>2015-01-18T06:15:47Z</time>
      </trkpt>
      <trkpt lat="41.614365160" lon="2.534490230">
        <ele>152.99</ele>
        <time>2015-01-18T06:15:56Z</time>
      </trkpt>
      <trkpt lat="41.614432390" lon="2.534233330">
        <ele>153.95</ele>
        <time>2015-01-18T06:16:04Z</time>
      </trkpt>
      <trkpt lat="41.614507150" lon="2.533941550">
        <ele>154.91</ele>
        <time>2015-01-18T06:16:13Z</time>
      </trkpt>
      <trkpt lat="41.614604640" lon="2.533625220">
        <ele>155.87</ele>
        <time>2015-01-18T06:16:23Z</time>
      </trkpt>
      <trkpt lat="41.614699020" lon="2.533347110">
        <ele>156.35</ele>
        <time>2015-01-18T06:16:32Z</time>
      </trkpt>
      <trkpt lat="41.614776630" lon="2.533099260">
        <ele>157.79</ele>
        <time>2015-01-18T06:16:40Z</time>
      </trkpt>
      <trkpt lat="41.614888610" lon="2.532750320">
        <ele>158.27</ele>
        <time>2015-01-18T06:16:51Z</time>
      </trkpt>
      <trkpt lat="41.614996830" lon="2.532388560">
        <ele>159.72</ele>
        <time>2015-01-18T06:17:02Z</time>
      </trkpt>
      <trkpt lat="41.615068990" lon="2.532051940">
        <ele>160.68</ele>
        <time>2015-01-18T06:17:12Z</time>
      </trkpt>
      <trkpt lat="41.615097410" lon="2.531750190">
        <ele>161.64</ele>
        <time>2015-01-18T06:17:21Z</time>
      </trkpt>
      <trkpt lat="41.615119030" lon="2.531390690">
        <ele>162.12</ele>
        <time>2015-01-18T06:17:32Z</time>
      </trkpt>
      <trkpt lat="41.615128840" lon="2.531088770">
        <ele>163.08</ele>
        <time>2015-01-18T06:17:41Z</time>
      </trkpt>
      <trkpt lat="41.615159270" lon="2.530735390">
        <ele>163.56</ele>
        <time>2015-01-18T06:17:51Z</time>
      </trkpt>
      <trkpt lat="41.615174100" lon="2.530436910">
        <ele>164.52</ele>
        <time>2015-01-18T06:18:00Z</time>
      </trkpt>
      <trkpt lat="41.615184240" lon="2.530138180">
        <ele>165.96</ele>
        <time>2015-01-18T06:18:10Z</time>
      </trkpt>
      <trkpt lat="41.615189940" lon="2.529885470">
        <ele>166.45</ele>
        <time>2015-01-18T06:18:18Z</time>
      </trkpt>
      <trkpt lat="41.615196730" lon="2.529540720">
        <ele>167.41</ele>
        <time>2015-01-18T06:18:29Z</time>
      </trkpt>
      <trkpt lat="41.615204530" lon="2.529238890">
        <ele>168.37</ele>
        <time>2015-01-18T06:18:38Z</time>
      </trkpt>
      <trkpt lat="41.615209310" lon="2.529030510">
        <ele>169.81</ele>
        <time>2015-01-18T06:18:45Z</time>
      </trkpt>
      <trkpt lat="41.615250960" lon="2.528775120">
        <ele>170.29</ele>
        <time>2015-01-18T06:18:53Z</time>
      </trkpt>
      <trkpt lat="41.615293130" lon="2.528537910">
        <ele>170.29</ele>
        <time>2015-01-18T06:19:00Z</time>
      </trkpt>
      <trkpt lat="41.615342240" lon="2.528316630">
        <ele>170.77</ele>
        <time>2015-01-18T06:19:07Z</time>
      </trkpt>
      <trkpt lat="41.615403260" lon="2.528022510">
        <ele>171.73</ele>
        <time>2015-01-18T06:19:17Z</time>
      </trkpt>
      <trkpt lat="41.615439390" lon="2.527812710">
        <ele>171.73</ele>
        <time>2015-01-18T06:19:24Z</time>
      </trkpt>
      <trkpt lat="41.615480040" lon="2.527583460">
        <ele>173.17</ele>
        <time>2015-01-18T06:19:32Z</time>
      </trkpt>
      <trkpt lat="41.615528410" lon="2.527335110">
        <ele>173.66</ele>
        <time>2015-01-18T06:19:40Z</time>
      </trkpt>
      <trkpt lat="41.615574590" lon="2.527052220">
        <ele>175.10</ele>
        <time>2015-01-18T06:19:49Z</time>
      </trkpt>
      <trkpt lat="41.615597140" lon="2.526886340">
        <ele>176.06</ele>
        <time>2015-01-18T06:19:55Z</time>
      </trkpt>
      <trkpt lat="41.615593620" lon="2.526623990">
        <ele>177.50</ele>
        <time>2015-01-18T06:20:04Z</time>
      </trkpt>
      <trkpt lat="41.615575340" lon="2.526433300">
        <ele>177.98</ele>
        <time>2015-01-18T06:20:10Z</time>
      </trkpt>
      <trkpt lat="41.615545090" lon="2.526146130">
        <ele>178.94</ele>
        <time>2015-01-18T06:20:19Z</time>
      </trkpt>
      <trkpt lat="41.615527060" lon="2.525829550">
        <ele>179.42</ele>
        <time>2015-01-18T06:20:29Z</time>
      </trkpt>
      <trkpt lat="41.615525300" lon="2.525542220">
        <ele>180.38</ele>
        <time>2015-01-18T06:20:38Z</time>
      </trkpt>
      <trkpt lat="41.615532930" lon="2.525294700">
        <ele>180.87</ele>
        <time>2015-01-18T06:20:46Z</time>
      </trkpt>
      <trkpt lat="41.615549860" lon="2.525129990">
        <ele>180.87</ele>
        <time>2015-01-18T06:20:52Z</time>
      </trkpt>
      <trkpt lat="41.615572160" lon="2.524878620">
        <ele>182.31</ele>
        <time>2015-01-18T06:21:00Z</time>
      </trkpt>
      <trkpt lat="41.615581800" lon="2.524633450">
        <ele>182.79</ele>
        <time>2015-01-18T06:21:07Z</time>
      </trkpt>
      <trkpt lat="41.615602920" lon="2.524357270">
        <ele>184.23</ele>
        <time>2015-01-18T06:21:15Z</time>
      </trkpt>
      <trkpt lat="41.615631170" lon="2.524067250">
        <ele>185.19</ele>
        <time>2015-01-18T06:21:24Z</time>
      </trkpt>
      <trkpt lat="41.615644580" lon="2.523838340">
        <ele>187.11</ele>
        <time>2015-01-18T06:21:32Z</time>
      </trkpt>
      <trkpt lat="41.615666040" lon="2.523587140">
        <ele>187.59</ele>
        <time>2015-01-18T06:21:39Z</time>
      </trkpt>
      <trkpt lat="41.615699820" lon="2.523392010">
        <ele>188.08</ele>
        <time>2015-01-18T06:21:45Z</time>
      </trkpt>
      <trkpt lat="41.615732590" lon="2.523117330">
        <ele>189.04</ele>
        <time>2015-01-18T06:21:53Z</time>
      </trkpt>
      <trkpt lat="41.615768800" lon="2.522867720">
        <ele>190.00</ele>
        <time>2015-01-18T06:22:01Z</time>
      </trkpt>
      <trkpt lat="41.615806770" lon="2.522627160">
        <ele>190.48</ele>
        <time>2015-01-18T06:22:09Z</time>
      </trkpt>
      <trkpt lat="41.615839040" lon="2.522396740">
        <ele>191.92</ele>
        <time>2015-01-18T06:22:17Z</time>
      </trkpt>
      <trkpt lat="41.615870390" lon="2.522130280">
        <ele>192.88</ele>
        <time>2015-01-18T06:22:26Z</time>
      </trkpt>
      <trkpt lat="41.615910870" lon="2.521823840">
        <ele>193.84</ele>
        <time>2015-01-18T06:22:36Z</time>
      </trkpt>
      <trkpt lat="41.615935850" lon="2.521591740">
        <ele>194.32</ele>
        <time>2015-01-18T06:22:43Z</time>
      </trkpt>
      <trkpt lat="41.615971310" lon="2.521309520">
        <ele>194.80</ele>
        <time>2015-01-18T06:22:52Z</time>
      </trkpt>
      <trkpt lat="41.616003740" lon="2.521079190">
        <ele>195.28</ele>
        <time>2015-01-18T06:22:59Z</time>
      </trkpt>
      <trkpt lat="41.616048840" lon="2.520834440">
        <ele>195.28</ele>
        <time>2015-01-18T06:23:07Z</time>
      </trkpt>
      <trkpt lat="41.616116400" lon="2.520576530">
        <ele>196.25</ele>
        <time>2015-01-18T06:23:15Z</time>
      </trkpt>
      <trkpt lat="41.616217060" lon="2.520305120">
        <ele>196.73</ele>
        <time>2015-01-18T06:23:24Z</time>
      </trkpt>
      <trkpt lat="41.616313200" lon="2.520061460">
        <ele>197.21</ele>
        <time>2015-01-18T06:23:33Z</time>
      </trkpt>
      <trkpt lat="41.616433990" lon="2.519963390">
        <ele>197.21</ele>
        <time>2015-01-18T06:23:37Z</time>
      </trkpt>
      <trkpt lat="41.616516460" lon="2.519903040">
        <ele>195.77</ele>
        <time>2015-01-18T06:23:39Z</time>
      </trkpt>
      <trkpt lat="41.616622080" lon="2.519841520">
        <ele>195.77</ele>
        <time>2015-01-18T06:23:43Z</time>
      </trkpt>
      <trkpt lat="41.616663480" lon="2.519825840">
        <ele>197.21</ele>
        <time>2015-01-18T06:23:45Z</time>
      </trkpt>
      <trkpt lat="41.616821730" lon="2.519756440">
        <ele>197.69</ele>
        <time>2015-01-18T06:23:53Z</time>
      </trkpt>
      <trkpt lat="41.616987780" lon="2.519707240">
        <ele>198.65</ele>
        <time>2015-01-18T06:24:01Z</time>
      </trkpt>
      <trkpt lat="41.617145610" lon="2.519678740">
        <ele>199.61</ele>
        <time>2015-01-18T06:24:08Z</time>
      </trkpt>
      <trkpt lat="41.617366560" lon="2.519654270">
        <ele>200.57</ele>
        <time>2015-01-18T06:24:18Z</time>
      </trkpt>
      <trkpt lat="41.617558330" lon="2.519638090">
        <ele>201.05</ele>
        <time>2015-01-18T06:24:27Z</time>
      </trkpt>
      <trkpt lat="41.617704010" lon="2.519621490">
        <ele>202.01</ele>
        <time>2015-01-18T06:24:34Z</time>
      </trkpt>
      <trkpt lat="41.617782050" lon="2.519614540">
        <ele>202.49</ele>
        <time>2015-01-18T06:24:38Z</time>
      </trkpt>
      <trkpt lat="41.617820770" lon="2.519631470">
        <ele>202.49</ele>
        <time>2015-01-18T06:24:44Z</time>
      </trkpt>
      <trkpt lat="41.617823710" lon="2.519657950">
        <ele>203.94</ele>
        <time>2015-01-18T06:24:52Z</time>
      </trkpt>
      <trkpt lat="41.617829240" lon="2.519689720">
        <ele>203.94</ele>
        <time>2015-01-18T06:24:58Z</time>
      </trkpt>
      <trkpt lat="41.617847510" lon="2.519710260">
        <ele>203.94</ele>
        <time>2015-01-18T06:25:05Z</time>
      </trkpt>
      <trkpt lat="41.617890430" lon="2.519749060">
        <ele>204.42</ele>
        <time>2015-01-18T06:25:09Z</time>
      </trkpt>
      <trkpt lat="41.617917000" lon="2.519914360">
        <ele>205.38</ele>
        <time>2015-01-18T06:25:18Z</time>
      </trkpt>
      <trkpt lat="41.617855980" lon="2.520031450">
        <ele>206.34</ele>
        <time>2015-01-18T06:25:25Z</time>
      </trkpt>
      <trkpt lat="41.617726140" lon="2.520144610">
        <ele>208.74</ele>
        <time>2015-01-18T06:25:35Z</time>
      </trkpt>
      <trkpt lat="41.617688340" lon="2.520210070">
        <ele>210.19</ele>
        <time>2015-01-18T06:25:39Z</time>
      </trkpt>
      <trkpt lat="41.617702250" lon="2.520350130">
        <ele>211.63</ele>
        <time>2015-01-18T06:25:47Z</time>
      </trkpt>
      <trkpt lat="41.617710210" lon="2.520388770">
        <ele>211.63</ele>
        <time>2015-01-18T06:25:49Z</time>
      </trkpt>
      <trkpt lat="41.617667380" lon="2.520564370">
        <ele>212.59</ele>
        <time>2015-01-18T06:25:58Z</time>
      </trkpt>
      <trkpt lat="41.617682720" lon="2.520757990">
        <ele>213.55</ele>
        <time>2015-01-18T06:26:07Z</time>
      </trkpt>
      <trkpt lat="41.617718680" lon="2.520947590">
        <ele>214.51</ele>
        <time>2015-01-18T06:26:15Z</time>
      </trkpt>
      <trkpt lat="41.617791020" lon="2.521122020">
        <ele>215.47</ele>
        <time>2015-01-18T06:26:23Z</time>
      </trkpt>
      <trkpt lat="41.617845670" lon="2.521347750">
        <ele>215.95</ele>
        <time>2015-01-18T06:26:33Z</time>
      </trkpt>
      <trkpt lat="41.617908780" lon="2.521557710">
        <ele>218.36</ele>
        <time>2015-01-18T06:26:43Z</time>
      </trkpt>
      <trkpt lat="41.617966450" lon="2.521627950">
        <ele>219.80</ele>
        <time>2015-01-18T06:26:50Z</time>
      </trkpt>
      <trkpt lat="41.618014560" lon="2.521535420">
        <ele>220.76</ele>
        <time>2015-01-18T06:26:57Z</time>
      </trkpt>
      <trkpt lat="41.618077510" lon="2.521389910">
        <ele>222.68</ele>
        <time>2015-01-18T06:27:07Z</time>
      </trkpt>
      <trkpt lat="41.618153280" lon="2.521257300">
        <ele>224.61</ele>
        <time>2015-01-18T06:27:16Z</time>
      </trkpt>
      <trkpt lat="41.618220840" lon="2.521126210">
        <ele>226.05</ele>
        <time>2015-01-18T06:27:24Z</time>
      </trkpt>
      <trkpt lat="41.618286140" lon="2.520951200">
        <ele>228.45</ele>
        <time>2015-01-18T06:27:34Z</time>
      </trkpt>
      <trkpt lat="41.618317820" lon="2.520814570">
        <ele>229.89</ele>
        <time>2015-01-18T06:27:42Z</time>
      </trkpt>
      <trkpt lat="41.618376160" lon="2.520663610">
        <ele>230.85</ele>
        <time>2015-01-18T06:27:51Z</time>
      </trkpt>
      <trkpt lat="41.618473810" lon="2.520591530">
        <ele>232.78</ele>
        <time>2015-01-18T06:27:59Z</time>
      </trkpt>
      <trkpt lat="41.618592660" lon="2.520591780">
        <ele>233.26</ele>
        <time>2015-01-18T06:28:07Z</time>
      </trkpt>
      <trkpt lat="41.618711940" lon="2.520573420">
        <ele>234.70</ele>
        <time>2015-01-18T06:28:16Z</time>
      </trkpt>
      <trkpt lat="41.618811600" lon="2.520549540">
        <ele>235.18</ele>
        <time>2015-01-18T06:28:23Z</time>
      </trkpt>
      <trkpt lat="41.618929450" lon="2.520494630">
        <ele>237.10</ele>
        <time>2015-01-18T06:28:32Z</time>
      </trkpt>
      <trkpt lat="41.619000780" lon="2.520442000">
        <ele>238.54</ele>
        <time>2015-01-18T06:28:38Z</time>
      </trkpt>
      <trkpt lat="41.619116200" lon="2.520387260">
        <ele>239.99</ele>
        <time>2015-01-18T06:28:47Z</time>
      </trkpt>
      <trkpt lat="41.619231950" lon="2.520325990">
        <ele>241.91</ele>
        <time>2015-01-18T06:28:56Z</time>
      </trkpt>
      <trkpt lat="41.619345860" lon="2.520299500">
        <ele>243.35</ele>
        <time>2015-01-18T06:29:04Z</time>
      </trkpt>
      <trkpt lat="41.619473680" lon="2.520334210">
        <ele>245.27</ele>
        <time>2015-01-18T06:29:13Z</time>
      </trkpt>
      <trkpt lat="41.619574690" lon="2.520348040">
        <ele>246.72</ele>
        <time>2015-01-18T06:29:20Z</time>
      </trkpt>
      <trkpt lat="41.619644170" lon="2.520341250">
        <ele>247.68</ele>
        <time>2015-01-18T06:29:25Z</time>
      </trkpt>
      <trkpt lat="41.619699160" lon="2.520327920">
        <ele>248.64</ele>
        <time>2015-01-18T06:29:29Z</time>
      </trkpt>
      <trkpt lat="41.619834940" lon="2.520304200">
        <ele>250.56</ele>
        <time>2015-01-18T06:29:38Z</time>
      </trkpt>
      <trkpt lat="41.619973080" lon="2.520213670">
        <ele>252.96</ele>
        <time>2015-01-18T06:29:49Z</time>
      </trkpt>
      <trkpt lat="41.620091600" lon="2.520145950">
        <ele>254.89</ele>
        <time>2015-01-18T06:29:58Z</time>
      </trkpt>
      <trkpt lat="41.620116910" lon="2.520132120">
        <ele>255.37</ele>
        <time>2015-01-18T06:30:00Z</time>
      </trkpt>
      <trkpt lat="41.620165440" lon="2.520124150">
        <ele>255.85</ele>
        <time>2015-01-18T06:30:04Z</time>
      </trkpt>
      <trkpt lat="41.620229900" lon="2.520122390">
        <ele>256.81</ele>
        <time>2015-01-18T06:30:09Z</time>
      </trkpt>
      <trkpt lat="41.620386810" lon="2.520150390">
        <ele>258.25</ele>
        <time>2015-01-18T06:30:20Z</time>
      </trkpt>
      <trkpt lat="41.620500380" lon="2.520166900">
        <ele>259.69</ele>
        <time>2015-01-18T06:30:28Z</time>
      </trkpt>
      <trkpt lat="41.620629800" lon="2.520190790">
        <ele>261.14</ele>
        <time>2015-01-18T06:30:37Z</time>
      </trkpt>
      <trkpt lat="41.620778490" lon="2.520198500">
        <ele>263.06</ele>
        <time>2015-01-18T06:30:47Z</time>
      </trkpt>
      <trkpt lat="41.620892740" lon="2.520224320">
        <ele>264.50</ele>
        <time>2015-01-18T06:30:55Z</time>
      </trkpt>
      <trkpt lat="41.620962640" lon="2.520237730">
        <ele>265.94</ele>
        <time>2015-01-18T06:31:00Z</time>
      </trkpt>
      <trkpt lat="41.621127430" lon="2.520287850">
        <ele>267.38</ele>
        <time>2015-01-18T06:31:11Z</time>
      </trkpt>
      <trkpt lat="41.621245370" lon="2.520309060">
        <ele>268.35</ele>
        <time>2015-01-18T06:31:19Z</time>
      </trkpt>
      <trkpt lat="41.621395990" lon="2.520312660">
        <ele>270.27</ele>
        <time>2015-01-18T06:31:30Z</time>
      </trkpt>
      <trkpt lat="41.621494220" lon="2.520330270">
        <ele>271.71</ele>
        <time>2015-01-18T06:31:37Z</time>
      </trkpt>
      <trkpt lat="41.621613080" lon="2.520375110">
        <ele>273.63</ele>
        <time>2015-01-18T06:31:45Z</time>
      </trkpt>
      <trkpt lat="41.621697230" lon="2.520403100">
        <ele>275.07</ele>
        <time>2015-01-18T06:31:52Z</time>
      </trkpt>
      <trkpt lat="41.621796220" lon="2.520428330">
        <ele>277.48</ele>
        <time>2015-01-18T06:32:00Z</time>
      </trkpt>
      <trkpt lat="41.621933100" lon="2.520452730">
        <ele>279.88</ele>
        <time>2015-01-18T06:32:10Z</time>
      </trkpt>
      <trkpt lat="41.622061260" lon="2.520468650">
        <ele>282.77</ele>
        <time>2015-01-18T06:32:20Z</time>
      </trkpt>
      <trkpt lat="41.622135110" lon="2.520441750">
        <ele>283.73</ele>
        <time>2015-01-18T06:32:26Z</time>
      </trkpt>
      <trkpt lat="41.622231410" lon="2.520404110">
        <ele>285.17</ele>
        <time>2015-01-18T06:32:35Z</time>
      </trkpt>
      <trkpt lat="41.622359490" lon="2.520372340">
        <ele>287.57</ele>
        <time>2015-01-18T06:32:45Z</time>
      </trkpt>
      <trkpt lat="41.622468450" lon="2.520370330">
        <ele>289.01</ele>
        <time>2015-01-18T06:32:53Z</time>
      </trkpt>
      <trkpt lat="41.622501390" lon="2.520391620">
        <ele>289.49</ele>
        <time>2015-01-18T06:32:56Z</time>
      </trkpt>
      <trkpt lat="41.622500050" lon="2.520482400">
        <ele>290.46</ele>
        <time>2015-01-18T06:33:02Z</time>
      </trkpt>
      <trkpt lat="41.622386810" lon="2.520493880">
        <ele>291.42</ele>
        <time>2015-01-18T06:33:10Z</time>
      </trkpt>
      <trkpt lat="41.622301570" lon="2.520525400">
        <ele>292.86</ele>
        <time>2015-01-18T06:33:17Z</time>
      </trkpt>
      <trkpt lat="41.622255970" lon="2.520565960">
        <ele>293.34</ele>
        <time>2015-01-18T06:33:21Z</time>
      </trkpt>
      <trkpt lat="41.622230490" lon="2.520587340">
        <ele>293.34</ele>
        <time>2015-01-18T06:33:23Z</time>
      </trkpt>
      <trkpt lat="41.622110550" lon="2.520690270">
        <ele>294.78</ele>
        <time>2015-01-18T06:33:32Z</time>
      </trkpt>
      <trkpt lat="41.621995550" lon="2.520789260">
        <ele>297.18</ele>
        <time>2015-01-18T06:33:42Z</time>
      </trkpt>
      <trkpt lat="41.621880380" lon="2.520880030">
        <ele>298.63</ele>
        <time>2015-01-18T06:33:51Z</time>
      </trkpt>
      <trkpt lat="41.621755990" lon="2.521002660">
        <ele>299.59</ele>
        <time>2015-01-18T06:34:01Z</time>
      </trkpt>
      <trkpt lat="41.621641240" lon="2.521034680">
        <ele>300.55</ele>
        <time>2015-01-18T06:34:09Z</time>
      </trkpt>
      <trkpt lat="41.621538570" lon="2.520979280">
        <ele>301.51</ele>
        <time>2015-01-18T06:34:16Z</time>
      </trkpt>
      <trkpt lat="41.621421720" lon="2.520937950">
        <ele>301.99</ele>
        <time>2015-01-18T06:34:24Z</time>
      </trkpt>
      <trkpt lat="41.621295660" lon="2.520971570">
        <ele>302.95</ele>
        <time>2015-01-18T06:34:32Z</time>
      </trkpt>
      <trkpt lat="41.621155010" lon="2.521012220">
        <ele>304.39</ele>
        <time>2015-01-18T06:34:42Z</time>
      </trkpt>
      <trkpt lat="41.621105640" lon="2.521075170">
        <ele>304.88</ele>
        <time>2015-01-18T06:34:47Z</time>
      </trkpt>
      <trkpt lat="41.621136990" lon="2.521122610">
        <ele>305.84</ele>
        <time>2015-01-18T06:34:51Z</time>
      </trkpt>
      <trkpt lat="41.621183840" lon="2.521108020">
        <ele>306.80</ele>
        <time>2015-01-18T06:34:55Z</time>
      </trkpt>
      <trkpt lat="41.621299350" lon="2.521138370">
        <ele>309.20</ele>
        <time>2015-01-18T06:35:03Z</time>
      </trkpt>
      <trkpt lat="41.621407720" lon="2.521266690">
        <ele>311.12</ele>
        <time>2015-01-18T06:35:12Z</time>
      </trkpt>
      <trkpt lat="41.621479810" lon="2.521366520">
        <ele>312.09</ele>
        <time>2015-01-18T06:35:19Z</time>
      </trkpt>
      <trkpt lat="41.621569410" lon="2.521509100">
        <ele>314.01</ele>
        <time>2015-01-18T06:35:28Z</time>
      </trkpt>
      <trkpt lat="41.621640490" lon="2.521642200">
        <ele>315.45</ele>
        <time>2015-01-18T06:35:36Z</time>
      </trkpt>
      <trkpt lat="41.621722800" lon="2.521784440">
        <ele>316.89</ele>
        <time>2015-01-18T06:35:45Z</time>
      </trkpt>
      <trkpt lat="41.621788850" lon="2.521929450">
        <ele>318.33</ele>
        <time>2015-01-18T06:35:53Z</time>
      </trkpt>
      <trkpt lat="41.621835620" lon="2.522045620">
        <ele>320.26</ele>
        <time>2015-01-18T06:36:00Z</time>
      </trkpt>
      <trkpt lat="41.621911480" lon="2.522226590">
        <ele>321.22</ele>
        <time>2015-01-18T06:36:10Z</time>
      </trkpt>
      <trkpt lat="41.621973590" lon="2.522307470">
        <ele>323.62</ele>
        <time>2015-01-18T06:36:18Z</time>
      </trkpt>
      <trkpt lat="41.621981130" lon="2.522301860">
        <ele>323.62</ele>
        <time>2015-01-18T06:36:19Z</time>
      </trkpt>
      <trkpt lat="41.621988920" lon="2.522192890">
        <ele>324.58</ele>
        <time>2015-01-18T06:36:25Z</time>
      </trkpt>
      <trkpt lat="41.621962020" lon="2.522020900">
        <ele>326.02</ele>
        <time>2015-01-18T06:36:34Z</time>
      </trkpt>
      <trkpt lat="41.621976940" lon="2.521898270">
        <ele>327.47</ele>
        <time>2015-01-18T06:36:41Z</time>
      </trkpt>
      <trkpt lat="41.622001080" lon="2.521752930">
        <ele>328.43</ele>
        <time>2015-01-18T06:36:48Z</time>
      </trkpt>
      <trkpt lat="41.622048100" lon="2.521618730">
        <ele>330.35</ele>
        <time>2015-01-18T06:36:55Z</time>
      </trkpt>
      <trkpt lat="41.622103920" lon="2.521552260">
        <ele>330.35</ele>
        <time>2015-01-18T06:37:00Z</time>
      </trkpt>
      <trkpt lat="41.622205680" lon="2.521540860">
        <ele>330.83</ele>
        <time>2015-01-18T06:37:07Z</time>
      </trkpt>
      <trkpt lat="41.622248600" lon="2.521555200">
        <ele>331.31</ele>
        <time>2015-01-18T06:37:10Z</time>
      </trkpt>
      <trkpt lat="41.622342390" lon="2.521636170">
        <ele>331.79</ele>
        <time>2015-01-18T06:37:17Z</time>
      </trkpt>
      <trkpt lat="41.622499970" lon="2.521766840">
        <ele>333.71</ele>
        <time>2015-01-18T06:37:28Z</time>
      </trkpt>
      <trkpt lat="41.622622180" lon="2.521842700">
        <ele>335.64</ele>
        <time>2015-01-18T06:37:38Z</time>
      </trkpt>
      <trkpt lat="41.622754440" lon="2.521874380">
        <ele>336.60</ele>
        <time>2015-01-18T06:37:47Z</time>
      </trkpt>
      <trkpt lat="41.622909760" lon="2.521876560">
        <ele>339.00</ele>
        <time>2015-01-18T06:37:57Z</time>
      </trkpt>
      <trkpt lat="41.623046720" lon="2.521834060">
        <ele>339.48</ele>
        <time>2015-01-18T06:38:06Z</time>
      </trkpt>
      <trkpt lat="41.623171530" lon="2.521799780">
        <ele>340.44</ele>
        <time>2015-01-18T06:38:14Z</time>
      </trkpt>
      <trkpt lat="41.623255100" lon="2.521840430">
        <ele>341.89</ele>
        <time>2015-01-18T06:38:19Z</time>
      </trkpt>
      <trkpt lat="41.623327180" lon="2.521961470">
        <ele>342.37</ele>
        <time>2015-01-18T06:38:26Z</time>
      </trkpt>
      <trkpt lat="41.623447460" lon="2.522089290">
        <ele>343.33</ele>
        <time>2015-01-18T06:38:34Z</time>
      </trkpt>
      <trkpt lat="41.623593980" lon="2.522249970">
        <ele>344.77</ele>
        <time>2015-01-18T06:38:44Z</time>
      </trkpt>
      <trkpt lat="41.623743510" lon="2.522386510">
        <ele>345.73</ele>
        <time>2015-01-18T06:38:54Z</time>
      </trkpt>
      <trkpt lat="41.623869820" lon="2.522489020">
        <ele>346.69</ele>
        <time>2015-01-18T06:39:02Z</time>
      </trkpt>
      <trkpt lat="41.624001920" lon="2.522639310">
        <ele>347.17</ele>
        <time>2015-01-18T06:39:11Z</time>
      </trkpt>
      <trkpt lat="41.624120950" lon="2.522881130">
        <ele>348.13</ele>
        <time>2015-01-18T06:39:21Z</time>
      </trkpt>
      <trkpt lat="41.624207780" lon="2.523105430">
        <ele>348.62</ele>
        <time>2015-01-18T06:39:29Z</time>
      </trkpt>
      <trkpt lat="41.624280450" lon="2.523338780">
        <ele>348.62</ele>
        <time>2015-01-18T06:39:37Z</time>
      </trkpt>
      <trkpt lat="41.624339290" lon="2.523563000">
        <ele>349.58</ele>
        <time>2015-01-18T06:39:45Z</time>
      </trkpt>
      <trkpt lat="41.624408360" lon="2.523743960">
        <ele>350.54</ele>
        <time>2015-01-18T06:39:53Z</time>
      </trkpt>
      <trkpt lat="41.624488490" lon="2.523905060">
        <ele>351.50</ele>
        <time>2015-01-18T06:40:00Z</time>
      </trkpt>
      <trkpt lat="41.624585220" lon="2.524129870">
        <ele>353.42</ele>
        <time>2015-01-18T06:40:10Z</time>
      </trkpt>
      <trkpt lat="41.624664090" lon="2.524333130">
        <ele>355.34</ele>
        <time>2015-01-18T06:40:19Z</time>
      </trkpt>
      <trkpt lat="41.624716060" lon="2.524525490">
        <ele>355.83</ele>
        <time>2015-01-18T06:40:27Z</time>
      </trkpt>
      <trkpt lat="41.624842880" lon="2.524828250">
        <ele>357.27</ele>
        <time>2015-01-18T06:40:39Z</time>
      </trkpt>
      <trkpt lat="41.624942370" lon="2.525080880">
        <ele>357.75</ele>
        <time>2015-01-18T06:40:50Z</time>
      </trkpt>
      <trkpt lat="41.625028120" lon="2.525213730">
        <ele>357.75</ele>
        <time>2015-01-18T06:40:56Z</time>
      </trkpt>
      <trkpt lat="41.625224170" lon="2.525444990">
        <ele>358.71</ele>
        <time>2015-01-18T06:41:07Z</time>
      </trkpt>
      <trkpt lat="41.625379070" lon="2.525636600">
        <ele>358.71</ele>
        <time>2015-01-18T06:41:16Z</time>
      </trkpt>
      <trkpt lat="41.625516950" lon="2.525866930">
        <ele>359.67</ele>
        <time>2015-01-18T06:41:26Z</time>
      </trkpt>
      <trkpt lat="41.625651980" lon="2.526052170">
        <ele>359.67</ele>
        <time>2015-01-18T06:41:33Z</time>
      </trkpt>
      <trkpt lat="41.625885760" lon="2.526218470">
        <ele>359.67</ele>
        <time>2015-01-18T06:41:42Z</time>
      </trkpt>
      <trkpt lat="41.626097900" lon="2.526414940">
        <ele>359.67</ele>
        <time>2015-01-18T06:41:51Z</time>
      </trkpt>
      <trkpt lat="41.626233020" lon="2.526595740">
        <ele>359.67</ele>
        <time>2015-01-18T06:41:59Z</time>
      </trkpt>
      <trkpt lat="41.626323540" lon="2.526764210">
        <ele>360.15</ele>
        <time>2015-01-18T06:42:06Z</time>
      </trkpt>
      <trkpt lat="41.626356230" lon="2.526899160">
        <ele>360.15</ele>
        <time>2015-01-18T06:42:13Z</time>
      </trkpt>
      <trkpt lat="41.626363270" lon="2.526952980">
        <ele>360.15</ele>
        <time>2015-01-18T06:42:16Z</time>
      </trkpt>
      <trkpt lat="41.626432170" lon="2.526997400">
        <ele>360.15</ele>
        <time>2015-01-18T06:42:22Z</time>
      </trkpt>
      <trkpt lat="41.626440970" lon="2.527006870">
        <ele>360.15</ele>
        <time>2015-01-18T06:42:23Z</time>
      </trkpt>
      <trkpt lat="41.626454550" lon="2.527029420">
        <ele>360.63</ele>
        <time>2015-01-18T06:42:25Z</time>
      </trkpt>
      <trkpt lat="41.626448600" lon="2.527143160">
        <ele>361.11</ele>
        <time>2015-01-18T06:42:32Z</time>
      </trkpt>
      <trkpt lat="41.626497550" lon="2.527270480">
        <ele>361.11</ele>
        <time>2015-01-18T06:42:37Z</time>
      </trkpt>
      <trkpt lat="41.626585900" lon="2.527313650">
        <ele>362.07</ele>
        <time>2015-01-18T06:42:42Z</time>
      </trkpt>
      <trkpt lat="41.626613890" lon="2.527328480">
        <ele>362.07</ele>
        <time>2015-01-18T06:42:44Z</time>
      </trkpt>
      <trkpt lat="41.626692930" lon="2.527334600">
        <ele>363.52</ele>
        <time>2015-01-18T06:42:50Z</time>
      </trkpt>
      <trkpt lat="41.626744310" lon="2.527309540">
        <ele>364.96</ele>
        <time>2015-01-18T06:42:54Z</time>
      </trkpt>
      <trkpt lat="41.626814970" lon="2.527293620">
        <ele>365.92</ele>
        <time>2015-01-18T06:42:59Z</time>
      </trkpt>
      <trkpt lat="41.626883620" lon="2.527293360">
        <ele>367.36</ele>
        <time>2015-01-18T06:43:04Z</time>
      </trkpt>
      <trkpt lat="41.626986220" lon="2.527357490">
        <ele>368.80</ele>
        <time>2015-01-18T06:43:12Z</time>
      </trkpt>
      <trkpt lat="41.627065930" lon="2.527388750">
        <ele>369.76</ele>
        <time>2015-01-18T06:43:18Z</time>
      </trkpt>
      <trkpt lat="41.627089820" lon="2.527406770">
        <ele>370.24</ele>
        <time>2015-01-18T06:43:20Z</time>
      </trkpt>
      <trkpt lat="41.627148070" lon="2.527423870">
        <ele>371.21</ele>
        <time>2015-01-18T06:43:24Z</time>
      </trkpt>
      <trkpt lat="41.627280840" lon="2.527503080">
        <ele>372.17</ele>
        <time>2015-01-18T06:43:33Z</time>
      </trkpt>
      <trkpt lat="41.627374050" lon="2.527562260">
        <ele>372.65</ele>
        <time>2015-01-18T06:43:40Z</time>
      </trkpt>
      <trkpt lat="41.627518720" lon="2.527652030">
        <ele>374.09</ele>
        <time>2015-01-18T06:43:50Z</time>
      </trkpt>
      <trkpt lat="41.627558700" lon="2.527687980">
        <ele>374.09</ele>
        <time>2015-01-18T06:43:53Z</time>
      </trkpt>
      <trkpt lat="41.627722900" lon="2.527777500">
        <ele>375.05</ele>
        <time>2015-01-18T06:44:04Z</time>
      </trkpt>
      <trkpt lat="41.627829180" lon="2.527844980">
        <ele>376.49</ele>
        <time>2015-01-18T06:44:11Z</time>
      </trkpt>
      <trkpt lat="41.627964800" lon="2.527933990">
        <ele>377.94</ele>
        <time>2015-01-18T06:44:20Z</time>
      </trkpt>
      <trkpt lat="41.628107710" lon="2.528041450">
        <ele>379.38</ele>
        <time>2015-01-18T06:44:30Z</time>
      </trkpt>
      <trkpt lat="41.628207790" lon="2.528130300">
        <ele>380.34</ele>
        <time>2015-01-18T06:44:38Z</time>
      </trkpt>
      <trkpt lat="41.628218270" lon="2.528142370">
        <ele>380.82</ele>
        <time>2015-01-18T06:44:39Z</time>
      </trkpt>
      <trkpt lat="41.628334280" lon="2.528255520">
        <ele>381.78</ele>
        <time>2015-01-18T06:44:48Z</time>
      </trkpt>
      <trkpt lat="41.628452710" lon="2.528368590">
        <ele>383.22</ele>
        <time>2015-01-18T06:44:57Z</time>
      </trkpt>
      <trkpt lat="41.628508370" lon="2.528436660">
        <ele>383.70</ele>
        <time>2015-01-18T06:45:02Z</time>
      </trkpt>
      <trkpt lat="41.628627480" lon="2.528595490">
        <ele>384.18</ele>
        <time>2015-01-18T06:45:11Z</time>
      </trkpt>
      <trkpt lat="41.628697050" lon="2.528762710">
        <ele>384.66</ele>
        <time>2015-01-18T06:45:18Z</time>
      </trkpt>
      <trkpt lat="41.628705090" lon="2.528790200">
        <ele>384.66</ele>
        <time>2015-01-18T06:45:19Z</time>
      </trkpt>
      <trkpt lat="41.628805340" lon="2.528979050">
        <ele>384.66</ele>
        <time>2015-01-18T06:45:27Z</time>
      </trkpt>
      <trkpt lat="41.628819840" lon="2.529008720">
        <ele>384.66</ele>
        <time>2015-01-18T06:45:28Z</time>
      </trkpt>
      <trkpt lat="41.628984550" lon="2.529330330">
        <ele>384.66</ele>
        <time>2015-01-18T06:45:39Z</time>
      </trkpt>
      <trkpt lat="41.629105920" lon="2.529531500">
        <ele>384.66</ele>
        <time>2015-01-18T06:45:46Z</time>
      </trkpt>
      <trkpt lat="41.629249500" lon="2.529810530">
        <ele>385.15</ele>
        <time>2015-01-18T06:45:55Z</time>
      </trkpt>
      <trkpt lat="41.629329210" lon="2.530082950">
        <ele>386.59</ele>
        <time>2015-01-18T06:46:04Z</time>
      </trkpt>
      <trkpt lat="41.629380420" lon="2.530316050">
        <ele>388.51</ele>
        <time>2015-01-18T06:46:12Z</time>
      </trkpt>
      <trkpt lat="41.629405400" lon="2.530528530">
        <ele>390.43</ele>
        <time>2015-01-18T06:46:19Z</time>
      </trkpt>
      <trkpt lat="41.629394000" lon="2.530795830">
        <ele>391.87</ele>
        <time>2015-01-18T06:46:28Z</time>
      </trkpt>
      <trkpt lat="41.629371540" lon="2.531065980">
        <ele>393.80</ele>
        <time>2015-01-18T06:46:38Z</time>
      </trkpt>
      <trkpt lat="41.629491990" lon="2.531245520">
        <ele>393.32</ele>
        <time>2015-01-18T06:46:45Z</time>
      </trkpt>
      <trkpt lat="41.629721150" lon="2.531399070">
        <ele>392.36</ele>
        <time>2015-01-18T06:46:51Z</time>
      </trkpt>
      <trkpt lat="41.630089450" lon="2.531550030">
        <ele>389.95</ele>
        <time>2015-01-18T06:46:57Z</time>
      </trkpt>
      <trkpt lat="41.630318270" lon="2.531627480">
        <ele>388.03</ele>
        <time>2015-01-18T06:47:00Z</time>
      </trkpt>
      <trkpt lat="41.630602500" lon="2.531562850">
        <ele>387.07</ele>
        <time>2015-01-18T06:47:04Z</time>
      </trkpt>
      <trkpt lat="41.630934850" lon="2.531423460">
        <ele>386.59</ele>
        <time>2015-01-18T06:47:09Z</time>
      </trkpt>
      <trkpt lat="41.631228970" lon="2.531475430">
        <ele>386.11</ele>
        <time>2015-01-18T06:47:14Z</time>
      </trkpt>
      <trkpt lat="41.631419910" lon="2.531435620">
        <ele>386.11</ele>
        <time>2015-01-18T06:47:18Z</time>
      </trkpt>
      <trkpt lat="41.631569440" lon="2.531248030">
        <ele>384.66</ele>
        <time>2015-01-18T06:47:22Z</time>
      </trkpt>
      <trkpt lat="41.631881500" lon="2.530718210">
        <ele>382.74</ele>
        <time>2015-01-18T06:47:31Z</time>
      </trkpt>
      <trkpt lat="41.632026920" lon="2.530494580">
        <ele>380.82</ele>
        <time>2015-01-18T06:47:36Z</time>
      </trkpt>
      <trkpt lat="41.632153740" lon="2.530593070">
        <ele>378.90</ele>
        <time>2015-01-18T06:47:40Z</time>
      </trkpt>
      <trkpt lat="41.632495220" lon="2.530937980">
        <ele>377.45</ele>
        <time>2015-01-18T06:47:47Z</time>
      </trkpt>
      <trkpt lat="41.632714830" lon="2.531163210">
        <ele>376.97</ele>
        <time>2015-01-18T06:47:52Z</time>
      </trkpt>
      <trkpt lat="41.633036520" lon="2.531643570">
        <ele>376.01</ele>
        <time>2015-01-18T06:48:00Z</time>
      </trkpt>
      <trkpt lat="41.633148670" lon="2.531808610">
        <ele>376.97</ele>
        <time>2015-01-18T06:48:05Z</time>
      </trkpt>
      <trkpt lat="41.633225960" lon="2.532004160">
        <ele>378.90</ele>
        <time>2015-01-18T06:48:13Z</time>
      </trkpt>
      <trkpt lat="41.633232410" lon="2.532200130">
        <ele>380.82</ele>
        <time>2015-01-18T06:48:21Z</time>
      </trkpt>
      <trkpt lat="41.633236680" lon="2.532384780">
        <ele>382.26</ele>
        <time>2015-01-18T06:48:29Z</time>
      </trkpt>
      <trkpt lat="41.633239280" lon="2.532495930">
        <ele>383.22</ele>
        <time>2015-01-18T06:48:34Z</time>
      </trkpt>
      <trkpt lat="41.633236430" lon="2.532575640">
        <ele>384.66</ele>
        <time>2015-01-18T06:48:38Z</time>
      </trkpt>
      <trkpt lat="41.633256880" lon="2.532693410">
        <ele>385.63</ele>
        <time>2015-01-18T06:48:44Z</time>
      </trkpt>
      <trkpt lat="41.633328210" lon="2.532804550">
        <ele>386.11</ele>
        <time>2015-01-18T06:48:50Z</time>
      </trkpt>
      <trkpt lat="41.633437930" lon="2.532947380">
        <ele>384.66</ele>
        <time>2015-01-18T06:48:54Z</time>
      </trkpt>
      <trkpt lat="41.633605400" lon="2.533196990">
        <ele>380.34</ele>
        <time>2015-01-18T06:49:00Z</time>
      </trkpt>
      <trkpt lat="41.633733900" lon="2.533398320">
        <ele>377.45</ele>
        <time>2015-01-18T06:49:04Z</time>
      </trkpt>
      <trkpt lat="41.633769860" lon="2.533455070">
        <ele>376.49</ele>
        <time>2015-01-18T06:49:05Z</time>
      </trkpt>
      <trkpt lat="41.633931290" lon="2.533577950">
        <ele>376.97</ele>
        <time>2015-01-18T06:49:10Z</time>
      </trkpt>
      <trkpt lat="41.634001530" lon="2.533596810">
        <ele>378.42</ele>
        <time>2015-01-18T06:49:15Z</time>
      </trkpt>
      <trkpt lat="41.634013770" lon="2.533597480">
        <ele>378.90</ele>
        <time>2015-01-18T06:49:16Z</time>
      </trkpt>
      <trkpt lat="41.634146620" lon="2.533550200">
        <ele>377.45</ele>
        <time>2015-01-18T06:49:22Z</time>
      </trkpt>
      <trkpt lat="41.634280060" lon="2.533519440">
        <ele>376.49</ele>
        <time>2015-01-18T06:49:27Z</time>
      </trkpt>
      <trkpt lat="41.634476540" lon="2.533518520">
        <ele>374.09</ele>
        <time>2015-01-18T06:49:32Z</time>
      </trkpt>
      <trkpt lat="41.634612910" lon="2.533498820">
        <ele>373.13</ele>
        <time>2015-01-18T06:49:35Z</time>
      </trkpt>
      <trkpt lat="41.634700920" lon="2.533272850">
        <ele>372.17</ele>
        <time>2015-01-18T06:49:39Z</time>
      </trkpt>
      <trkpt lat="41.634651130" lon="2.532978470">
        <ele>371.21</ele>
        <time>2015-01-18T06:49:43Z</time>
      </trkpt>
      <trkpt lat="41.634638390" lon="2.532775380">
        <ele>368.80</ele>
        <time>2015-01-18T06:49:46Z</time>
      </trkpt>
      <trkpt lat="41.634638810" lon="2.532709500">
        <ele>367.84</ele>
        <time>2015-01-18T06:49:47Z</time>
      </trkpt>
      <trkpt lat="41.634650120" lon="2.532237680">
        <ele>365.92</ele>
        <time>2015-01-18T06:49:54Z</time>
      </trkpt>
      <trkpt lat="41.634767140" lon="2.531991090">
        <ele>365.92</ele>
        <time>2015-01-18T06:50:00Z</time>
      </trkpt>
      <trkpt lat="41.634878030" lon="2.531836940">
        <ele>367.84</ele>
        <time>2015-01-18T06:50:07Z</time>
      </trkpt>
      <trkpt lat="41.634932930" lon="2.531795790">
        <ele>368.80</ele>
        <time>2015-01-18T06:50:10Z</time>
      </trkpt>
      <trkpt lat="41.635029320" lon="2.531802490">
        <ele>370.24</ele>
        <time>2015-01-18T06:50:15Z</time>
      </trkpt>
      <trkpt lat="41.635200560" lon="2.531954620">
        <ele>372.17</ele>
        <time>2015-01-18T06:50:25Z</time>
      </trkpt>
      <trkpt lat="41.635314470" lon="2.532100390">
        <ele>373.13</ele>
        <time>2015-01-18T06:50:32Z</time>
      </trkpt>
      <trkpt lat="41.635504660" lon="2.532158140">
        <ele>373.61</ele>
        <time>2015-01-18T06:50:39Z</time>
      </trkpt>
      <trkpt lat="41.635580260" lon="2.532012880">
        <ele>373.61</ele>
        <time>2015-01-18T06:50:43Z</time>
      </trkpt>
      <trkpt lat="41.635591750" lon="2.531807860">
        <ele>373.61</ele>
        <time>2015-01-18T06:50:48Z</time>
      </trkpt>
      <trkpt lat="41.635635750" lon="2.531557740">
        <ele>373.61</ele>
        <time>2015-01-18T06:50:55Z</time>
      </trkpt>
      <trkpt lat="41.635690910" lon="2.531289190">
        <ele>376.49</ele>
        <time>2015-01-18T06:51:04Z</time>
      </trkpt>
      <trkpt lat="41.635757790" lon="2.531043600">
        <ele>378.42</ele>
        <time>2015-01-18T06:51:14Z</time>
      </trkpt>
      <trkpt lat="41.635847980" lon="2.530952570">
        <ele>379.38</ele>
        <time>2015-01-18T06:51:20Z</time>
      </trkpt>
      <trkpt lat="41.635988130" lon="2.530922560">
        <ele>380.82</ele>
        <time>2015-01-18T06:51:27Z</time>
      </trkpt>
      <trkpt lat="41.636041190" lon="2.530907980">
        <ele>381.30</ele>
        <time>2015-01-18T06:51:30Z</time>
      </trkpt>
      <trkpt lat="41.636128440" lon="2.530897330">
        <ele>382.26</ele>
        <time>2015-01-18T06:51:35Z</time>
      </trkpt>
      <trkpt lat="41.636253330" lon="2.530890540">
        <ele>382.26</ele>
        <time>2015-01-18T06:51:42Z</time>
      </trkpt>
      <trkpt lat="41.636305630" lon="2.530967070">
        <ele>382.26</ele>
        <time>2015-01-18T06:51:47Z</time>
      </trkpt>
      <trkpt lat="41.636323240" lon="2.531017280">
        <ele>382.26</ele>
        <time>2015-01-18T06:51:55Z</time>
      </trkpt>
      <trkpt lat="41.636323150" lon="2.530964130">
        <ele>382.26</ele>
        <time>2015-01-18T06:52:02Z</time>
      </trkpt>
      <trkpt lat="41.636288950" lon="2.530909740">
        <ele>382.26</ele>
        <time>2015-01-18T06:52:06Z</time>
      </trkpt>
      <trkpt lat="41.636268750" lon="2.530885930">
        <ele>382.26</ele>
        <time>2015-01-18T06:52:08Z</time>
      </trkpt>
      <trkpt lat="41.636200940" lon="2.530921550">
        <ele>382.26</ele>
        <time>2015-01-18T06:52:14Z</time>
      </trkpt>
      <trkpt lat="41.636169010" lon="2.530992720">
        <ele>383.22</ele>
        <time>2015-01-18T06:52:20Z</time>
      </trkpt>
      <trkpt lat="41.636110080" lon="2.531121380">
        <ele>385.63</ele>
        <time>2015-01-18T06:52:28Z</time>
      </trkpt>
      <trkpt lat="41.636083010" lon="2.531227830">
        <ele>386.59</ele>
        <time>2015-01-18T06:52:34Z</time>
      </trkpt>
      <trkpt lat="41.636059210" lon="2.531415920">
        <ele>388.99</ele>
        <time>2015-01-18T06:52:44Z</time>
      </trkpt>
      <trkpt lat="41.636057030" lon="2.531589340">
        <ele>389.95</ele>
        <time>2015-01-18T06:52:53Z</time>
      </trkpt>
      <trkpt lat="41.636068010" lon="2.531775000">
        <ele>390.43</ele>
        <time>2015-01-18T06:53:01Z</time>
      </trkpt>
      <trkpt lat="41.636059460" lon="2.531991760">
        <ele>391.39</ele>
        <time>2015-01-18T06:53:12Z</time>
      </trkpt>
      <trkpt lat="41.636050410" lon="2.532107510">
        <ele>392.36</ele>
        <time>2015-01-18T06:53:18Z</time>
      </trkpt>
      <trkpt lat="41.636047890" lon="2.532216730">
        <ele>392.84</ele>
        <time>2015-01-18T06:53:24Z</time>
      </trkpt>
      <trkpt lat="41.636025850" lon="2.532432560">
        <ele>394.28</ele>
        <time>2015-01-18T06:53:35Z</time>
      </trkpt>
      <trkpt lat="41.635995250" lon="2.532587210">
        <ele>396.20</ele>
        <time>2015-01-18T06:53:43Z</time>
      </trkpt>
      <trkpt lat="41.635980420" lon="2.532623420">
        <ele>396.20</ele>
        <time>2015-01-18T06:53:45Z</time>
      </trkpt>
      <trkpt lat="41.635951080" lon="2.532711590">
        <ele>397.64</ele>
        <time>2015-01-18T06:53:50Z</time>
      </trkpt>
      <trkpt lat="41.635904140" lon="2.532871270">
        <ele>400.05</ele>
        <time>2015-01-18T06:54:00Z</time>
      </trkpt>
      <trkpt lat="41.635851670" lon="2.533030940">
        <ele>402.93</ele>
        <time>2015-01-18T06:54:10Z</time>
      </trkpt>
      <trkpt lat="41.635827450" lon="2.533126000">
        <ele>403.89</ele>
        <time>2015-01-18T06:54:17Z</time>
      </trkpt>
      <trkpt lat="41.635781260" lon="2.533221300">
        <ele>405.33</ele>
        <time>2015-01-18T06:54:24Z</time>
      </trkpt>
      <trkpt lat="41.635762320" lon="2.533258510">
        <ele>405.81</ele>
        <time>2015-01-18T06:54:27Z</time>
      </trkpt>
      <trkpt lat="41.635754780" lon="2.533312580">
        <ele>405.33</ele>
        <time>2015-01-18T06:54:34Z</time>
      </trkpt>
      <trkpt lat="41.635760730" lon="2.533311990">
        <ele>405.33</ele>
        <time>2015-01-18T06:54:47Z</time>
      </trkpt>
      <trkpt lat="41.635774720" lon="2.533307630">
        <ele>405.81</ele>
        <time>2015-01-18T06:55:02Z</time>
      </trkpt>
      <trkpt lat="41.635780840" lon="2.533331270">
        <ele>405.81</ele>
        <time>2015-01-18T06:55:09Z</time>
      </trkpt>
      <trkpt lat="41.635819740" lon="2.533402350">
        <ele>405.81</ele>
        <time>2015-01-18T06:55:14Z</time>
      </trkpt>
      <trkpt lat="41.635916300" lon="2.533565960">
        <ele>405.81</ele>
        <time>2015-01-18T06:55:22Z</time>
      </trkpt>
      <trkpt lat="41.635924760" lon="2.533741730">
        <ele>405.81</ele>
        <time>2015-01-18T06:55:29Z</time>
      </trkpt>
      <trkpt lat="41.635864160" lon="2.533876760">
        <ele>405.81</ele>
        <time>2015-01-18T06:55:37Z</time>
      </trkpt>
      <trkpt lat="41.635858630" lon="2.534041470">
        <ele>405.81</ele>
        <time>2015-01-18T06:55:46Z</time>
      </trkpt>
      <trkpt lat="41.635862480" lon="2.534114980">
        <ele>406.29</ele>
        <time>2015-01-18T06:55:50Z</time>
      </trkpt>
      <trkpt lat="41.635915710" lon="2.534294600">
        <ele>406.77</ele>
        <time>2015-01-18T06:55:59Z</time>
      </trkpt>
      <trkpt lat="41.635990480" lon="2.534485880">
        <ele>408.22</ele>
        <time>2015-01-18T06:56:08Z</time>
      </trkpt>
      <trkpt lat="41.636000700" lon="2.534658460">
        <ele>408.70</ele>
        <time>2015-01-18T06:56:16Z</time>
      </trkpt>
      <trkpt lat="41.635973540" lon="2.534716040">
        <ele>409.18</ele>
        <time>2015-01-18T06:56:19Z</time>
      </trkpt>
      <trkpt lat="41.635890060" lon="2.534876390">
        <ele>411.10</ele>
        <time>2015-01-18T06:56:27Z</time>
      </trkpt>
      <trkpt lat="41.635811520" lon="2.535107560">
        <ele>411.58</ele>
        <time>2015-01-18T06:56:36Z</time>
      </trkpt>
      <trkpt lat="41.635719400" lon="2.535230520">
        <ele>411.58</ele>
        <time>2015-01-18T06:56:42Z</time>
      </trkpt>
      <trkpt lat="41.635601890" lon="2.535245860">
        <ele>412.06</ele>
        <time>2015-01-18T06:56:47Z</time>
      </trkpt>
      <trkpt lat="41.635387400" lon="2.535243260">
        <ele>410.62</ele>
        <time>2015-01-18T06:56:53Z</time>
      </trkpt>
      <trkpt lat="41.635318920" lon="2.535271590">
        <ele>410.14</ele>
        <time>2015-01-18T06:56:55Z</time>
      </trkpt>
      <trkpt lat="41.635349510" lon="2.535382070">
        <ele>408.70</ele>
        <time>2015-01-18T06:57:00Z</time>
      </trkpt>
      <trkpt lat="41.635571460" lon="2.535475110">
        <ele>408.22</ele>
        <time>2015-01-18T06:57:08Z</time>
      </trkpt>
      <trkpt lat="41.635836830" lon="2.535588100">
        <ele>407.26</ele>
        <time>2015-01-18T06:57:15Z</time>
      </trkpt>
      <trkpt lat="41.636212260" lon="2.535705530">
        <ele>404.85</ele>
        <time>2015-01-18T06:57:22Z</time>
      </trkpt>
      <trkpt lat="41.636350480" lon="2.535711900">
        <ele>403.89</ele>
        <time>2015-01-18T06:57:24Z</time>
      </trkpt>
      <trkpt lat="41.636415350" lon="2.535713820">
        <ele>402.93</ele>
        <time>2015-01-18T06:57:25Z</time>
      </trkpt>
      <trkpt lat="41.636661780" lon="2.535663030">
        <ele>401.01</ele>
        <time>2015-01-18T06:57:28Z</time>
      </trkpt>
      <trkpt lat="41.636980710" lon="2.535413750">
        <ele>395.72</ele>
        <time>2015-01-18T06:57:32Z</time>
      </trkpt>
      <trkpt lat="41.637053130" lon="2.535341580">
        <ele>394.28</ele>
        <time>2015-01-18T06:57:33Z</time>
      </trkpt>
      <trkpt lat="41.637181210" lon="2.535196070">
        <ele>389.95</ele>
        <time>2015-01-18T06:57:35Z</time>
      </trkpt>
      <trkpt lat="41.637378100" lon="2.535059620">
        <ele>385.15</ele>
        <time>2015-01-18T06:57:38Z</time>
      </trkpt>
      <trkpt lat="41.637464600" lon="2.535041090">
        <ele>384.18</ele>
        <time>2015-01-18T06:57:39Z</time>
      </trkpt>
      <trkpt lat="41.637876740" lon="2.534956350">
        <ele>377.94</ele>
        <time>2015-01-18T06:57:43Z</time>
      </trkpt>
      <trkpt lat="41.638227350" lon="2.534680250">
        <ele>375.53</ele>
        <time>2015-01-18T06:57:47Z</time>
      </trkpt>
      <trkpt lat="41.638550640" lon="2.534634820">
        <ele>373.13</ele>
        <time>2015-01-18T06:57:51Z</time>
      </trkpt>
      <trkpt lat="41.638684080" lon="2.534724420">
        <ele>373.13</ele>
        <time>2015-01-18T06:57:53Z</time>
      </trkpt>
      <trkpt lat="41.639003690" lon="2.534909250">
        <ele>372.17</ele>
        <time>2015-01-18T06:57:58Z</time>
      </trkpt>
      <trkpt lat="41.639216000" lon="2.534892230">
        <ele>372.65</ele>
        <time>2015-01-18T06:58:03Z</time>
      </trkpt>
      <trkpt lat="41.639240140" lon="2.534866250">
        <ele>372.65</ele>
        <time>2015-01-18T06:58:04Z</time>
      </trkpt>
      <trkpt lat="41.639350700" lon="2.534692990">
        <ele>372.65</ele>
        <time>2015-01-18T06:58:11Z</time>
      </trkpt>
      <trkpt lat="41.639473740" lon="2.534457540">
        <ele>374.09</ele>
        <time>2015-01-18T06:58:20Z</time>
      </trkpt>
      <trkpt lat="41.639593440" lon="2.534318150">
        <ele>375.53</ele>
        <time>2015-01-18T06:58:27Z</time>
      </trkpt>
      <trkpt lat="41.639631740" lon="2.534278930">
        <ele>375.53</ele>
        <time>2015-01-18T06:58:29Z</time>
      </trkpt>
      <trkpt lat="41.639648510" lon="2.534181610">
        <ele>376.49</ele>
        <time>2015-01-18T06:58:33Z</time>
      </trkpt>
      <trkpt lat="41.639649930" lon="2.534143390">
        <ele>376.49</ele>
        <time>2015-01-18T06:58:40Z</time>
      </trkpt>
      <trkpt lat="41.639652440" lon="2.534127630">
        <ele>376.49</ele>
        <time>2015-01-18T06:58:48Z</time>
      </trkpt>
      <trkpt lat="41.639644400" lon="2.534033250">
        <ele>376.97</ele>
        <time>2015-01-18T06:58:54Z</time>
      </trkpt>
      <trkpt lat="41.639690670" lon="2.533777860">
        <ele>377.94</ele>
        <time>2015-01-18T06:59:02Z</time>
      </trkpt>
      <trkpt lat="41.639755710" lon="2.533489430">
        <ele>378.42</ele>
        <time>2015-01-18T06:59:10Z</time>
      </trkpt>
      <trkpt lat="41.639808770" lon="2.533230350">
        <ele>378.90</ele>
        <time>2015-01-18T06:59:17Z</time>
      </trkpt>
      <trkpt lat="41.639817820" lon="2.533186350">
        <ele>378.90</ele>
        <time>2015-01-18T06:59:18Z</time>
      </trkpt>
      <trkpt lat="41.639756880" lon="2.533022060">
        <ele>378.90</ele>
        <time>2015-01-18T06:59:22Z</time>
      </trkpt>
      <trkpt lat="41.639652530" lon="2.532756770">
        <ele>375.53</ele>
        <time>2015-01-18T06:59:28Z</time>
      </trkpt>
      <trkpt lat="41.639680690" lon="2.532650830">
        <ele>374.57</ele>
        <time>2015-01-18T06:59:30Z</time>
      </trkpt>
      <trkpt lat="41.639760740" lon="2.532442120">
        <ele>371.69</ele>
        <time>2015-01-18T06:59:34Z</time>
      </trkpt>
      <trkpt lat="41.639845900" lon="2.532128630">
        <ele>367.84</ele>
        <time>2015-01-18T06:59:39Z</time>
      </trkpt>
      <trkpt lat="41.639882110" lon="2.532026040">
        <ele>366.88</ele>
        <time>2015-01-18T06:59:41Z</time>
      </trkpt>
      <trkpt lat="41.639873730" lon="2.531771730">
        <ele>363.52</ele>
        <time>2015-01-18T06:59:46Z</time>
      </trkpt>
      <trkpt lat="41.639799300" lon="2.531505350">
        <ele>361.11</ele>
        <time>2015-01-18T06:59:53Z</time>
      </trkpt>
      <trkpt lat="41.639795520" lon="2.531293120">
        <ele>359.67</ele>
        <time>2015-01-18T06:59:59Z</time>
      </trkpt>
      <trkpt lat="41.639781360" lon="2.530985840">
        <ele>356.79</ele>
        <time>2015-01-18T07:00:06Z</time>
      </trkpt>
      <trkpt lat="41.639751350" lon="2.530827340">
        <ele>355.34</ele>
        <time>2015-01-18T07:00:09Z</time>
      </trkpt>
      <trkpt lat="41.639728640" lon="2.530602460">
        <ele>352.46</ele>
        <time>2015-01-18T07:00:15Z</time>
      </trkpt>
      <trkpt lat="41.639744810" lon="2.530479410">
        <ele>351.02</ele>
        <time>2015-01-18T07:00:22Z</time>
      </trkpt>
      <trkpt lat="41.639752440" lon="2.530419730">
        <ele>350.06</ele>
        <time>2015-01-18T07:00:28Z</time>
      </trkpt>
      <trkpt lat="41.639749260" lon="2.530408160">
        <ele>350.06</ele>
        <time>2015-01-18T07:00:33Z</time>
      </trkpt>
      <trkpt lat="41.639761070" lon="2.530310770">
        <ele>348.62</ele>
        <time>2015-01-18T07:00:38Z</time>
      </trkpt>
      <trkpt lat="41.639802310" lon="2.530103060">
        <ele>346.69</ele>
        <time>2015-01-18T07:00:45Z</time>
      </trkpt>
      <trkpt lat="41.639873560" lon="2.529866610">
        <ele>344.29</ele>
        <time>2015-01-18T07:00:51Z</time>
      </trkpt>
      <trkpt lat="41.639904400" lon="2.529774410">
        <ele>343.33</ele>
        <time>2015-01-18T07:00:54Z</time>
      </trkpt>
      <trkpt lat="41.639913880" lon="2.529626130">
        <ele>341.89</ele>
        <time>2015-01-18T07:01:00Z</time>
      </trkpt>
      <trkpt lat="41.639990740" lon="2.529604590">
        <ele>340.92</ele>
        <time>2015-01-18T07:01:06Z</time>
      </trkpt>
      <trkpt lat="41.640076650" lon="2.529637700">
        <ele>339.00</ele>
        <time>2015-01-18T07:01:12Z</time>
      </trkpt>
      <trkpt lat="41.640090570" lon="2.529655970">
        <ele>338.52</ele>
        <time>2015-01-18T07:01:13Z</time>
      </trkpt>
      <trkpt lat="41.640188470" lon="2.529845400">
        <ele>336.12</ele>
        <time>2015-01-18T07:01:19Z</time>
      </trkpt>
      <trkpt lat="41.640207580" lon="2.529890580">
        <ele>334.68</ele>
        <time>2015-01-18T07:01:21Z</time>
      </trkpt>
      <trkpt lat="41.640279490" lon="2.529994520">
        <ele>332.27</ele>
        <time>2015-01-18T07:01:27Z</time>
      </trkpt>
      <trkpt lat="41.640370350" lon="2.530078080">
        <ele>330.83</ele>
        <time>2015-01-18T07:01:31Z</time>
      </trkpt>
      <trkpt lat="41.640431710" lon="2.530147990">
        <ele>328.91</ele>
        <time>2015-01-18T07:01:37Z</time>
      </trkpt>
      <trkpt lat="41.640462560" lon="2.530152350">
        <ele>328.91</ele>
        <time>2015-01-18T07:01:56Z</time>
      </trkpt>
      <trkpt lat="41.640484430" lon="2.530239600">
        <ele>328.43</ele>
        <time>2015-01-18T07:02:03Z</time>
      </trkpt>
      <trkpt lat="41.640500110" lon="2.530308590">
        <ele>326.50</ele>
        <time>2015-01-18T07:02:09Z</time>
      </trkpt>
      <trkpt lat="41.640472870" lon="2.530308840">
        <ele>326.50</ele>
        <time>2015-01-18T07:02:17Z</time>
      </trkpt>
      <trkpt lat="41.640455680" lon="2.530323090">
        <ele>326.50</ele>
        <time>2015-01-18T07:02:24Z</time>
      </trkpt>
      <trkpt lat="41.640423160" lon="2.530331800">
        <ele>326.50</ele>
        <time>2015-01-18T07:02:54Z</time>
      </trkpt>
      <trkpt lat="41.640427440" lon="2.530322330">
        <ele>326.50</ele>
        <time>2015-01-18T07:03:19Z</time>
      </trkpt>
      <trkpt lat="41.640453250" lon="2.530344540">
        <ele>326.50</ele>
        <time>2015-01-18T07:03:40Z</time>
      </trkpt>
      <trkpt lat="41.640447890" lon="2.530341530">
        <ele>326.50</ele>
        <time>2015-01-18T07:04:02Z</time>
      </trkpt>
      <trkpt lat="41.640420900" lon="2.530360810">
        <ele>326.50</ele>
        <time>2015-01-18T07:04:23Z</time>
      </trkpt>
      <trkpt lat="41.640459870" lon="2.530342450">
        <ele>326.50</ele>
        <time>2015-01-18T07:04:28Z</time>
      </trkpt>
      <trkpt lat="41.640472110" lon="2.530340440">
        <ele>326.50</ele>
        <time>2015-01-18T07:04:32Z</time>
      </trkpt>
      <trkpt lat="41.640562300" lon="2.530412520">
        <ele>325.54</ele>
        <time>2015-01-18T07:04:37Z</time>
      </trkpt>
      <trkpt lat="41.640673780" lon="2.530520650">
        <ele>325.06</ele>
        <time>2015-01-18T07:04:44Z</time>
      </trkpt>
      <trkpt lat="41.640717780" lon="2.530575470">
        <ele>325.06</ele>
        <time>2015-01-18T07:04:48Z</time>
      </trkpt>
      <trkpt lat="41.640743520" lon="2.530599690">
        <ele>325.06</ele>
        <time>2015-01-18T07:04:55Z</time>
      </trkpt>
      <trkpt lat="41.640746530" lon="2.530600780">
        <ele>325.06</ele>
        <time>2015-01-18T07:05:06Z</time>
      </trkpt>
      <trkpt lat="41.640759190" lon="2.530598350">
        <ele>325.06</ele>
        <time>2015-01-18T07:05:16Z</time>
      </trkpt>
      <trkpt lat="41.640742600" lon="2.530621900">
        <ele>325.06</ele>
        <time>2015-01-18T07:05:33Z</time>
      </trkpt>
      <trkpt lat="41.640746700" lon="2.530604800">
        <ele>325.06</ele>
        <time>2015-01-18T07:05:45Z</time>
      </trkpt>
      <trkpt lat="41.640755840" lon="2.530683760">
        <ele>325.06</ele>
        <time>2015-01-18T07:05:50Z</time>
      </trkpt>
      <trkpt lat="41.640777210" lon="2.530807730">
        <ele>325.06</ele>
        <time>2015-01-18T07:05:56Z</time>
      </trkpt>
      <trkpt lat="41.640775790" lon="2.530848050">
        <ele>326.50</ele>
        <time>2015-01-18T07:05:58Z</time>
      </trkpt>
      <trkpt lat="41.640768160" lon="2.531042420">
        <ele>327.47</ele>
        <time>2015-01-18T07:06:07Z</time>
      </trkpt>
      <trkpt lat="41.640763550" lon="2.531186420">
        <ele>328.91</ele>
        <time>2015-01-18T07:06:15Z</time>
      </trkpt>
      <trkpt lat="41.640761710" lon="2.531255910">
        <ele>329.39</ele>
        <time>2015-01-18T07:06:18Z</time>
      </trkpt>
      <trkpt lat="41.640759610" lon="2.531344840">
        <ele>329.39</ele>
        <time>2015-01-18T07:06:22Z</time>
      </trkpt>
      <trkpt lat="41.640766150" lon="2.531466550">
        <ele>330.83</ele>
        <time>2015-01-18T07:06:28Z</time>
      </trkpt>
      <trkpt lat="41.640758520" lon="2.531583640">
        <ele>331.79</ele>
        <time>2015-01-18T07:06:34Z</time>
      </trkpt>
      <trkpt lat="41.640763210" lon="2.531804670">
        <ele>332.75</ele>
        <time>2015-01-18T07:06:44Z</time>
      </trkpt>
      <trkpt lat="41.640766990" lon="2.532001980">
        <ele>334.68</ele>
        <time>2015-01-18T07:06:54Z</time>
      </trkpt>
      <trkpt lat="41.640760030" lon="2.532181690">
        <ele>336.12</ele>
        <time>2015-01-18T07:07:03Z</time>
      </trkpt>
      <trkpt lat="41.640762290" lon="2.532347990">
        <ele>337.08</ele>
        <time>2015-01-18T07:07:11Z</time>
      </trkpt>
      <trkpt lat="41.640767150" lon="2.532384360">
        <ele>338.04</ele>
        <time>2015-01-18T07:07:13Z</time>
      </trkpt>
      <trkpt lat="41.640763630" lon="2.532584610">
        <ele>339.00</ele>
        <time>2015-01-18T07:07:23Z</time>
      </trkpt>
      <trkpt lat="41.640761290" lon="2.532604140">
        <ele>339.00</ele>
        <time>2015-01-18T07:07:24Z</time>
      </trkpt>
      <trkpt lat="41.640754750" lon="2.532731790">
        <ele>339.96</ele>
        <time>2015-01-18T07:07:31Z</time>
      </trkpt>
      <trkpt lat="41.640741840" lon="2.532852240">
        <ele>341.41</ele>
        <time>2015-01-18T07:07:38Z</time>
      </trkpt>
      <trkpt lat="41.640706800" lon="2.533056930">
        <ele>342.85</ele>
        <time>2015-01-18T07:07:50Z</time>
      </trkpt>
      <trkpt lat="41.640708480" lon="2.533097160">
        <ele>343.33</ele>
        <time>2015-01-18T07:07:53Z</time>
      </trkpt>
      <trkpt lat="41.640801440" lon="2.533160860">
        <ele>345.73</ele>
        <time>2015-01-18T07:08:02Z</time>
      </trkpt>
      <trkpt lat="41.640816020" lon="2.533153740">
        <ele>346.21</ele>
        <time>2015-01-18T07:08:03Z</time>
      </trkpt>
      <trkpt lat="41.640937640" lon="2.533065060">
        <ele>347.65</ele>
        <time>2015-01-18T07:08:13Z</time>
      </trkpt>
      <trkpt lat="41.641103100" lon="2.533010910">
        <ele>348.13</ele>
        <time>2015-01-18T07:08:24Z</time>
      </trkpt>
      <trkpt lat="41.641228660" lon="2.532971850">
        <ele>349.10</ele>
        <time>2015-01-18T07:08:32Z</time>
      </trkpt>
      <trkpt lat="41.641319940" lon="2.532870260">
        <ele>350.54</ele>
        <time>2015-01-18T07:08:40Z</time>
      </trkpt>
      <trkpt lat="41.641367470" lon="2.532690390">
        <ele>351.98</ele>
        <time>2015-01-18T07:08:49Z</time>
      </trkpt>
      <trkpt lat="41.641385490" lon="2.532490310">
        <ele>353.42</ele>
        <time>2015-01-18T07:08:59Z</time>
      </trkpt>
      <trkpt lat="41.641411300" lon="2.532334580">
        <ele>354.86</ele>
        <time>2015-01-18T07:09:06Z</time>
      </trkpt>
      <trkpt lat="41.641479700" lon="2.532163420">
        <ele>356.31</ele>
        <time>2015-01-18T07:09:15Z</time>
      </trkpt>
      <trkpt lat="41.641601320" lon="2.532057050">
        <ele>358.23</ele>
        <time>2015-01-18T07:09:25Z</time>
      </trkpt>
      <trkpt lat="41.641731160" lon="2.532069540">
        <ele>359.19</ele>
        <time>2015-01-18T07:09:34Z</time>
      </trkpt>
      <trkpt lat="41.641858650" lon="2.532089490">
        <ele>360.63</ele>
        <time>2015-01-18T07:09:43Z</time>
      </trkpt>
      <trkpt lat="41.641968450" lon="2.532118490">
        <ele>363.04</ele>
        <time>2015-01-18T07:09:51Z</time>
      </trkpt>
      <trkpt lat="41.642027540" lon="2.532074070">
        <ele>364.48</ele>
        <time>2015-01-18T07:09:56Z</time>
      </trkpt>
      <trkpt lat="41.642069200" lon="2.531863260">
        <ele>365.44</ele>
        <time>2015-01-18T07:10:07Z</time>
      </trkpt>
      <trkpt lat="41.642096520" lon="2.531790840">
        <ele>365.92</ele>
        <time>2015-01-18T07:10:11Z</time>
      </trkpt>
      <trkpt lat="41.642114540" lon="2.531683720">
        <ele>366.40</ele>
        <time>2015-01-18T07:10:16Z</time>
      </trkpt>
      <trkpt lat="41.642168780" lon="2.531532760">
        <ele>366.88</ele>
        <time>2015-01-18T07:10:24Z</time>
      </trkpt>
      <trkpt lat="41.642220740" lon="2.531368060">
        <ele>367.84</ele>
        <time>2015-01-18T07:10:32Z</time>
      </trkpt>
      <trkpt lat="41.642260050" lon="2.531172680">
        <ele>368.32</ele>
        <time>2015-01-18T07:10:41Z</time>
      </trkpt>
      <trkpt lat="41.642284700" lon="2.531123640">
        <ele>368.32</ele>
        <time>2015-01-18T07:10:44Z</time>
      </trkpt>
      <trkpt lat="41.642401630" lon="2.531140150">
        <ele>369.28</ele>
        <time>2015-01-18T07:10:52Z</time>
      </trkpt>
      <trkpt lat="41.642431300" lon="2.531171000">
        <ele>369.28</ele>
        <time>2015-01-18T07:10:54Z</time>
      </trkpt>
      <trkpt lat="41.642547640" lon="2.531261690">
        <ele>369.28</ele>
        <time>2015-01-18T07:11:02Z</time>
      </trkpt>
      <trkpt lat="41.642624840" lon="2.531316930">
        <ele>369.28</ele>
        <time>2015-01-18T07:11:08Z</time>
      </trkpt>
      <trkpt lat="41.642737240" lon="2.531432430">
        <ele>369.28</ele>
        <time>2015-01-18T07:11:17Z</time>
      </trkpt>
      <trkpt lat="41.642756100" lon="2.531446600">
        <ele>369.28</ele>
        <time>2015-01-18T07:11:19Z</time>
      </trkpt>
      <trkpt lat="41.642814600" lon="2.531479710">
        <ele>369.28</ele>
        <time>2015-01-18T07:11:24Z</time>
      </trkpt>
      <trkpt lat="41.642953570" lon="2.531599320">
        <ele>369.28</ele>
        <time>2015-01-18T07:11:34Z</time>
      </trkpt>
      <trkpt lat="41.643080890" lon="2.531601660">
        <ele>366.40</ele>
        <time>2015-01-18T07:11:40Z</time>
      </trkpt>
      <trkpt lat="41.643288350" lon="2.531615240">
        <ele>362.55</ele>
        <time>2015-01-18T07:11:45Z</time>
      </trkpt>
      <trkpt lat="41.643329590" lon="2.531618340">
        <ele>362.55</ele>
        <time>2015-01-18T07:11:46Z</time>
      </trkpt>
      <trkpt lat="41.643371080" lon="2.531621530">
        <ele>362.07</ele>
        <time>2015-01-18T07:11:47Z</time>
      </trkpt>
      <trkpt lat="41.643536620" lon="2.531680280">
        <ele>361.11</ele>
        <time>2015-01-18T07:11:51Z</time>
      </trkpt>
      <trkpt lat="41.643724880" lon="2.531681040">
        <ele>360.15</ele>
        <time>2015-01-18T07:11:55Z</time>
      </trkpt>
      <trkpt lat="41.643823620" lon="2.531694200">
        <ele>358.71</ele>
        <time>2015-01-18T07:11:57Z</time>
      </trkpt>
      <trkpt lat="41.643984040" lon="2.531744910">
        <ele>356.79</ele>
        <time>2015-01-18T07:12:00Z</time>
      </trkpt>
      <trkpt lat="41.644076500" lon="2.531761340">
        <ele>355.83</ele>
        <time>2015-01-18T07:12:02Z</time>
      </trkpt>
      <trkpt lat="41.644127630" lon="2.531768380">
        <ele>354.86</ele>
        <time>2015-01-18T07:12:03Z</time>
      </trkpt>
      <trkpt lat="41.644352510" lon="2.531700320">
        <ele>351.50</ele>
        <time>2015-01-18T07:12:09Z</time>
      </trkpt>
      <trkpt lat="41.644387470" lon="2.531692190">
        <ele>350.54</ele>
        <time>2015-01-18T07:12:13Z</time>
      </trkpt>
      <trkpt lat="41.644394840" lon="2.531691940">
        <ele>351.02</ele>
        <time>2015-01-18T07:12:14Z</time>
      </trkpt>
      <trkpt lat="41.644536410" lon="2.531733680">
        <ele>349.10</ele>
        <time>2015-01-18T07:12:20Z</time>
      </trkpt>
      <trkpt lat="41.644696510" lon="2.531684480">
        <ele>346.69</ele>
        <time>2015-01-18T07:12:24Z</time>
      </trkpt>
      <trkpt lat="41.644738750" lon="2.531666960">
        <ele>345.73</ele>
        <time>2015-01-18T07:12:25Z</time>
      </trkpt>
      <trkpt lat="41.644866410" lon="2.531543830">
        <ele>343.81</ele>
        <time>2015-01-18T07:12:28Z</time>
      </trkpt>
      <trkpt lat="41.645069420" lon="2.531380720">
        <ele>339.48</ele>
        <time>2015-01-18T07:12:34Z</time>
      </trkpt>
      <trkpt lat="41.645209400" lon="2.531236800">
        <ele>336.12</ele>
        <time>2015-01-18T07:12:39Z</time>
      </trkpt>
      <trkpt lat="41.645277880" lon="2.531018620">
        <ele>331.79</ele>
        <time>2015-01-18T07:12:44Z</time>
      </trkpt>
      <trkpt lat="41.645292120" lon="2.530927510">
        <ele>329.87</ele>
        <time>2015-01-18T07:12:46Z</time>
      </trkpt>
      <trkpt lat="41.645388180" lon="2.530860530">
        <ele>326.99</ele>
        <time>2015-01-18T07:12:52Z</time>
      </trkpt>
      <trkpt lat="41.645445850" lon="2.530928930">
        <ele>325.06</ele>
        <time>2015-01-18T07:12:57Z</time>
      </trkpt>
      <trkpt lat="41.645532350" lon="2.530892130">
        <ele>322.18</ele>
        <time>2015-01-18T07:13:02Z</time>
      </trkpt>
      <trkpt lat="41.645558000" lon="2.530774030">
        <ele>320.26</ele>
        <time>2015-01-18T07:13:08Z</time>
      </trkpt>
      <trkpt lat="41.645566210" lon="2.530714440">
        <ele>319.78</ele>
        <time>2015-01-18T07:13:10Z</time>
      </trkpt>
      <trkpt lat="41.645610050" lon="2.530489550">
        <ele>316.41</ele>
        <time>2015-01-18T07:13:16Z</time>
      </trkpt>
      <trkpt lat="41.645612150" lon="2.530292240">
        <ele>313.53</ele>
        <time>2015-01-18T07:13:22Z</time>
      </trkpt>
      <trkpt lat="41.645629580" lon="2.530098450">
        <ele>310.16</ele>
        <time>2015-01-18T07:13:27Z</time>
      </trkpt>
      <trkpt lat="41.645632010" lon="2.530020000">
        <ele>308.72</ele>
        <time>2015-01-18T07:13:29Z</time>
      </trkpt>
      <trkpt lat="41.645722030" lon="2.529908100">
        <ele>306.32</ele>
        <time>2015-01-18T07:13:35Z</time>
      </trkpt>
      <trkpt lat="41.645793110" lon="2.529875660">
        <ele>304.88</ele>
        <time>2015-01-18T07:13:38Z</time>
      </trkpt>
      <trkpt lat="41.645909700" lon="2.530000970">
        <ele>302.47</ele>
        <time>2015-01-18T07:13:43Z</time>
      </trkpt>
      <trkpt lat="41.645942810" lon="2.530065260">
        <ele>301.51</ele>
        <time>2015-01-18T07:13:45Z</time>
      </trkpt>
      <trkpt lat="41.645956050" lon="2.530088390">
        <ele>301.03</ele>
        <time>2015-01-18T07:13:46Z</time>
      </trkpt>
      <trkpt lat="41.645998800" lon="2.530333060">
        <ele>296.70</ele>
        <time>2015-01-18T07:13:54Z</time>
      </trkpt>
      <trkpt lat="41.646002830" lon="2.530364160">
        <ele>296.22</ele>
        <time>2015-01-18T07:13:55Z</time>
      </trkpt>
      <trkpt lat="41.646090330" lon="2.530462390">
        <ele>293.82</ele>
        <time>2015-01-18T07:13:59Z</time>
      </trkpt>
      <trkpt lat="41.646251680" lon="2.530476640">
        <ele>289.49</ele>
        <time>2015-01-18T07:14:05Z</time>
      </trkpt>
      <trkpt lat="41.646330640" lon="2.530480580">
        <ele>288.05</ele>
        <time>2015-01-18T07:14:08Z</time>
      </trkpt>
      <trkpt lat="41.646374060" lon="2.530506320">
        <ele>286.61</ele>
        <time>2015-01-18T07:14:10Z</time>
      </trkpt>
      <trkpt lat="41.646452680" lon="2.530726760">
        <ele>283.73</ele>
        <time>2015-01-18T07:14:16Z</time>
      </trkpt>
      <trkpt lat="41.646480510" lon="2.530930270">
        <ele>281.80</ele>
        <time>2015-01-18T07:14:20Z</time>
      </trkpt>
      <trkpt lat="41.646475230" lon="2.531139480">
        <ele>278.44</ele>
        <time>2015-01-18T07:14:25Z</time>
      </trkpt>
      <trkpt lat="41.646568190" lon="2.531315670">
        <ele>273.63</ele>
        <time>2015-01-18T07:14:30Z</time>
      </trkpt>
      <trkpt lat="41.646652090" lon="2.531489260">
        <ele>270.27</ele>
        <time>2015-01-18T07:14:35Z</time>
      </trkpt>
      <trkpt lat="41.646682260" lon="2.531681120">
        <ele>267.38</ele>
        <time>2015-01-18T07:14:40Z</time>
      </trkpt>
      <trkpt lat="41.646714200" lon="2.531856140">
        <ele>264.98</ele>
        <time>2015-01-18T07:14:45Z</time>
      </trkpt>
      <trkpt lat="41.646851910" lon="2.531859740">
        <ele>261.14</ele>
        <time>2015-01-18T07:14:51Z</time>
      </trkpt>
      <trkpt lat="41.646889550" lon="2.531783970">
        <ele>260.65</ele>
        <time>2015-01-18T07:14:58Z</time>
      </trkpt>
      <trkpt lat="41.646873540" lon="2.531769380">
        <ele>260.65</ele>
        <time>2015-01-18T07:15:16Z</time>
      </trkpt>
      <trkpt lat="41.646916450" lon="2.531652040">
        <ele>260.17</ele>
        <time>2015-01-18T07:15:24Z</time>
      </trkpt>
      <trkpt lat="41.646986360" lon="2.531485820">
        <ele>259.69</ele>
        <time>2015-01-18T07:15:31Z</time>
      </trkpt>
      <trkpt lat="41.647060450" lon="2.531299240">
        <ele>259.21</ele>
        <time>2015-01-18T07:15:38Z</time>
      </trkpt>
      <trkpt lat="41.647116450" lon="2.531150970">
        <ele>258.25</ele>
        <time>2015-01-18T07:15:44Z</time>
      </trkpt>
      <trkpt lat="41.647178640" lon="2.530941500">
        <ele>257.77</ele>
        <time>2015-01-18T07:15:51Z</time>
      </trkpt>
      <trkpt lat="41.647235640" lon="2.530791720">
        <ele>257.29</ele>
        <time>2015-01-18T07:15:56Z</time>
      </trkpt>
      <trkpt lat="41.647256260" lon="2.530658610">
        <ele>256.81</ele>
        <time>2015-01-18T07:16:01Z</time>
      </trkpt>
      <trkpt lat="41.647255420" lon="2.530416800">
        <ele>255.85</ele>
        <time>2015-01-18T07:16:09Z</time>
      </trkpt>
      <trkpt lat="41.647238070" lon="2.530147150">
        <ele>255.37</ele>
        <time>2015-01-18T07:16:16Z</time>
      </trkpt>
      <trkpt lat="41.647221890" lon="2.529938440">
        <ele>254.41</ele>
        <time>2015-01-18T07:16:22Z</time>
      </trkpt>
      <trkpt lat="41.647130530" lon="2.529708940">
        <ele>254.41</ele>
        <time>2015-01-18T07:16:31Z</time>
      </trkpt>
      <trkpt lat="41.647026510" lon="2.529452120">
        <ele>255.85</ele>
        <time>2015-01-18T07:16:39Z</time>
      </trkpt>
      <trkpt lat="41.646918630" lon="2.529175440">
        <ele>254.41</ele>
        <time>2015-01-18T07:16:45Z</time>
      </trkpt>
      <trkpt lat="41.646806570" lon="2.528820710">
        <ele>253.44</ele>
        <time>2015-01-18T07:16:51Z</time>
      </trkpt>
      <trkpt lat="41.646707070" lon="2.528388380">
        <ele>252.00</ele>
        <time>2015-01-18T07:16:59Z</time>
      </trkpt>
      <trkpt lat="41.646630880" lon="2.527872550">
        <ele>250.56</ele>
        <time>2015-01-18T07:17:08Z</time>
      </trkpt>
      <trkpt lat="41.646558210" lon="2.527318510">
        <ele>248.64</ele>
        <time>2015-01-18T07:17:16Z</time>
      </trkpt>
      <trkpt lat="41.646473550" lon="2.526905370">
        <ele>247.20</ele>
        <time>2015-01-18T07:17:22Z</time>
      </trkpt>
      <trkpt lat="41.646411780" lon="2.526636060">
        <ele>246.23</ele>
        <time>2015-01-18T07:17:27Z</time>
      </trkpt>
      <trkpt lat="41.646401220" lon="2.526471180">
        <ele>245.75</ele>
        <time>2015-01-18T07:17:30Z</time>
      </trkpt>
      <trkpt lat="41.646474810" lon="2.526209500">
        <ele>244.79</ele>
        <time>2015-01-18T07:17:37Z</time>
      </trkpt>
      <trkpt lat="41.646476320" lon="2.526197350">
        <ele>244.79</ele>
        <time>2015-01-18T07:17:44Z</time>
      </trkpt>
      <trkpt lat="41.646474810" lon="2.526173630">
        <ele>244.79</ele>
        <time>2015-01-18T07:17:58Z</time>
      </trkpt>
      <trkpt lat="41.646486630" lon="2.526166250">
        <ele>244.79</ele>
        <time>2015-01-18T07:18:12Z</time>
      </trkpt>
      <trkpt lat="41.646471630" lon="2.526167510">
        <ele>244.79</ele>
        <time>2015-01-18T07:18:32Z</time>
      </trkpt>
      <trkpt lat="41.646458380" lon="2.526159210">
        <ele>244.79</ele>
        <time>2015-01-18T07:18:53Z</time>
      </trkpt>
      <trkpt lat="41.646451510" lon="2.526141940">
        <ele>244.79</ele>
        <time>2015-01-18T07:19:05Z</time>
      </trkpt>
      <trkpt lat="41.646462070" lon="2.526143950">
        <ele>244.79</ele>
        <time>2015-01-18T07:19:16Z</time>
      </trkpt>
      <trkpt lat="41.646461480" lon="2.526122920">
        <ele>244.79</ele>
        <time>2015-01-18T07:19:30Z</time>
      </trkpt>
      <trkpt lat="41.646471710" lon="2.526117720">
        <ele>244.79</ele>
        <time>2015-01-18T07:19:32Z</time>
      </trkpt>
      <trkpt lat="41.646538090" lon="2.525937680">
        <ele>245.27</ele>
        <time>2015-01-18T07:19:40Z</time>
      </trkpt>
      <trkpt lat="41.646550160" lon="2.525690740">
        <ele>243.83</ele>
        <time>2015-01-18T07:19:46Z</time>
      </trkpt>
      <trkpt lat="41.646528120" lon="2.525464180">
        <ele>243.35</ele>
        <time>2015-01-18T07:19:50Z</time>
      </trkpt>
      <trkpt lat="41.646507170" lon="2.525134770">
        <ele>242.39</ele>
        <time>2015-01-18T07:19:56Z</time>
      </trkpt>
      <trkpt lat="41.646438100" lon="2.524595400">
        <ele>242.39</ele>
        <time>2015-01-18T07:20:07Z</time>
      </trkpt>
      <trkpt lat="41.646339530" lon="2.524129870">
        <ele>242.39</ele>
        <time>2015-01-18T07:20:16Z</time>
      </trkpt>
      <trkpt lat="41.646233330" lon="2.523635000">
        <ele>242.39</ele>
        <time>2015-01-18T07:20:26Z</time>
      </trkpt>
      <trkpt lat="41.646210780" lon="2.523342220">
        <ele>242.39</ele>
        <time>2015-01-18T07:20:33Z</time>
      </trkpt>
      <trkpt lat="41.646230730" lon="2.523183210">
        <ele>243.83</ele>
        <time>2015-01-18T07:20:37Z</time>
      </trkpt>
      <trkpt lat="41.646293010" lon="2.523024960">
        <ele>243.83</ele>
        <time>2015-01-18T07:20:41Z</time>
      </trkpt>
      <trkpt lat="41.646380350" lon="2.522637720">
        <ele>241.91</ele>
        <time>2015-01-18T07:20:47Z</time>
      </trkpt>
      <trkpt lat="41.646479250" lon="2.521761730">
        <ele>240.47</ele>
        <time>2015-01-18T07:20:58Z</time>
      </trkpt>
      <trkpt lat="41.646515970" lon="2.521503900">
        <ele>240.47</ele>
        <time>2015-01-18T07:21:02Z</time>
      </trkpt>
      <trkpt lat="41.646527950" lon="2.521382110">
        <ele>240.47</ele>
        <time>2015-01-18T07:21:04Z</time>
      </trkpt>
      <trkpt lat="41.646589060" lon="2.520968130">
        <ele>239.99</ele>
        <time>2015-01-18T07:21:13Z</time>
      </trkpt>
      <trkpt lat="41.646632980" lon="2.520762690">
        <ele>239.99</ele>
        <time>2015-01-18T07:21:19Z</time>
      </trkpt>
      <trkpt lat="41.646628870" lon="2.520764870">
        <ele>239.99</ele>
        <time>2015-01-18T07:21:31Z</time>
      </trkpt>
      <trkpt lat="41.646648320" lon="2.520753550">
        <ele>239.99</ele>
        <time>2015-01-18T07:21:47Z</time>
      </trkpt>
      <trkpt lat="41.646660130" lon="2.520747350">
        <ele>239.99</ele>
        <time>2015-01-18T07:22:00Z</time>
      </trkpt>
      <trkpt lat="41.646651170" lon="2.520759750">
        <ele>239.99</ele>
        <time>2015-01-18T07:22:14Z</time>
      </trkpt>
      <trkpt lat="41.646634150" lon="2.520783560">
        <ele>239.99</ele>
        <time>2015-01-18T07:22:28Z</time>
      </trkpt>
      <trkpt lat="41.646659630" lon="2.520762940">
        <ele>239.99</ele>
        <time>2015-01-18T07:22:49Z</time>
      </trkpt>
      <trkpt lat="41.646648650" lon="2.520754140">
        <ele>239.99</ele>
        <time>2015-01-18T07:23:04Z</time>
      </trkpt>
      <trkpt lat="41.646651250" lon="2.520748690">
        <ele>239.99</ele>
        <time>2015-01-18T07:23:19Z</time>
      </trkpt>
      <trkpt lat="41.646654100" lon="2.520731760">
        <ele>239.99</ele>
        <time>2015-01-18T07:23:30Z</time>
      </trkpt>
      <trkpt lat="41.646721660" lon="2.520533190">
        <ele>239.99</ele>
        <time>2015-01-18T07:23:36Z</time>
      </trkpt>
      <trkpt lat="41.646743700" lon="2.520479130">
        <ele>239.99</ele>
        <time>2015-01-18T07:23:37Z</time>
      </trkpt>
      <trkpt lat="41.646842860" lon="2.519999430">
        <ele>237.58</ele>
        <time>2015-01-18T07:23:43Z</time>
      </trkpt>
      <trkpt lat="41.646915450" lon="2.519334660">
        <ele>234.70</ele>
        <time>2015-01-18T07:23:50Z</time>
      </trkpt>
      <trkpt lat="41.646891730" lon="2.519104500">
        <ele>234.22</ele>
        <time>2015-01-18T07:23:53Z</time>
      </trkpt>
      <trkpt lat="41.646899860" lon="2.518863940">
        <ele>232.78</ele>
        <time>2015-01-18T07:23:57Z</time>
      </trkpt>
      <trkpt lat="41.646986530" lon="2.518685740">
        <ele>232.30</ele>
        <time>2015-01-18T07:24:00Z</time>
      </trkpt>
      <trkpt lat="41.647095740" lon="2.518392200">
        <ele>230.85</ele>
        <time>2015-01-18T07:24:04Z</time>
      </trkpt>
      <trkpt lat="41.647186270" lon="2.517948050">
        <ele>229.41</ele>
        <time>2015-01-18T07:24:09Z</time>
      </trkpt>
      <trkpt lat="41.647169670" lon="2.517356030">
        <ele>227.97</ele>
        <time>2015-01-18T07:24:16Z</time>
      </trkpt>
      <trkpt lat="41.647159280" lon="2.517219570">
        <ele>227.97</ele>
        <time>2015-01-18T07:24:18Z</time>
      </trkpt>
      <trkpt lat="41.647123240" lon="2.517040540">
        <ele>227.49</ele>
        <time>2015-01-18T07:24:21Z</time>
      </trkpt>
      <trkpt lat="41.647013930" lon="2.516600740">
        <ele>228.93</ele>
        <time>2015-01-18T07:24:30Z</time>
      </trkpt>
      <trkpt lat="41.646998510" lon="2.516556730">
        <ele>228.93</ele>
        <time>2015-01-18T07:24:31Z</time>
      </trkpt>
      <trkpt lat="41.646854260" lon="2.516274350">
        <ele>229.41</ele>
        <time>2015-01-18T07:24:39Z</time>
      </trkpt>
      <trkpt lat="41.646716630" lon="2.516088100">
        <ele>229.89</ele>
        <time>2015-01-18T07:24:46Z</time>
      </trkpt>
      <trkpt lat="41.646590820" lon="2.515962120">
        <ele>229.89</ele>
        <time>2015-01-18T07:24:53Z</time>
      </trkpt>
      <trkpt lat="41.646461820" lon="2.515800430">
        <ele>228.45</ele>
        <time>2015-01-18T07:25:00Z</time>
      </trkpt>
      <trkpt lat="41.646342040" lon="2.515641010">
        <ele>227.49</ele>
        <time>2015-01-18T07:25:05Z</time>
      </trkpt>
      <trkpt lat="41.646317650" lon="2.515467420">
        <ele>226.53</ele>
        <time>2015-01-18T07:25:11Z</time>
      </trkpt>
      <trkpt lat="41.646327290" lon="2.515409330">
        <ele>226.53</ele>
        <time>2015-01-18T07:25:14Z</time>
      </trkpt>
      <trkpt lat="41.646518820" lon="2.515102220">
        <ele>227.01</ele>
        <time>2015-01-18T07:25:23Z</time>
      </trkpt>
      <trkpt lat="41.646736240" lon="2.514761250">
        <ele>227.01</ele>
        <time>2015-01-18T07:25:32Z</time>
      </trkpt>
      <trkpt lat="41.646916370" lon="2.514449190">
        <ele>227.01</ele>
        <time>2015-01-18T07:25:40Z</time>
      </trkpt>
      <trkpt lat="41.646952830" lon="2.514159760">
        <ele>227.01</ele>
        <time>2015-01-18T07:25:46Z</time>
      </trkpt>
      <trkpt lat="41.646957270" lon="2.513865220">
        <ele>227.01</ele>
        <time>2015-01-18T07:25:52Z</time>
      </trkpt>
      <trkpt lat="41.646973700" lon="2.513596410">
        <ele>227.01</ele>
        <time>2015-01-18T07:25:58Z</time>
      </trkpt>
      <trkpt lat="41.646934810" lon="2.513205310">
        <ele>227.01</ele>
        <time>2015-01-18T07:26:06Z</time>
      </trkpt>
      <trkpt lat="41.646891560" lon="2.512726710">
        <ele>224.12</ele>
        <time>2015-01-18T07:26:12Z</time>
      </trkpt>
      <trkpt lat="41.646818390" lon="2.512143240">
        <ele>221.72</ele>
        <time>2015-01-18T07:26:18Z</time>
      </trkpt>
      <trkpt lat="41.646876720" lon="2.511373110">
        <ele>220.28</ele>
        <time>2015-01-18T07:26:26Z</time>
      </trkpt>
      <trkpt lat="41.646933890" lon="2.510793340">
        <ele>220.28</ele>
        <time>2015-01-18T07:26:34Z</time>
      </trkpt>
      <trkpt lat="41.646997670" lon="2.510413970">
        <ele>219.32</ele>
        <time>2015-01-18T07:26:40Z</time>
      </trkpt>
      <trkpt lat="41.647188360" lon="2.510034610">
        <ele>219.32</ele>
        <time>2015-01-18T07:26:49Z</time>
      </trkpt>
      <trkpt lat="41.647347030" lon="2.509708630">
        <ele>219.32</ele>
        <time>2015-01-18T07:26:57Z</time>
      </trkpt>
      <trkpt lat="41.647475780" lon="2.509464550">
        <ele>218.36</ele>
        <time>2015-01-18T07:27:04Z</time>
      </trkpt>
      <trkpt lat="41.647566050" lon="2.509315770">
        <ele>217.88</ele>
        <time>2015-01-18T07:27:10Z</time>
      </trkpt>
      <trkpt lat="41.647626990" lon="2.509241430">
        <ele>217.88</ele>
        <time>2015-01-18T07:27:15Z</time>
      </trkpt>
      <trkpt lat="41.647654060" lon="2.509136990">
        <ele>217.88</ele>
        <time>2015-01-18T07:27:18Z</time>
      </trkpt>
      <trkpt lat="41.647705270" lon="2.509014030">
        <ele>217.40</ele>
        <time>2015-01-18T07:27:21Z</time>
      </trkpt>
      <trkpt lat="41.647782970" lon="2.508801460">
        <ele>216.43</ele>
        <time>2015-01-18T07:27:25Z</time>
      </trkpt>
      <trkpt lat="41.647897050" lon="2.508511530">
        <ele>215.47</ele>
        <time>2015-01-18T07:27:31Z</time>
      </trkpt>
      <trkpt lat="41.648025710" lon="2.508179100">
        <ele>215.47</ele>
        <time>2015-01-18T07:27:38Z</time>
      </trkpt>
      <trkpt lat="41.648218830" lon="2.507682900">
        <ele>214.51</ele>
        <time>2015-01-18T07:27:48Z</time>
      </trkpt>
      <trkpt lat="41.648338690" lon="2.507599830">
        <ele>214.03</ele>
        <time>2015-01-18T07:27:52Z</time>
      </trkpt>
      <trkpt lat="41.648399460" lon="2.507401260">
        <ele>214.03</ele>
        <time>2015-01-18T07:27:57Z</time>
      </trkpt>
      <trkpt lat="41.648409520" lon="2.507339570">
        <ele>213.55</ele>
        <time>2015-01-18T07:27:59Z</time>
      </trkpt>
      <trkpt lat="41.648399630" lon="2.507292470">
        <ele>213.55</ele>
        <time>2015-01-18T07:28:05Z</time>
      </trkpt>
      <trkpt lat="41.648398960" lon="2.507285090">
        <ele>213.55</ele>
        <time>2015-01-18T07:28:14Z</time>
      </trkpt>
      <trkpt lat="41.648415050" lon="2.507291460">
        <ele>213.55</ele>
        <time>2015-01-18T07:28:36Z</time>
      </trkpt>
      <trkpt lat="41.648434920" lon="2.507305630">
        <ele>213.55</ele>
        <time>2015-01-18T07:28:58Z</time>
      </trkpt>
      <trkpt lat="41.648423440" lon="2.507281240">
        <ele>213.55</ele>
        <time>2015-01-18T07:29:14Z</time>
      </trkpt>
      <trkpt lat="41.648426960" lon="2.507292550">
        <ele>213.55</ele>
        <time>2015-01-18T07:29:27Z</time>
      </trkpt>
      <trkpt lat="41.648421840" lon="2.507332530">
        <ele>214.03</ele>
        <time>2015-01-18T07:29:46Z</time>
      </trkpt>
      <trkpt lat="41.648394940" lon="2.507293050">
        <ele>214.03</ele>
        <time>2015-01-18T07:30:07Z</time>
      </trkpt>
      <trkpt lat="41.648401060" lon="2.507300680">
        <ele>214.03</ele>
        <time>2015-01-18T07:30:30Z</time>
      </trkpt>
      <trkpt lat="41.648403490" lon="2.507316190">
        <ele>213.55</ele>
        <time>2015-01-18T07:30:45Z</time>
      </trkpt>
      <trkpt lat="41.648426700" lon="2.507302690">
        <ele>213.55</ele>
        <time>2015-01-18T07:30:59Z</time>
      </trkpt>
      <trkpt lat="41.648429640" lon="2.507283830">
        <ele>213.55</ele>
        <time>2015-01-18T07:31:03Z</time>
      </trkpt>
      <trkpt lat="41.648436090" lon="2.507208310">
        <ele>213.55</ele>
        <time>2015-01-18T07:31:10Z</time>
      </trkpt>
      <trkpt lat="41.648475570" lon="2.507051070">
        <ele>213.55</ele>
        <time>2015-01-18T07:31:17Z</time>
      </trkpt>
      <trkpt lat="41.648597030" lon="2.506876310">
        <ele>213.55</ele>
        <time>2015-01-18T07:31:24Z</time>
      </trkpt>
      <trkpt lat="41.648640360" lon="2.506654270">
        <ele>213.55</ele>
        <time>2015-01-18T07:31:31Z</time>
      </trkpt>
      <trkpt lat="41.648623090" lon="2.506601880">
        <ele>213.55</ele>
        <time>2015-01-18T07:31:33Z</time>
      </trkpt>
      <trkpt lat="41.648698110" lon="2.506527370">
        <ele>213.55</ele>
        <time>2015-01-18T07:31:38Z</time>
      </trkpt>
      <trkpt lat="41.648772290" lon="2.506500210">
        <ele>213.07</ele>
        <time>2015-01-18T07:31:41Z</time>
      </trkpt>
      <trkpt lat="41.648948390" lon="2.506286720">
        <ele>212.11</ele>
        <time>2015-01-18T07:31:48Z</time>
      </trkpt>
      <trkpt lat="41.649061470" lon="2.505926470">
        <ele>211.63</ele>
        <time>2015-01-18T07:31:55Z</time>
      </trkpt>
      <trkpt lat="41.649194070" lon="2.505654220">
        <ele>211.63</ele>
        <time>2015-01-18T07:32:02Z</time>
      </trkpt>
      <trkpt lat="41.649282920" lon="2.505388770">
        <ele>211.63</ele>
        <time>2015-01-18T07:32:09Z</time>
      </trkpt>
      <trkpt lat="41.649317200" lon="2.505080060">
        <ele>211.15</ele>
        <time>2015-01-18T07:32:15Z</time>
      </trkpt>
      <trkpt lat="41.649360280" lon="2.504697680">
        <ele>210.67</ele>
        <time>2015-01-18T07:32:22Z</time>
      </trkpt>
      <trkpt lat="41.649332030" lon="2.504280770">
        <ele>210.19</ele>
        <time>2015-01-18T07:32:30Z</time>
      </trkpt>
      <trkpt lat="41.649246370" lon="2.504103150">
        <ele>209.70</ele>
        <time>2015-01-18T07:32:35Z</time>
      </trkpt>
      <trkpt lat="41.649107990" lon="2.503896870">
        <ele>209.22</ele>
        <time>2015-01-18T07:32:42Z</time>
      </trkpt>
      <trkpt lat="41.648947220" lon="2.503684390">
        <ele>209.22</ele>
        <time>2015-01-18T07:32:48Z</time>
      </trkpt>
      <trkpt lat="41.648758460" lon="2.503456660">
        <ele>208.74</ele>
        <time>2015-01-18T07:32:55Z</time>
      </trkpt>
      <trkpt lat="41.648543720" lon="2.503221710">
        <ele>208.26</ele>
        <time>2015-01-18T07:33:03Z</time>
      </trkpt>
      <trkpt lat="41.648383790" lon="2.503067480">
        <ele>207.78</ele>
        <time>2015-01-18T07:33:09Z</time>
      </trkpt>
      <trkpt lat="41.648216650" lon="2.502872770">
        <ele>207.30</ele>
        <time>2015-01-18T07:33:15Z</time>
      </trkpt>
      <trkpt lat="41.648051200" lon="2.502739580">
        <ele>207.30</ele>
        <time>2015-01-18T07:33:20Z</time>
      </trkpt>
      <trkpt lat="41.647826390" lon="2.502440850">
        <ele>207.30</ele>
        <time>2015-01-18T07:33:27Z</time>
      </trkpt>
      <trkpt lat="41.647662690" lon="2.502156460">
        <ele>207.30</ele>
        <time>2015-01-18T07:33:33Z</time>
      </trkpt>
      <trkpt lat="41.647545520" lon="2.501798800">
        <ele>207.30</ele>
        <time>2015-01-18T07:33:40Z</time>
      </trkpt>
      <trkpt lat="41.647505200" lon="2.501399230">
        <ele>206.82</ele>
        <time>2015-01-18T07:33:48Z</time>
      </trkpt>
      <trkpt lat="41.647432860" lon="2.501007300">
        <ele>206.34</ele>
        <time>2015-01-18T07:33:55Z</time>
      </trkpt>
      <trkpt lat="41.647394050" lon="2.500845360">
        <ele>205.86</ele>
        <time>2015-01-18T07:33:58Z</time>
      </trkpt>
      <trkpt lat="41.647352400" lon="2.500626000">
        <ele>205.86</ele>
        <time>2015-01-18T07:34:03Z</time>
      </trkpt>
      <trkpt lat="41.647281740" lon="2.500420980">
        <ele>205.38</ele>
        <time>2015-01-18T07:34:08Z</time>
      </trkpt>
      <trkpt lat="41.647255000" lon="2.500107250">
        <ele>204.90</ele>
        <time>2015-01-18T07:34:15Z</time>
      </trkpt>
      <trkpt lat="41.647246530" lon="2.499820590">
        <ele>204.90</ele>
        <time>2015-01-18T07:34:21Z</time>
      </trkpt>
      <trkpt lat="41.647259270" lon="2.499602410">
        <ele>204.90</ele>
        <time>2015-01-18T07:34:26Z</time>
      </trkpt>
      <trkpt lat="41.647338310" lon="2.499350530">
        <ele>204.90</ele>
        <time>2015-01-18T07:34:32Z</time>
      </trkpt>
      <trkpt lat="41.647469740" lon="2.499167300">
        <ele>204.90</ele>
        <time>2015-01-18T07:34:37Z</time>
      </trkpt>
      <trkpt lat="41.647676110" lon="2.498968060">
        <ele>204.90</ele>
        <time>2015-01-18T07:34:43Z</time>
      </trkpt>
      <trkpt lat="41.647780210" lon="2.498830100">
        <ele>204.42</ele>
        <time>2015-01-18T07:34:46Z</time>
      </trkpt>
      <trkpt lat="41.647866370" lon="2.498681230">
        <ele>204.42</ele>
        <time>2015-01-18T07:34:49Z</time>
      </trkpt>
      <trkpt lat="41.648078020" lon="2.498409490">
        <ele>204.90</ele>
        <time>2015-01-18T07:34:56Z</time>
      </trkpt>
      <trkpt lat="41.648228640" lon="2.498223920">
        <ele>204.90</ele>
        <time>2015-01-18T07:35:01Z</time>
      </trkpt>
      <trkpt lat="41.648402560" lon="2.498181840">
        <ele>203.94</ele>
        <time>2015-01-18T07:35:06Z</time>
      </trkpt>
      <trkpt lat="41.648522260" lon="2.498137500">
        <ele>202.98</ele>
        <time>2015-01-18T07:35:10Z</time>
      </trkpt>
      <trkpt lat="41.648613960" lon="2.497906500">
        <ele>202.98</ele>
        <time>2015-01-18T07:35:16Z</time>
      </trkpt>
      <trkpt lat="41.648736000" lon="2.497649510">
        <ele>205.38</ele>
        <time>2015-01-18T07:35:22Z</time>
      </trkpt>
      <trkpt lat="41.648899280" lon="2.497366530">
        <ele>206.34</ele>
        <time>2015-01-18T07:35:29Z</time>
      </trkpt>
      <trkpt lat="41.649010670" lon="2.497105690">
        <ele>206.82</ele>
        <time>2015-01-18T07:35:36Z</time>
      </trkpt>
      <trkpt lat="41.649064740" lon="2.496858510">
        <ele>208.26</ele>
        <time>2015-01-18T07:35:43Z</time>
      </trkpt>
      <trkpt lat="41.649076890" lon="2.496583160">
        <ele>210.19</ele>
        <time>2015-01-18T07:35:51Z</time>
      </trkpt>
      <trkpt lat="41.649065410" lon="2.496347960">
        <ele>211.15</ele>
        <time>2015-01-18T07:35:58Z</time>
      </trkpt>
      <trkpt lat="41.649049820" lon="2.496281580">
        <ele>211.63</ele>
        <time>2015-01-18T07:36:00Z</time>
      </trkpt>
      <trkpt lat="41.649086860" lon="2.496147550">
        <ele>212.11</ele>
        <time>2015-01-18T07:36:04Z</time>
      </trkpt>
      <trkpt lat="41.649267240" lon="2.495926860">
        <ele>209.70</ele>
        <time>2015-01-18T07:36:09Z</time>
      </trkpt>
      <trkpt lat="41.649500930" lon="2.495443310">
        <ele>207.78</ele>
        <time>2015-01-18T07:36:16Z</time>
      </trkpt>
      <trkpt lat="41.649635630" lon="2.494977940">
        <ele>206.34</ele>
        <time>2015-01-18T07:36:24Z</time>
      </trkpt>
      <trkpt lat="41.649654230" lon="2.494783230">
        <ele>205.86</ele>
        <time>2015-01-18T07:36:28Z</time>
      </trkpt>
      <trkpt lat="41.649760850" lon="2.494615340">
        <ele>203.94</ele>
        <time>2015-01-18T07:36:33Z</time>
      </trkpt>
      <trkpt lat="41.649891780" lon="2.494572930">
        <ele>203.94</ele>
        <time>2015-01-18T07:36:39Z</time>
      </trkpt>
      <trkpt lat="41.650048020" lon="2.494500510">
        <ele>203.94</ele>
        <time>2015-01-18T07:36:46Z</time>
      </trkpt>
      <trkpt lat="41.650085230" lon="2.494468410">
        <ele>203.94</ele>
        <time>2015-01-18T07:36:48Z</time>
      </trkpt>
      <trkpt lat="41.650290000" lon="2.494319800">
        <ele>205.86</ele>
        <time>2015-01-18T07:36:57Z</time>
      </trkpt>
      <trkpt lat="41.650400980" lon="2.494227590">
        <ele>207.78</ele>
        <time>2015-01-18T07:37:03Z</time>
      </trkpt>
      <trkpt lat="41.650520500" lon="2.494076220">
        <ele>208.26</ele>
        <time>2015-01-18T07:37:10Z</time>
      </trkpt>
      <trkpt lat="41.650555710" lon="2.494060540">
        <ele>208.26</ele>
        <time>2015-01-18T07:37:11Z</time>
      </trkpt>
      <trkpt lat="41.650733240" lon="2.493975890">
        <ele>205.86</ele>
        <time>2015-01-18T07:37:15Z</time>
      </trkpt>
      <trkpt lat="41.650884360" lon="2.493998010">
        <ele>204.42</ele>
        <time>2015-01-18T07:37:18Z</time>
      </trkpt>
      <trkpt lat="41.650932980" lon="2.494012510">
        <ele>203.94</ele>
        <time>2015-01-18T07:37:19Z</time>
      </trkpt>
      <trkpt lat="41.651168680" lon="2.493928860">
        <ele>201.05</ele>
        <time>2015-01-18T07:37:23Z</time>
      </trkpt>
      <trkpt lat="41.651266750" lon="2.493816040">
        <ele>200.09</ele>
        <time>2015-01-18T07:37:25Z</time>
      </trkpt>
      <trkpt lat="41.651560110" lon="2.493439860">
        <ele>199.13</ele>
        <time>2015-01-18T07:37:32Z</time>
      </trkpt>
      <trkpt lat="41.651684250" lon="2.493289830">
        <ele>199.13</ele>
        <time>2015-01-18T07:37:36Z</time>
      </trkpt>
      <trkpt lat="41.651837380" lon="2.493329560">
        <ele>198.17</ele>
        <time>2015-01-18T07:37:42Z</time>
      </trkpt>
      <trkpt lat="41.652009630" lon="2.493417820">
        <ele>196.25</ele>
        <time>2015-01-18T07:37:47Z</time>
      </trkpt>
      <trkpt lat="41.652226560" lon="2.493543040">
        <ele>195.28</ele>
        <time>2015-01-18T07:37:53Z</time>
      </trkpt>
      <trkpt lat="41.652401990" lon="2.493562660">
        <ele>194.32</ele>
        <time>2015-01-18T07:37:59Z</time>
      </trkpt>
      <trkpt lat="41.652529310" lon="2.493499790">
        <ele>194.32</ele>
        <time>2015-01-18T07:38:05Z</time>
      </trkpt>
      <trkpt lat="41.652788650" lon="2.493334000">
        <ele>194.32</ele>
        <time>2015-01-18T07:38:13Z</time>
      </trkpt>
      <trkpt lat="41.652917060" lon="2.493265270">
        <ele>194.32</ele>
        <time>2015-01-18T07:38:18Z</time>
      </trkpt>
      <trkpt lat="41.653101380" lon="2.493187320">
        <ele>195.28</ele>
        <time>2015-01-18T07:38:24Z</time>
      </trkpt>
      <trkpt lat="41.653212270" lon="2.493120760">
        <ele>194.32</ele>
        <time>2015-01-18T07:38:27Z</time>
      </trkpt>
      <trkpt lat="41.653477640" lon="2.493020350">
        <ele>194.32</ele>
        <time>2015-01-18T07:38:35Z</time>
      </trkpt>
      <trkpt lat="41.653737310" lon="2.492954380">
        <ele>193.84</ele>
        <time>2015-01-18T07:38:42Z</time>
      </trkpt>
      <trkpt lat="41.653949290" lon="2.492907950">
        <ele>193.84</ele>
        <time>2015-01-18T07:38:48Z</time>
      </trkpt>
      <trkpt lat="41.654208040" lon="2.492901410">
        <ele>193.84</ele>
        <time>2015-01-18T07:38:55Z</time>
      </trkpt>
      <trkpt lat="41.654482130" lon="2.492933510">
        <ele>192.88</ele>
        <time>2015-01-18T07:39:02Z</time>
      </trkpt>
      <trkpt lat="41.654686390" lon="2.492990260">
        <ele>192.88</ele>
        <time>2015-01-18T07:39:08Z</time>
      </trkpt>
      <trkpt lat="41.654934920" lon="2.492938880">
        <ele>191.92</ele>
        <time>2015-01-18T07:39:14Z</time>
      </trkpt>
      <trkpt lat="41.655016720" lon="2.492952870">
        <ele>192.40</ele>
        <time>2015-01-18T07:39:16Z</time>
      </trkpt>
      <trkpt lat="41.655262480" lon="2.493082120">
        <ele>192.40</ele>
        <time>2015-01-18T07:39:23Z</time>
      </trkpt>
      <trkpt lat="41.655438080" lon="2.493237780">
        <ele>192.40</ele>
        <time>2015-01-18T07:39:29Z</time>
      </trkpt>
      <trkpt lat="41.655717120" lon="2.493281450">
        <ele>192.40</ele>
        <time>2015-01-18T07:39:37Z</time>
      </trkpt>
      <trkpt lat="41.655961280" lon="2.493329560">
        <ele>190.00</ele>
        <time>2015-01-18T07:39:44Z</time>
      </trkpt>
      <trkpt lat="41.656207540" lon="2.493379090">
        <ele>190.00</ele>
        <time>2015-01-18T07:39:52Z</time>
      </trkpt>
      <trkpt lat="41.656414740" lon="2.493422600">
        <ele>190.00</ele>
        <time>2015-01-18T07:39:59Z</time>
      </trkpt>
      <trkpt lat="41.656510300" lon="2.493442380">
        <ele>190.00</ele>
        <time>2015-01-18T07:40:02Z</time>
      </trkpt>
      <trkpt lat="41.656615490" lon="2.493310280">
        <ele>190.00</ele>
        <time>2015-01-18T07:40:07Z</time>
      </trkpt>
      <trkpt lat="41.656745830" lon="2.492923200">
        <ele>189.52</ele>
        <time>2015-01-18T07:40:16Z</time>
      </trkpt>
      <trkpt lat="41.656915640" lon="2.492481140">
        <ele>189.52</ele>
        <time>2015-01-18T07:40:26Z</time>
      </trkpt>
      <trkpt lat="41.657038520" lon="2.492019130">
        <ele>189.04</ele>
        <time>2015-01-18T07:40:35Z</time>
      </trkpt>
      <trkpt lat="41.657065010" lon="2.491899690">
        <ele>188.56</ele>
        <time>2015-01-18T07:40:37Z</time>
      </trkpt>
      <trkpt lat="41.657076580" lon="2.491595430">
        <ele>188.08</ele>
        <time>2015-01-18T07:40:42Z</time>
      </trkpt>
      <trkpt lat="41.657029550" lon="2.491092680">
        <ele>187.59</ele>
        <time>2015-01-18T07:40:51Z</time>
      </trkpt>
      <trkpt lat="41.656995610" lon="2.490789920">
        <ele>187.11</ele>
        <time>2015-01-18T07:40:56Z</time>
      </trkpt>
      <trkpt lat="41.656958480" lon="2.490439900">
        <ele>187.11</ele>
        <time>2015-01-18T07:41:02Z</time>
      </trkpt>
      <trkpt lat="41.656849260" lon="2.490129100">
        <ele>186.63</ele>
        <time>2015-01-18T07:41:08Z</time>
      </trkpt>
      <trkpt lat="41.656639040" lon="2.489705810">
        <ele>186.15</ele>
        <time>2015-01-18T07:41:18Z</time>
      </trkpt>
      <trkpt lat="41.656574330" lon="2.489617210">
        <ele>187.59</ele>
        <time>2015-01-18T07:41:22Z</time>
      </trkpt>
      <trkpt lat="41.656517760" lon="2.489495340">
        <ele>188.56</ele>
        <time>2015-01-18T07:41:26Z</time>
      </trkpt>
      <trkpt lat="41.656512480" lon="2.489360390">
        <ele>188.56</ele>
        <time>2015-01-18T07:41:30Z</time>
      </trkpt>
      <trkpt lat="41.656561840" lon="2.489182110">
        <ele>188.56</ele>
        <time>2015-01-18T07:41:35Z</time>
      </trkpt>
      <trkpt lat="41.656570980" lon="2.488987650">
        <ele>187.11</ele>
        <time>2015-01-18T07:41:38Z</time>
      </trkpt>
      <trkpt lat="41.656569720" lon="2.488933750">
        <ele>187.11</ele>
        <time>2015-01-18T07:41:39Z</time>
      </trkpt>
      <trkpt lat="41.656576260" lon="2.488487160">
        <ele>185.67</ele>
        <time>2015-01-18T07:41:45Z</time>
      </trkpt>
      <trkpt lat="41.656476520" lon="2.488040070">
        <ele>184.71</ele>
        <time>2015-01-18T07:41:52Z</time>
      </trkpt>
      <trkpt lat="41.656312820" lon="2.487718710">
        <ele>184.23</ele>
        <time>2015-01-18T07:41:59Z</time>
      </trkpt>
      <trkpt lat="41.656191870" lon="2.487466160">
        <ele>185.19</ele>
        <time>2015-01-18T07:42:06Z</time>
      </trkpt>
      <trkpt lat="41.656073770" lon="2.487176990">
        <ele>185.67</ele>
        <time>2015-01-18T07:42:13Z</time>
      </trkpt>
      <trkpt lat="41.655977370" lon="2.486919660">
        <ele>185.67</ele>
        <time>2015-01-18T07:42:19Z</time>
      </trkpt>
      <trkpt lat="41.655911740" lon="2.486646670">
        <ele>186.15</ele>
        <time>2015-01-18T07:42:25Z</time>
      </trkpt>
      <trkpt lat="41.655906130" lon="2.486316000">
        <ele>186.15</ele>
        <time>2015-01-18T07:42:31Z</time>
      </trkpt>
      <trkpt lat="41.655896740" lon="2.486071580">
        <ele>183.27</ele>
        <time>2015-01-18T07:42:34Z</time>
      </trkpt>
      <trkpt lat="41.655879470" lon="2.485916100">
        <ele>183.27</ele>
        <time>2015-01-18T07:42:36Z</time>
      </trkpt>
      <trkpt lat="41.655821390" lon="2.485454510">
        <ele>182.79</ele>
        <time>2015-01-18T07:42:43Z</time>
      </trkpt>
      <trkpt lat="41.655805550" lon="2.485321740">
        <ele>182.79</ele>
        <time>2015-01-18T07:42:45Z</time>
      </trkpt>
      <trkpt lat="41.655821140" lon="2.484938940">
        <ele>182.31</ele>
        <time>2015-01-18T07:42:52Z</time>
      </trkpt>
      <trkpt lat="41.655841340" lon="2.484825780">
        <ele>182.31</ele>
        <time>2015-01-18T07:42:54Z</time>
      </trkpt>
      <trkpt lat="41.655841000" lon="2.484446080">
        <ele>181.83</ele>
        <time>2015-01-18T07:43:01Z</time>
      </trkpt>
      <trkpt lat="41.655841670" lon="2.484314990">
        <ele>181.83</ele>
        <time>2015-01-18T07:43:04Z</time>
      </trkpt>
      <trkpt lat="41.655895480" lon="2.483838560">
        <ele>182.79</ele>
        <time>2015-01-18T07:43:12Z</time>
      </trkpt>
      <trkpt lat="41.655944100" lon="2.483542760">
        <ele>182.79</ele>
        <time>2015-01-18T07:43:17Z</time>
      </trkpt>
      <trkpt lat="41.656033110" lon="2.483152080">
        <ele>182.79</ele>
        <time>2015-01-18T07:43:24Z</time>
      </trkpt>
      <trkpt lat="41.656053150" lon="2.483117210">
        <ele>182.79</ele>
        <time>2015-01-18T07:43:25Z</time>
      </trkpt>
      <trkpt lat="41.656201930" lon="2.483020570">
        <ele>186.15</ele>
        <time>2015-01-18T07:43:32Z</time>
      </trkpt>
      <trkpt lat="41.656322710" lon="2.483036920">
        <ele>187.11</ele>
        <time>2015-01-18T07:43:37Z</time>
      </trkpt>
      <trkpt lat="41.656510720" lon="2.482928120">
        <ele>185.19</ele>
        <time>2015-01-18T07:43:41Z</time>
      </trkpt>
      <trkpt lat="41.656642390" lon="2.482843460">
        <ele>184.71</ele>
        <time>2015-01-18T07:43:44Z</time>
      </trkpt>
      <trkpt lat="41.656939450" lon="2.482796350">
        <ele>180.87</ele>
        <time>2015-01-18T07:43:50Z</time>
      </trkpt>
      <trkpt lat="41.657039030" lon="2.482745560">
        <ele>179.90</ele>
        <time>2015-01-18T07:43:52Z</time>
      </trkpt>
      <trkpt lat="41.657222760" lon="2.482557470">
        <ele>179.42</ele>
        <time>2015-01-18T07:43:57Z</time>
      </trkpt>
      <trkpt lat="41.657254020" lon="2.482533750">
        <ele>179.42</ele>
        <time>2015-01-18T07:43:58Z</time>
      </trkpt>
      <trkpt lat="41.657390480" lon="2.482455460">
        <ele>178.94</ele>
        <time>2015-01-18T07:44:02Z</time>
      </trkpt>
      <trkpt lat="41.657679740" lon="2.482410370">
        <ele>177.02</ele>
        <time>2015-01-18T07:44:10Z</time>
      </trkpt>
      <trkpt lat="41.657862300" lon="2.482403330">
        <ele>177.02</ele>
        <time>2015-01-18T07:44:16Z</time>
      </trkpt>
      <trkpt lat="41.657946450" lon="2.482377340">
        <ele>176.06</ele>
        <time>2015-01-18T07:44:18Z</time>
      </trkpt>
      <trkpt lat="41.658129510" lon="2.482326380">
        <ele>175.58</ele>
        <time>2015-01-18T07:44:22Z</time>
      </trkpt>
      <trkpt lat="41.658440230" lon="2.482188000">
        <ele>175.10</ele>
        <time>2015-01-18T07:44:30Z</time>
      </trkpt>
      <trkpt lat="41.658712980" lon="2.482071490">
        <ele>175.10</ele>
        <time>2015-01-18T07:44:37Z</time>
      </trkpt>
      <trkpt lat="41.658938780" lon="2.481988760">
        <ele>174.62</ele>
        <time>2015-01-18T07:44:43Z</time>
      </trkpt>
      <trkpt lat="41.658975500" lon="2.481992870">
        <ele>174.62</ele>
        <time>2015-01-18T07:44:44Z</time>
      </trkpt>
      <trkpt lat="41.659186130" lon="2.482107450">
        <ele>174.14</ele>
        <time>2015-01-18T07:44:50Z</time>
      </trkpt>
      <trkpt lat="41.659393250" lon="2.482117590">
        <ele>174.14</ele>
        <time>2015-01-18T07:44:55Z</time>
      </trkpt>
      <trkpt lat="41.659680580" lon="2.482187660">
        <ele>173.17</ele>
        <time>2015-01-18T07:45:02Z</time>
      </trkpt>
      <trkpt lat="41.659959780" lon="2.482198390">
        <ele>173.17</ele>
        <time>2015-01-18T07:45:09Z</time>
      </trkpt>
      <trkpt lat="41.660189950" lon="2.482160340">
        <ele>172.21</ele>
        <time>2015-01-18T07:45:15Z</time>
      </trkpt>
      <trkpt lat="41.660416100" lon="2.482150860">
        <ele>172.69</ele>
        <time>2015-01-18T07:45:21Z</time>
      </trkpt>
      <trkpt lat="41.660740730" lon="2.482213480">
        <ele>172.21</ele>
        <time>2015-01-18T07:45:29Z</time>
      </trkpt>
      <trkpt lat="41.660931500" lon="2.482162930">
        <ele>172.21</ele>
        <time>2015-01-18T07:45:34Z</time>
      </trkpt>
      <trkpt lat="41.661023200" lon="2.482136280">
        <ele>173.66</ele>
        <time>2015-01-18T07:45:37Z</time>
      </trkpt>
      <trkpt lat="41.661232910" lon="2.482047260">
        <ele>176.06</ele>
        <time>2015-01-18T07:45:44Z</time>
      </trkpt>
      <trkpt lat="41.661401050" lon="2.481916840">
        <ele>177.50</ele>
        <time>2015-01-18T07:45:51Z</time>
      </trkpt>
      <trkpt lat="41.661472130" lon="2.481782900">
        <ele>177.98</ele>
        <time>2015-01-18T07:45:56Z</time>
      </trkpt>
      <trkpt lat="41.661560730" lon="2.481513840">
        <ele>179.42</ele>
        <time>2015-01-18T07:46:05Z</time>
      </trkpt>
      <trkpt lat="41.661711520" lon="2.481314770">
        <ele>179.42</ele>
        <time>2015-01-18T07:46:12Z</time>
      </trkpt>
      <trkpt lat="41.661767680" lon="2.481241260">
        <ele>177.98</ele>
        <time>2015-01-18T07:46:15Z</time>
      </trkpt>
      <trkpt lat="41.661882680" lon="2.481079740">
        <ele>177.02</ele>
        <time>2015-01-18T07:46:21Z</time>
      </trkpt>
      <trkpt lat="41.661906230" lon="2.481055350">
        <ele>176.06</ele>
        <time>2015-01-18T07:46:22Z</time>
      </trkpt>
      <trkpt lat="41.661930120" lon="2.480854600">
        <ele>176.06</ele>
        <time>2015-01-18T07:46:27Z</time>
      </trkpt>
      <trkpt lat="41.661893150" lon="2.480788130">
        <ele>176.06</ele>
        <time>2015-01-18T07:46:30Z</time>
      </trkpt>
      <trkpt lat="41.661863310" lon="2.480700040">
        <ele>177.50</ele>
        <time>2015-01-18T07:46:34Z</time>
      </trkpt>
      <trkpt lat="41.661868600" lon="2.480673390">
        <ele>177.50</ele>
        <time>2015-01-18T07:46:35Z</time>
      </trkpt>
      <trkpt lat="41.661901280" lon="2.480515390">
        <ele>177.50</ele>
        <time>2015-01-18T07:46:40Z</time>
      </trkpt>
      <trkpt lat="41.661992400" lon="2.480467280">
        <ele>176.06</ele>
        <time>2015-01-18T07:46:45Z</time>
      </trkpt>
      <trkpt lat="41.662160960" lon="2.480562490">
        <ele>173.66</ele>
        <time>2015-01-18T07:46:52Z</time>
      </trkpt>
      <trkpt lat="41.662251400" lon="2.480665840">
        <ele>171.25</ele>
        <time>2015-01-18T07:46:56Z</time>
      </trkpt>
      <trkpt lat="41.662375280" lon="2.480749410">
        <ele>170.29</ele>
        <time>2015-01-18T07:46:59Z</time>
      </trkpt>
      <trkpt lat="41.662653560" lon="2.480842370">
        <ele>169.33</ele>
        <time>2015-01-18T07:47:06Z</time>
      </trkpt>
      <trkpt lat="41.662823630" lon="2.480921830">
        <ele>168.37</ele>
        <time>2015-01-18T07:47:12Z</time>
      </trkpt>
      <trkpt lat="41.662876440" lon="2.480926600">
        <ele>168.37</ele>
        <time>2015-01-18T07:47:14Z</time>
      </trkpt>
      <trkpt lat="41.662988920" lon="2.480761730">
        <ele>168.37</ele>
        <time>2015-01-18T07:47:22Z</time>
      </trkpt>
      <trkpt lat="41.663136360" lon="2.480514880">
        <ele>168.85</ele>
        <time>2015-01-18T07:47:30Z</time>
      </trkpt>
      <trkpt lat="41.663245660" lon="2.480313970">
        <ele>168.37</ele>
        <time>2015-01-18T07:47:37Z</time>
      </trkpt>
      <trkpt lat="41.663289910" lon="2.480160920">
        <ele>167.89</ele>
        <time>2015-01-18T07:47:44Z</time>
      </trkpt>
      <trkpt lat="41.663376500" lon="2.480015990">
        <ele>167.41</ele>
        <time>2015-01-18T07:47:49Z</time>
      </trkpt>
      <trkpt lat="41.663455790" lon="2.479793290">
        <ele>167.41</ele>
        <time>2015-01-18T07:47:56Z</time>
      </trkpt>
      <trkpt lat="41.663478590" lon="2.479558590">
        <ele>167.41</ele>
        <time>2015-01-18T07:48:02Z</time>
      </trkpt>
      <trkpt lat="41.663475410" lon="2.479508300">
        <ele>166.93</ele>
        <time>2015-01-18T07:48:03Z</time>
      </trkpt>
      <trkpt lat="41.663503650" lon="2.479212250">
        <ele>166.45</ele>
        <time>2015-01-18T07:48:10Z</time>
      </trkpt>
      <trkpt lat="41.663536260" lon="2.478951910">
        <ele>166.45</ele>
        <time>2015-01-18T07:48:16Z</time>
      </trkpt>
      <trkpt lat="41.663650920" lon="2.478670950">
        <ele>166.45</ele>
        <time>2015-01-18T07:48:23Z</time>
      </trkpt>
      <trkpt lat="41.663763580" lon="2.478540690">
        <ele>165.96</ele>
        <time>2015-01-18T07:48:28Z</time>
      </trkpt>
      <trkpt lat="41.663926100" lon="2.478535000">
        <ele>165.96</ele>
        <time>2015-01-18T07:48:33Z</time>
      </trkpt>
      <trkpt lat="41.664163900" lon="2.478488060">
        <ele>165.96</ele>
        <time>2015-01-18T07:48:40Z</time>
      </trkpt>
      <trkpt lat="41.664386850" lon="2.478436510">
        <ele>167.89</ele>
        <time>2015-01-18T07:48:48Z</time>
      </trkpt>
      <trkpt lat="41.664599750" lon="2.478410780">
        <ele>168.37</ele>
        <time>2015-01-18T07:48:55Z</time>
      </trkpt>
      <trkpt lat="41.664823470" lon="2.478468190">
        <ele>169.33</ele>
        <time>2015-01-18T07:49:03Z</time>
      </trkpt>
      <trkpt lat="41.664967720" lon="2.478554860">
        <ele>170.77</ele>
        <time>2015-01-18T07:49:10Z</time>
      </trkpt>
      <trkpt lat="41.665045670" lon="2.478633310">
        <ele>171.73</ele>
        <time>2015-01-18T07:49:16Z</time>
      </trkpt>
      <trkpt lat="41.665138790" lon="2.478754770">
        <ele>172.21</ele>
        <time>2015-01-18T07:49:23Z</time>
      </trkpt>
      <trkpt lat="41.665233180" lon="2.478975800">
        <ele>171.25</ele>
        <time>2015-01-18T07:49:29Z</time>
      </trkpt>
      <trkpt lat="41.665327890" lon="2.479332450">
        <ele>170.77</ele>
        <time>2015-01-18T07:49:37Z</time>
      </trkpt>
      <trkpt lat="41.665392260" lon="2.479631850">
        <ele>169.33</ele>
        <time>2015-01-18T07:49:43Z</time>
      </trkpt>
      <trkpt lat="41.665396120" lon="2.479887830">
        <ele>166.93</ele>
        <time>2015-01-18T07:49:47Z</time>
      </trkpt>
      <trkpt lat="41.665342390" lon="2.480185810">
        <ele>165.00</ele>
        <time>2015-01-18T07:49:51Z</time>
      </trkpt>
      <trkpt lat="41.665323450" lon="2.480276590">
        <ele>164.04</ele>
        <time>2015-01-18T07:49:52Z</time>
      </trkpt>
      <trkpt lat="41.665326210" lon="2.480767260">
        <ele>163.08</ele>
        <time>2015-01-18T07:49:58Z</time>
      </trkpt>
      <trkpt lat="41.665284560" lon="2.481327010">
        <ele>162.12</ele>
        <time>2015-01-18T07:50:06Z</time>
      </trkpt>
      <trkpt lat="41.665279950" lon="2.481389540">
        <ele>162.12</ele>
        <time>2015-01-18T07:50:07Z</time>
      </trkpt>
      <trkpt lat="41.665296790" lon="2.481743340">
        <ele>161.64</ele>
        <time>2015-01-18T07:50:13Z</time>
      </trkpt>
      <trkpt lat="41.665345830" lon="2.482020940">
        <ele>160.20</ele>
        <time>2015-01-18T07:50:18Z</time>
      </trkpt>
      <trkpt lat="41.665425200" lon="2.482049440">
        <ele>160.20</ele>
        <time>2015-01-18T07:50:21Z</time>
      </trkpt>
      <trkpt lat="41.665560820" lon="2.482073750">
        <ele>159.72</ele>
        <time>2015-01-18T07:50:25Z</time>
      </trkpt>
      <trkpt lat="41.665687980" lon="2.481983060">
        <ele>159.24</ele>
        <time>2015-01-18T07:50:29Z</time>
      </trkpt>
      <trkpt lat="41.665914370" lon="2.481781810">
        <ele>158.75</ele>
        <time>2015-01-18T07:50:36Z</time>
      </trkpt>
      <trkpt lat="41.666082760" lon="2.481608220">
        <ele>158.75</ele>
        <time>2015-01-18T07:50:42Z</time>
      </trkpt>
      <trkpt lat="41.666289550" lon="2.481485590">
        <ele>158.75</ele>
        <time>2015-01-18T07:50:47Z</time>
      </trkpt>
      <trkpt lat="41.666499510" lon="2.481403280">
        <ele>157.79</ele>
        <time>2015-01-18T07:50:51Z</time>
      </trkpt>
      <trkpt lat="41.666647710" lon="2.481326090">
        <ele>157.79</ele>
        <time>2015-01-18T07:50:54Z</time>
      </trkpt>
      <trkpt lat="41.666977110" lon="2.481191470">
        <ele>157.31</ele>
        <time>2015-01-18T07:51:01Z</time>
      </trkpt>
      <trkpt lat="41.667213990" lon="2.481089300">
        <ele>156.83</ele>
        <time>2015-01-18T07:51:06Z</time>
      </trkpt>
      <trkpt lat="41.667394200" lon="2.481019060">
        <ele>156.35</ele>
        <time>2015-01-18T07:51:10Z</time>
      </trkpt>
      <trkpt lat="41.667539540" lon="2.481032050">
        <ele>155.87</ele>
        <time>2015-01-18T07:51:13Z</time>
      </trkpt>
      <trkpt lat="41.667818660" lon="2.480977980">
        <ele>155.39</ele>
        <time>2015-01-18T07:51:18Z</time>
      </trkpt>
      <trkpt lat="41.667963240" lon="2.480927610">
        <ele>155.39</ele>
        <time>2015-01-18T07:51:21Z</time>
      </trkpt>
      <trkpt lat="41.668183020" lon="2.480904140">
        <ele>154.91</ele>
        <time>2015-01-18T07:51:26Z</time>
      </trkpt>
      <trkpt lat="41.668224760" lon="2.480884530">
        <ele>154.91</ele>
        <time>2015-01-18T07:51:27Z</time>
      </trkpt>
      <trkpt lat="41.668486860" lon="2.480732310">
        <ele>154.43</ele>
        <time>2015-01-18T07:51:33Z</time>
      </trkpt>
      <trkpt lat="41.668627180" lon="2.480527960">
        <ele>154.91</ele>
        <time>2015-01-18T07:51:38Z</time>
      </trkpt>
      <trkpt lat="41.668648380" lon="2.480430060">
        <ele>155.87</ele>
        <time>2015-01-18T07:51:40Z</time>
      </trkpt>
      <trkpt lat="41.668761960" lon="2.480238780">
        <ele>158.27</ele>
        <time>2015-01-18T07:51:46Z</time>
      </trkpt>
      <trkpt lat="41.668885090" lon="2.480140800">
        <ele>159.24</ele>
        <time>2015-01-18T07:51:51Z</time>
      </trkpt>
      <trkpt lat="41.669078620" lon="2.480078440">
        <ele>159.72</ele>
        <time>2015-01-18T07:51:58Z</time>
      </trkpt>
      <trkpt lat="41.669149700" lon="2.480038710">
        <ele>159.24</ele>
        <time>2015-01-18T07:52:04Z</time>
      </trkpt>
      <trkpt lat="41.669130420" lon="2.480016410">
        <ele>159.24</ele>
        <time>2015-01-18T07:52:16Z</time>
      </trkpt>
      <trkpt lat="41.669132440" lon="2.480015160">
        <ele>159.24</ele>
        <time>2015-01-18T07:52:27Z</time>
      </trkpt>
      <trkpt lat="41.669128330" lon="2.479885990">
        <ele>159.72</ele>
        <time>2015-01-18T07:52:34Z</time>
      </trkpt>
      <trkpt lat="41.669069660" lon="2.479707870">
        <ele>159.72</ele>
        <time>2015-01-18T07:52:41Z</time>
      </trkpt>
      <trkpt lat="41.669071080" lon="2.479530260">
        <ele>160.20</ele>
        <time>2015-01-18T07:52:47Z</time>
      </trkpt>
      <trkpt lat="41.669076450" lon="2.479302690">
        <ele>160.68</ele>
        <time>2015-01-18T07:52:54Z</time>
      </trkpt>
      <trkpt lat="41.669072090" lon="2.479271260">
        <ele>160.68</ele>
        <time>2015-01-18T07:52:55Z</time>
      </trkpt>
      <trkpt lat="41.669019030" lon="2.479023580">
        <ele>160.68</ele>
        <time>2015-01-18T07:53:03Z</time>
      </trkpt>
      <trkpt lat="41.668950550" lon="2.478811680">
        <ele>161.16</ele>
        <time>2015-01-18T07:53:11Z</time>
      </trkpt>
      <trkpt lat="41.668871340" lon="2.478522760">
        <ele>162.12</ele>
        <time>2015-01-18T07:53:21Z</time>
      </trkpt>
      <trkpt lat="41.668844940" lon="2.478354530">
        <ele>162.60</ele>
        <time>2015-01-18T07:53:27Z</time>
      </trkpt>
      <trkpt lat="41.668736220" lon="2.478071560">
        <ele>163.56</ele>
        <time>2015-01-18T07:53:37Z</time>
      </trkpt>
      <trkpt lat="41.668589120" lon="2.478005590">
        <ele>163.56</ele>
        <time>2015-01-18T07:53:43Z</time>
      </trkpt>
      <trkpt lat="41.668441100" lon="2.477908950">
        <ele>163.56</ele>
        <time>2015-01-18T07:53:49Z</time>
      </trkpt>
      <trkpt lat="41.668331040" lon="2.477722870">
        <ele>163.56</ele>
        <time>2015-01-18T07:53:56Z</time>
      </trkpt>
      <trkpt lat="41.668243450" lon="2.477428080">
        <ele>163.56</ele>
        <time>2015-01-18T07:54:04Z</time>
      </trkpt>
      <trkpt lat="41.668132060" lon="2.477142260">
        <ele>163.56</ele>
        <time>2015-01-18T07:54:12Z</time>
      </trkpt>
      <trkpt lat="41.668045720" lon="2.476899430">
        <ele>163.56</ele>
        <time>2015-01-18T07:54:19Z</time>
      </trkpt>
      <trkpt lat="41.667950920" lon="2.476643030">
        <ele>164.52</ele>
        <time>2015-01-18T07:54:27Z</time>
      </trkpt>
      <trkpt lat="41.667832570" lon="2.476483520">
        <ele>165.96</ele>
        <time>2015-01-18T07:54:34Z</time>
      </trkpt>
      <trkpt lat="41.667738270" lon="2.476347570">
        <ele>166.45</ele>
        <time>2015-01-18T07:54:40Z</time>
      </trkpt>
      <trkpt lat="41.667663760" lon="2.476125530">
        <ele>166.45</ele>
        <time>2015-01-18T07:54:47Z</time>
      </trkpt>
      <trkpt lat="41.667568880" lon="2.475848850">
        <ele>166.45</ele>
        <time>2015-01-18T07:54:55Z</time>
      </trkpt>
      <trkpt lat="41.667543400" lon="2.475512310">
        <ele>166.45</ele>
        <time>2015-01-18T07:55:03Z</time>
      </trkpt>
      <trkpt lat="41.667506260" lon="2.475261690">
        <ele>166.45</ele>
        <time>2015-01-18T07:55:10Z</time>
      </trkpt>
      <trkpt lat="41.667362180" lon="2.475087520">
        <ele>166.93</ele>
        <time>2015-01-18T07:55:18Z</time>
      </trkpt>
      <trkpt lat="41.667209380" lon="2.474836650">
        <ele>167.41</ele>
        <time>2015-01-18T07:55:27Z</time>
      </trkpt>
      <trkpt lat="41.667026820" lon="2.474540770">
        <ele>167.41</ele>
        <time>2015-01-18T07:55:36Z</time>
      </trkpt>
      <trkpt lat="41.666923050" lon="2.474417720">
        <ele>167.41</ele>
        <time>2015-01-18T07:55:41Z</time>
      </trkpt>
      <trkpt lat="41.666780390" lon="2.474397100">
        <ele>167.41</ele>
        <time>2015-01-18T07:55:47Z</time>
      </trkpt>
      <trkpt lat="41.666628090" lon="2.474472790">
        <ele>169.33</ele>
        <time>2015-01-18T07:55:54Z</time>
      </trkpt>
      <trkpt lat="41.666467830" lon="2.474511010">
        <ele>170.29</ele>
        <time>2015-01-18T07:56:01Z</time>
      </trkpt>
      <trkpt lat="41.666213270" lon="2.474516290">
        <ele>171.73</ele>
        <time>2015-01-18T07:56:11Z</time>
      </trkpt>
      <trkpt lat="41.665987970" lon="2.474474300">
        <ele>172.21</ele>
        <time>2015-01-18T07:56:20Z</time>
      </trkpt>
      <trkpt lat="41.665737260" lon="2.474423090">
        <ele>172.21</ele>
        <time>2015-01-18T07:56:28Z</time>
      </trkpt>
      <trkpt lat="41.665602310" lon="2.474416040">
        <ele>170.77</ele>
        <time>2015-01-18T07:56:32Z</time>
      </trkpt>
      <trkpt lat="41.665600220" lon="2.474302130">
        <ele>169.33</ele>
        <time>2015-01-18T07:56:37Z</time>
      </trkpt>
      <trkpt lat="41.665677420" lon="2.474278750">
        <ele>168.85</ele>
        <time>2015-01-18T07:56:40Z</time>
      </trkpt>
      <trkpt lat="41.665802470" lon="2.474080100">
        <ele>168.37</ele>
        <time>2015-01-18T07:56:47Z</time>
      </trkpt>
      <trkpt lat="41.665859810" lon="2.473883460">
        <ele>168.37</ele>
        <time>2015-01-18T07:56:53Z</time>
      </trkpt>
      <trkpt lat="41.665868020" lon="2.473822350">
        <ele>169.81</ele>
        <time>2015-01-18T07:56:55Z</time>
      </trkpt>
      <trkpt lat="41.665882350" lon="2.473569140">
        <ele>172.21</ele>
        <time>2015-01-18T07:57:04Z</time>
      </trkpt>
      <trkpt lat="41.665935660" lon="2.473297140">
        <ele>174.14</ele>
        <time>2015-01-18T07:57:14Z</time>
      </trkpt>
      <trkpt lat="41.666033060" lon="2.473152050">
        <ele>175.58</ele>
        <time>2015-01-18T07:57:21Z</time>
      </trkpt>
      <trkpt lat="41.666099190" lon="2.473087430">
        <ele>177.02</ele>
        <time>2015-01-18T07:57:25Z</time>
      </trkpt>
      <trkpt lat="41.666231460" lon="2.473089940">
        <ele>177.50</ele>
        <time>2015-01-18T07:57:32Z</time>
      </trkpt>
      <trkpt lat="41.666358860" lon="2.473139730">
        <ele>178.94</ele>
        <time>2015-01-18T07:57:39Z</time>
      </trkpt>
      <trkpt lat="41.666578220" lon="2.473193290">
        <ele>180.87</ele>
        <time>2015-01-18T07:57:50Z</time>
      </trkpt>
      <trkpt lat="41.666699760" lon="2.473233440">
        <ele>181.83</ele>
        <time>2015-01-18T07:57:57Z</time>
      </trkpt>
      <trkpt lat="41.666826570" lon="2.473347690">
        <ele>182.79</ele>
        <time>2015-01-18T07:58:05Z</time>
      </trkpt>
      <trkpt lat="41.666904280" lon="2.473450280">
        <ele>183.27</ele>
        <time>2015-01-18T07:58:10Z</time>
      </trkpt>
      <trkpt lat="41.667019270" lon="2.473539300">
        <ele>183.75</ele>
        <time>2015-01-18T07:58:15Z</time>
      </trkpt>
      <trkpt lat="41.667170820" lon="2.473664860">
        <ele>183.75</ele>
        <time>2015-01-18T07:58:22Z</time>
      </trkpt>
      <trkpt lat="41.667400150" lon="2.473856130">
        <ele>182.31</ele>
        <time>2015-01-18T07:58:31Z</time>
      </trkpt>
      <trkpt lat="41.667495870" lon="2.473829650">
        <ele>181.83</ele>
        <time>2015-01-18T07:58:36Z</time>
      </trkpt>
      <trkpt lat="41.667482630" lon="2.473634260">
        <ele>184.71</ele>
        <time>2015-01-18T07:58:45Z</time>
      </trkpt>
      <trkpt lat="41.667477180" lon="2.473595960">
        <ele>186.15</ele>
        <time>2015-01-18T07:58:47Z</time>
      </trkpt>
      <trkpt lat="41.667460580" lon="2.473420360">
        <ele>188.56</ele>
        <time>2015-01-18T07:58:57Z</time>
      </trkpt>
      <trkpt lat="41.667442730" lon="2.473266470">
        <ele>190.96</ele>
        <time>2015-01-18T07:59:05Z</time>
      </trkpt>
      <trkpt lat="41.667405760" lon="2.473076450">
        <ele>193.36</ele>
        <time>2015-01-18T07:59:15Z</time>
      </trkpt>
      <trkpt lat="41.667364690" lon="2.472941250">
        <ele>193.84</ele>
        <time>2015-01-18T07:59:22Z</time>
      </trkpt>
      <trkpt lat="41.667332340" lon="2.472876040">
        <ele>194.32</ele>
        <time>2015-01-18T07:59:26Z</time>
      </trkpt>
      <trkpt lat="41.667227900" lon="2.472721890">
        <ele>196.25</ele>
        <time>2015-01-18T07:59:36Z</time>
      </trkpt>
      <trkpt lat="41.667128740" lon="2.472603960">
        <ele>197.69</ele>
        <time>2015-01-18T07:59:44Z</time>
      </trkpt>
      <trkpt lat="41.667008460" lon="2.472469100">
        <ele>198.17</ele>
        <time>2015-01-18T07:59:53Z</time>
      </trkpt>
      <trkpt lat="41.666844600" lon="2.472407740">
        <ele>198.65</ele>
        <time>2015-01-18T08:00:01Z</time>
      </trkpt>
      <trkpt lat="41.666602110" lon="2.472414280">
        <ele>197.21</ele>
        <time>2015-01-18T08:00:09Z</time>
      </trkpt>
      <trkpt lat="41.666499850" lon="2.472393830">
        <ele>198.65</ele>
        <time>2015-01-18T08:00:14Z</time>
      </trkpt>
      <trkpt lat="41.666394660" lon="2.472294670">
        <ele>200.57</ele>
        <time>2015-01-18T08:00:21Z</time>
      </trkpt>
      <trkpt lat="41.666266580" lon="2.472165340">
        <ele>202.49</ele>
        <time>2015-01-18T08:00:30Z</time>
      </trkpt>
      <trkpt lat="41.666096850" lon="2.472067850">
        <ele>202.49</ele>
        <time>2015-01-18T08:00:36Z</time>
      </trkpt>
      <trkpt lat="41.665949240" lon="2.472020240">
        <ele>202.49</ele>
        <time>2015-01-18T08:00:43Z</time>
      </trkpt>
      <trkpt lat="41.665846310" lon="2.471958390">
        <ele>202.98</ele>
        <time>2015-01-18T08:00:50Z</time>
      </trkpt>
      <trkpt lat="41.665794430" lon="2.471892340">
        <ele>203.46</ele>
        <time>2015-01-18T08:00:54Z</time>
      </trkpt>
      <trkpt lat="41.665830640" lon="2.471678770">
        <ele>202.01</ele>
        <time>2015-01-18T08:01:00Z</time>
      </trkpt>
      <trkpt lat="41.665792830" lon="2.471331080">
        <ele>199.61</ele>
        <time>2015-01-18T08:01:05Z</time>
      </trkpt>
      <trkpt lat="41.665695350" lon="2.471047020">
        <ele>199.61</ele>
        <time>2015-01-18T08:01:11Z</time>
      </trkpt>
      <trkpt lat="41.665670120" lon="2.470927660">
        <ele>201.05</ele>
        <time>2015-01-18T08:01:15Z</time>
      </trkpt>
      <trkpt lat="41.665559650" lon="2.470752230">
        <ele>202.49</ele>
        <time>2015-01-18T08:01:23Z</time>
      </trkpt>
      <trkpt lat="41.665344910" lon="2.470649130">
        <ele>202.98</ele>
        <time>2015-01-18T08:01:32Z</time>
      </trkpt>
      <trkpt lat="41.665184560" lon="2.470715270">
        <ele>202.98</ele>
        <time>2015-01-18T08:01:38Z</time>
      </trkpt>
      <trkpt lat="41.665102330" lon="2.470884160">
        <ele>203.94</ele>
        <time>2015-01-18T08:01:44Z</time>
      </trkpt>
      <trkpt lat="41.664954730" lon="2.470991620">
        <ele>203.94</ele>
        <time>2015-01-18T08:01:50Z</time>
      </trkpt>
      <trkpt lat="41.664892370" lon="2.471007380">
        <ele>203.94</ele>
        <time>2015-01-18T08:01:52Z</time>
      </trkpt>
      <trkpt lat="41.664786170" lon="2.470864970">
        <ele>204.90</ele>
        <time>2015-01-18T08:01:58Z</time>
      </trkpt>
      <trkpt lat="41.664761190" lon="2.470795480">
        <ele>204.90</ele>
        <time>2015-01-18T08:02:00Z</time>
      </trkpt>
      <trkpt lat="41.664644260" lon="2.470495830">
        <ele>204.90</ele>
        <time>2015-01-18T08:02:07Z</time>
      </trkpt>
      <trkpt lat="41.664624650" lon="2.470392900">
        <ele>203.94</ele>
        <time>2015-01-18T08:02:09Z</time>
      </trkpt>
      <trkpt lat="41.664639740" lon="2.470151830">
        <ele>203.46</ele>
        <time>2015-01-18T08:02:14Z</time>
      </trkpt>
      <trkpt lat="41.664655660" lon="2.469917230">
        <ele>203.46</ele>
        <time>2015-01-18T08:02:20Z</time>
      </trkpt>
      <trkpt lat="41.664552730" lon="2.469598710">
        <ele>201.53</ele>
        <time>2015-01-18T08:02:25Z</time>
      </trkpt>
      <trkpt lat="41.664383000" lon="2.469372820">
        <ele>198.65</ele>
        <time>2015-01-18T08:02:29Z</time>
      </trkpt>
      <trkpt lat="41.664217620" lon="2.469253880">
        <ele>197.21</ele>
        <time>2015-01-18T08:02:32Z</time>
      </trkpt>
      <trkpt lat="41.664093740" lon="2.469180960">
        <ele>195.28</ele>
        <time>2015-01-18T08:02:34Z</time>
      </trkpt>
      <trkpt lat="41.663963990" lon="2.468976270">
        <ele>192.40</ele>
        <time>2015-01-18T08:02:38Z</time>
      </trkpt>
      <trkpt lat="41.663968930" lon="2.468891030">
        <ele>191.92</ele>
        <time>2015-01-18T08:02:40Z</time>
      </trkpt>
      <trkpt lat="41.664036410" lon="2.468617610">
        <ele>193.36</ele>
        <time>2015-01-18T08:02:49Z</time>
      </trkpt>
      <trkpt lat="41.664076470" lon="2.468402620">
        <ele>195.28</ele>
        <time>2015-01-18T08:02:57Z</time>
      </trkpt>
      <trkpt lat="41.664067420" lon="2.468366490">
        <ele>195.28</ele>
        <time>2015-01-18T08:02:58Z</time>
      </trkpt>
      <trkpt lat="41.663972370" lon="2.468173200">
        <ele>193.84</ele>
        <time>2015-01-18T08:03:02Z</time>
      </trkpt>
      <trkpt lat="41.663913860" lon="2.468091560">
        <ele>193.36</ele>
        <time>2015-01-18T08:03:04Z</time>
      </trkpt>
      <trkpt lat="41.663753270" lon="2.468010430">
        <ele>191.92</ele>
        <time>2015-01-18T08:03:08Z</time>
      </trkpt>
      <trkpt lat="41.663634330" lon="2.468014700">
        <ele>190.00</ele>
        <time>2015-01-18T08:03:10Z</time>
      </trkpt>
      <trkpt lat="41.663498960" lon="2.467905230">
        <ele>188.56</ele>
        <time>2015-01-18T08:03:13Z</time>
      </trkpt>
      <trkpt lat="41.663454030" lon="2.467782520">
        <ele>187.59</ele>
        <time>2015-01-18T08:03:15Z</time>
      </trkpt>
      <trkpt lat="41.663327550" lon="2.467520340">
        <ele>187.11</ele>
        <time>2015-01-18T08:03:21Z</time>
      </trkpt>
      <trkpt lat="41.663222190" lon="2.467383540">
        <ele>185.67</ele>
        <time>2015-01-18T08:03:24Z</time>
      </trkpt>
      <trkpt lat="41.663042310" lon="2.467213890">
        <ele>182.31</ele>
        <time>2015-01-18T08:03:29Z</time>
      </trkpt>
      <trkpt lat="41.662955810" lon="2.467155810">
        <ele>181.35</ele>
        <time>2015-01-18T08:03:34Z</time>
      </trkpt>
      <trkpt lat="41.662953130" lon="2.467157230">
        <ele>181.35</ele>
        <time>2015-01-18T08:03:37Z</time>
      </trkpt>
      <trkpt lat="41.662887750" lon="2.467301230">
        <ele>181.35</ele>
        <time>2015-01-18T08:03:47Z</time>
      </trkpt>
      <trkpt lat="41.662869060" lon="2.467325880">
        <ele>182.79</ele>
        <time>2015-01-18T08:03:49Z</time>
      </trkpt>
      <trkpt lat="41.662763200" lon="2.467432070">
        <ele>183.75</ele>
        <time>2015-01-18T08:03:57Z</time>
      </trkpt>
      <trkpt lat="41.662655740" lon="2.467477670">
        <ele>185.19</ele>
        <time>2015-01-18T08:04:04Z</time>
      </trkpt>
      <trkpt lat="41.662557670" lon="2.467525950">
        <ele>186.63</ele>
        <time>2015-01-18T08:04:11Z</time>
      </trkpt>
      <trkpt lat="41.662448370" lon="2.467626450">
        <ele>189.04</ele>
        <time>2015-01-18T08:04:20Z</time>
      </trkpt>
      <trkpt lat="41.662329350" lon="2.467677750">
        <ele>190.00</ele>
        <time>2015-01-18T08:04:28Z</time>
      </trkpt>
      <trkpt lat="41.662288860" lon="2.467689900">
        <ele>191.44</ele>
        <time>2015-01-18T08:04:31Z</time>
      </trkpt>
      <trkpt lat="41.662201360" lon="2.467729380">
        <ele>192.88</ele>
        <time>2015-01-18T08:04:38Z</time>
      </trkpt>
      <trkpt lat="41.662122060" lon="2.467774980">
        <ele>193.84</ele>
        <time>2015-01-18T08:04:44Z</time>
      </trkpt>
      <trkpt lat="41.662109160" lon="2.467783950">
        <ele>194.32</ele>
        <time>2015-01-18T08:04:45Z</time>
      </trkpt>
      <trkpt lat="41.661991140" lon="2.467892740">
        <ele>196.25</ele>
        <time>2015-01-18T08:04:55Z</time>
      </trkpt>
      <trkpt lat="41.661907240" lon="2.467961980">
        <ele>197.69</ele>
        <time>2015-01-18T08:05:02Z</time>
      </trkpt>
      <trkpt lat="41.661891730" lon="2.467969860">
        <ele>197.69</ele>
        <time>2015-01-18T08:05:03Z</time>
      </trkpt>
      <trkpt lat="41.661746140" lon="2.468046130">
        <ele>200.09</ele>
        <time>2015-01-18T08:05:14Z</time>
      </trkpt>
      <trkpt lat="41.661686960" lon="2.468115700">
        <ele>201.53</ele>
        <time>2015-01-18T08:05:20Z</time>
      </trkpt>
      <trkpt lat="41.661643290" lon="2.468243110">
        <ele>202.98</ele>
        <time>2015-01-18T08:05:28Z</time>
      </trkpt>
      <trkpt lat="41.661599620" lon="2.468420390">
        <ele>203.94</ele>
        <time>2015-01-18T08:05:38Z</time>
      </trkpt>
      <trkpt lat="41.661583860" lon="2.468484260">
        <ele>204.42</ele>
        <time>2015-01-18T08:05:42Z</time>
      </trkpt>
      <trkpt lat="41.661502980" lon="2.468606040">
        <ele>206.82</ele>
        <time>2015-01-18T08:05:51Z</time>
      </trkpt>
      <trkpt lat="41.661401140" lon="2.468684580">
        <ele>208.74</ele>
        <time>2015-01-18T08:06:00Z</time>
      </trkpt>
      <trkpt lat="41.661325780" lon="2.468744260">
        <ele>209.70</ele>
        <time>2015-01-18T08:06:06Z</time>
      </trkpt>
      <trkpt lat="41.661236260" lon="2.468802260">
        <ele>211.63</ele>
        <time>2015-01-18T08:06:14Z</time>
      </trkpt>
      <trkpt lat="41.661186560" lon="2.468842500">
        <ele>212.11</ele>
        <time>2015-01-18T08:06:18Z</time>
      </trkpt>
      <trkpt lat="41.661065860" lon="2.468926070">
        <ele>214.03</ele>
        <time>2015-01-18T08:06:28Z</time>
      </trkpt>
      <trkpt lat="41.660962090" lon="2.468959590">
        <ele>215.47</ele>
        <time>2015-01-18T08:06:36Z</time>
      </trkpt>
      <trkpt lat="41.660924210" lon="2.468964790">
        <ele>215.95</ele>
        <time>2015-01-18T08:06:39Z</time>
      </trkpt>
      <trkpt lat="41.660862930" lon="2.468957160">
        <ele>217.40</ele>
        <time>2015-01-18T08:06:44Z</time>
      </trkpt>
      <trkpt lat="41.660719860" lon="2.468906120">
        <ele>218.36</ele>
        <time>2015-01-18T08:06:54Z</time>
      </trkpt>
      <trkpt lat="41.660580050" lon="2.468834700">
        <ele>219.80</ele>
        <time>2015-01-18T08:07:03Z</time>
      </trkpt>
      <trkpt lat="41.660422630" lon="2.468787010">
        <ele>221.24</ele>
        <time>2015-01-18T08:07:13Z</time>
      </trkpt>
      <trkpt lat="41.660227670" lon="2.468806620">
        <ele>222.20</ele>
        <time>2015-01-18T08:07:22Z</time>
      </trkpt>
      <trkpt lat="41.660094480" lon="2.468854320">
        <ele>223.64</ele>
        <time>2015-01-18T08:07:30Z</time>
      </trkpt>
      <trkpt lat="41.659943690" lon="2.468888850">
        <ele>224.61</ele>
        <time>2015-01-18T08:07:38Z</time>
      </trkpt>
      <trkpt lat="41.659782760" lon="2.468894380">
        <ele>225.57</ele>
        <time>2015-01-18T08:07:48Z</time>
      </trkpt>
      <trkpt lat="41.659638000" lon="2.468882900">
        <ele>227.97</ele>
        <time>2015-01-18T08:07:57Z</time>
      </trkpt>
      <trkpt lat="41.659477490" lon="2.468907960">
        <ele>228.93</ele>
        <time>2015-01-18T08:08:06Z</time>
      </trkpt>
      <trkpt lat="41.659370540" lon="2.468936710">
        <ele>229.89</ele>
        <time>2015-01-18T08:08:13Z</time>
      </trkpt>
      <trkpt lat="41.659203150" lon="2.468922540">
        <ele>229.89</ele>
        <time>2015-01-18T08:08:21Z</time>
      </trkpt>
      <trkpt lat="41.659085970" lon="2.468883320">
        <ele>229.89</ele>
        <time>2015-01-18T08:08:28Z</time>
      </trkpt>
      <trkpt lat="41.659037690" lon="2.468867480">
        <ele>229.89</ele>
        <time>2015-01-18T08:08:35Z</time>
      </trkpt>
      <trkpt lat="41.659027630" lon="2.468871160">
        <ele>229.89</ele>
        <time>2015-01-18T08:08:41Z</time>
      </trkpt>
      <trkpt lat="41.659003910" lon="2.468839480">
        <ele>230.37</ele>
        <time>2015-01-18T08:08:48Z</time>
      </trkpt>
      <trkpt lat="41.658986810" lon="2.468809560">
        <ele>230.37</ele>
        <time>2015-01-18T08:08:55Z</time>
      </trkpt>
      <trkpt lat="41.658984130" lon="2.468823550">
        <ele>230.37</ele>
        <time>2015-01-18T08:09:14Z</time>
      </trkpt>
      <trkpt lat="41.659004420" lon="2.468830340">
        <ele>230.37</ele>
        <time>2015-01-18T08:09:32Z</time>
      </trkpt>
      <trkpt lat="41.658999720" lon="2.468829000">
        <ele>230.37</ele>
        <time>2015-01-18T08:09:47Z</time>
      </trkpt>
      <trkpt lat="41.659020930" lon="2.468833700">
        <ele>230.37</ele>
        <time>2015-01-18T08:10:09Z</time>
      </trkpt>
      <trkpt lat="41.659028140" lon="2.468812830">
        <ele>230.37</ele>
        <time>2015-01-18T08:10:26Z</time>
      </trkpt>
      <trkpt lat="41.659005670" lon="2.468814920">
        <ele>230.37</ele>
        <time>2015-01-18T08:10:45Z</time>
      </trkpt>
      <trkpt lat="41.659010110" lon="2.468789190">
        <ele>230.37</ele>
        <time>2015-01-18T08:11:05Z</time>
      </trkpt>
      <trkpt lat="41.659011370" lon="2.468809720">
        <ele>228.93</ele>
        <time>2015-01-18T08:11:17Z</time>
      </trkpt>
      <trkpt lat="41.659009530" lon="2.468808050">
        <ele>228.93</ele>
        <time>2015-01-18T08:11:36Z</time>
      </trkpt>
      <trkpt lat="41.658998800" lon="2.468812910">
        <ele>228.93</ele>
        <time>2015-01-18T08:11:58Z</time>
      </trkpt>
      <trkpt lat="41.659004250" lon="2.468825900">
        <ele>228.93</ele>
        <time>2015-01-18T08:12:16Z</time>
      </trkpt>
      <trkpt lat="41.659006680" lon="2.468828330">
        <ele>228.93</ele>
        <time>2015-01-18T08:12:37Z</time>
      </trkpt>
      <trkpt lat="41.659029980" lon="2.468831770">
        <ele>228.45</ele>
        <time>2015-01-18T08:12:55Z</time>
      </trkpt>
      <trkpt lat="41.659007180" lon="2.468830010">
        <ele>227.97</ele>
        <time>2015-01-18T08:13:14Z</time>
      </trkpt>
      <trkpt lat="41.659017830" lon="2.468834200">
        <ele>227.97</ele>
        <time>2015-01-18T08:13:26Z</time>
      </trkpt>
      <trkpt lat="41.658999720" lon="2.468836380">
        <ele>227.97</ele>
        <time>2015-01-18T08:13:49Z</time>
      </trkpt>
      <trkpt lat="41.658997540" lon="2.468811230">
        <ele>227.49</ele>
        <time>2015-01-18T08:14:07Z</time>
      </trkpt>
      <trkpt lat="41.659006010" lon="2.468811320">
        <ele>227.49</ele>
        <time>2015-01-18T08:14:27Z</time>
      </trkpt>
      <trkpt lat="41.658999890" lon="2.468826820">
        <ele>227.49</ele>
        <time>2015-01-18T08:14:43Z</time>
      </trkpt>
      <trkpt lat="41.659016490" lon="2.468842830">
        <ele>227.49</ele>
        <time>2015-01-18T08:15:01Z</time>
      </trkpt>
      <trkpt lat="41.659009190" lon="2.468839560">
        <ele>227.49</ele>
        <time>2015-01-18T08:15:16Z</time>
      </trkpt>
      <trkpt lat="41.659010370" lon="2.468811480">
        <ele>227.49</ele>
        <time>2015-01-18T08:15:35Z</time>
      </trkpt>
      <trkpt lat="41.659016570" lon="2.468834950">
        <ele>227.49</ele>
        <time>2015-01-18T08:15:54Z</time>
      </trkpt>
      <trkpt lat="41.659005840" lon="2.468827830">
        <ele>227.01</ele>
        <time>2015-01-18T08:16:15Z</time>
      </trkpt>
      <trkpt lat="41.658997880" lon="2.468804190">
        <ele>227.01</ele>
        <time>2015-01-18T08:16:38Z</time>
      </trkpt>
      <trkpt lat="41.658998210" lon="2.468831180">
        <ele>227.01</ele>
        <time>2015-01-18T08:16:54Z</time>
      </trkpt>
      <trkpt lat="41.658988910" lon="2.468822050">
        <ele>226.53</ele>
        <time>2015-01-18T08:17:13Z</time>
      </trkpt>
      <trkpt lat="41.658985810" lon="2.468820030">
        <ele>226.53</ele>
        <time>2015-01-18T08:17:31Z</time>
      </trkpt>
      <trkpt lat="41.658990670" lon="2.468821540">
        <ele>226.53</ele>
        <time>2015-01-18T08:17:47Z</time>
      </trkpt>
      <trkpt lat="41.658987150" lon="2.468793380">
        <ele>226.53</ele>
        <time>2015-01-18T08:18:09Z</time>
      </trkpt>
      <trkpt lat="41.658983380" lon="2.468800090">
        <ele>226.53</ele>
        <time>2015-01-18T08:18:29Z</time>
      </trkpt>
      <trkpt lat="41.658991670" lon="2.468818610">
        <ele>226.53</ele>
        <time>2015-01-18T08:18:51Z</time>
      </trkpt>
      <trkpt lat="41.658986730" lon="2.468811740">
        <ele>226.53</ele>
        <time>2015-01-18T08:19:20Z</time>
      </trkpt>
      <trkpt lat="41.658973490" lon="2.468817600">
        <ele>226.05</ele>
        <time>2015-01-18T08:19:44Z</time>
      </trkpt>
      <trkpt lat="41.658980950" lon="2.468801680">
        <ele>226.05</ele>
        <time>2015-01-18T08:20:04Z</time>
      </trkpt>
      <trkpt lat="41.658986230" lon="2.468793460">
        <ele>226.05</ele>
        <time>2015-01-18T08:20:25Z</time>
      </trkpt>
      <trkpt lat="41.658974160" lon="2.468769410">
        <ele>226.05</ele>
        <time>2015-01-18T08:20:45Z</time>
      </trkpt>
      <trkpt lat="41.658955210" lon="2.468775690">
        <ele>226.05</ele>
        <time>2015-01-18T08:21:04Z</time>
      </trkpt>
      <trkpt lat="41.658972730" lon="2.468791450">
        <ele>226.05</ele>
        <time>2015-01-18T08:21:27Z</time>
      </trkpt>
      <trkpt lat="41.658962000" lon="2.468789940">
        <ele>226.05</ele>
        <time>2015-01-18T08:21:45Z</time>
      </trkpt>
      <trkpt lat="41.658962510" lon="2.468785670">
        <ele>226.05</ele>
        <time>2015-01-18T08:22:06Z</time>
      </trkpt>
      <trkpt lat="41.658982290" lon="2.468798830">
        <ele>226.05</ele>
        <time>2015-01-18T08:22:27Z</time>
      </trkpt>
      <trkpt lat="41.658974830" lon="2.468802010">
        <ele>226.05</ele>
        <time>2015-01-18T08:22:46Z</time>
      </trkpt>
      <trkpt lat="41.658990250" lon="2.468786090">
        <ele>226.05</ele>
        <time>2015-01-18T08:23:10Z</time>
      </trkpt>
      <trkpt lat="41.658990500" lon="2.468798070">
        <ele>226.05</ele>
        <time>2015-01-18T08:23:30Z</time>
      </trkpt>
      <trkpt lat="41.658986810" lon="2.468790280">
        <ele>226.05</ele>
        <time>2015-01-18T08:23:51Z</time>
      </trkpt>
      <trkpt lat="41.658998550" lon="2.468793550">
        <ele>226.05</ele>
        <time>2015-01-18T08:24:11Z</time>
      </trkpt>
      <trkpt lat="41.658990920" lon="2.468797820">
        <ele>226.05</ele>
        <time>2015-01-18T08:24:27Z</time>
      </trkpt>
      <trkpt lat="41.658994110" lon="2.468800000">
        <ele>226.05</ele>
        <time>2015-01-18T08:24:43Z</time>
      </trkpt>
      <trkpt lat="41.658994690" lon="2.468798160">
        <ele>225.57</ele>
        <time>2015-01-18T08:25:05Z</time>
      </trkpt>
      <trkpt lat="41.658999890" lon="2.468800920">
        <ele>225.57</ele>
        <time>2015-01-18T08:25:29Z</time>
      </trkpt>
      <trkpt lat="41.659006260" lon="2.468790780">
        <ele>225.57</ele>
        <time>2015-01-18T08:25:52Z</time>
      </trkpt>
      <trkpt lat="41.659003330" lon="2.468809220">
        <ele>225.57</ele>
        <time>2015-01-18T08:26:11Z</time>
      </trkpt>
      <trkpt lat="41.659005340" lon="2.468804110">
        <ele>225.57</ele>
        <time>2015-01-18T08:26:28Z</time>
      </trkpt>
      <trkpt lat="41.658998970" lon="2.468816510">
        <ele>225.57</ele>
        <time>2015-01-18T08:26:48Z</time>
      </trkpt>
      <trkpt lat="41.659021010" lon="2.468802940">
        <ele>225.57</ele>
        <time>2015-01-18T08:27:07Z</time>
      </trkpt>
      <trkpt lat="41.659009610" lon="2.468837800">
        <ele>225.57</ele>
        <time>2015-01-18T08:27:27Z</time>
      </trkpt>
      <trkpt lat="41.658989080" lon="2.468833780">
        <ele>225.57</ele>
        <time>2015-01-18T08:27:35Z</time>
      </trkpt>
      <trkpt lat="41.658986560" lon="2.468822720">
        <ele>225.57</ele>
        <time>2015-01-18T08:27:40Z</time>
      </trkpt>
      <trkpt lat="41.658909280" lon="2.468802180">
        <ele>225.57</ele>
        <time>2015-01-18T08:27:47Z</time>
      </trkpt>
      <trkpt lat="41.658809960" lon="2.468771080">
        <ele>226.53</ele>
        <time>2015-01-18T08:27:54Z</time>
      </trkpt>
      <trkpt lat="41.658796210" lon="2.468766470">
        <ele>226.53</ele>
        <time>2015-01-18T08:27:55Z</time>
      </trkpt>
      <trkpt lat="41.658720860" lon="2.468746190">
        <ele>227.97</ele>
        <time>2015-01-18T08:28:00Z</time>
      </trkpt>
      <trkpt lat="41.658670140" lon="2.468735380">
        <ele>228.45</ele>
        <time>2015-01-18T08:28:04Z</time>
      </trkpt>
      <trkpt lat="41.658539890" lon="2.468731860">
        <ele>228.93</ele>
        <time>2015-01-18T08:28:12Z</time>
      </trkpt>
      <trkpt lat="41.658397570" lon="2.468771250">
        <ele>229.41</ele>
        <time>2015-01-18T08:28:21Z</time>
      </trkpt>
      <trkpt lat="41.658265050" lon="2.468816770">
        <ele>229.89</ele>
        <time>2015-01-18T08:28:29Z</time>
      </trkpt>
      <trkpt lat="41.658133620" lon="2.468830430">
        <ele>229.89</ele>
        <time>2015-01-18T08:28:36Z</time>
      </trkpt>
      <trkpt lat="41.657948630" lon="2.468848870">
        <ele>230.37</ele>
        <time>2015-01-18T08:28:45Z</time>
      </trkpt>
      <trkpt lat="41.657768760" lon="2.468867730">
        <ele>230.85</ele>
        <time>2015-01-18T08:28:53Z</time>
      </trkpt>
      <trkpt lat="41.657619720" lon="2.468878790">
        <ele>228.93</ele>
        <time>2015-01-18T08:28:57Z</time>
      </trkpt>
      <trkpt lat="41.657413450" lon="2.468849540">
        <ele>227.01</ele>
        <time>2015-01-18T08:29:01Z</time>
      </trkpt>
      <trkpt lat="41.657314620" lon="2.468834120">
        <ele>226.53</ele>
        <time>2015-01-18T08:29:03Z</time>
      </trkpt>
      <trkpt lat="41.657077160" lon="2.468874430">
        <ele>226.53</ele>
        <time>2015-01-18T08:29:09Z</time>
      </trkpt>
      <trkpt lat="41.656962750" lon="2.468978790">
        <ele>228.45</ele>
        <time>2015-01-18T08:29:16Z</time>
      </trkpt>
      <trkpt lat="41.656821430" lon="2.469123630">
        <ele>230.37</ele>
        <time>2015-01-18T08:29:25Z</time>
      </trkpt>
      <trkpt lat="41.656679360" lon="2.469259500">
        <ele>231.81</ele>
        <time>2015-01-18T08:29:34Z</time>
      </trkpt>
      <trkpt lat="41.656561760" lon="2.469355220">
        <ele>233.74</ele>
        <time>2015-01-18T08:29:43Z</time>
      </trkpt>
      <trkpt lat="41.656461510" lon="2.469382540">
        <ele>236.14</ele>
        <time>2015-01-18T08:29:51Z</time>
      </trkpt>
      <trkpt lat="41.656337880" lon="2.469398050">
        <ele>238.54</ele>
        <time>2015-01-18T08:30:00Z</time>
      </trkpt>
      <trkpt lat="41.656204610" lon="2.469326380">
        <ele>240.47</ele>
        <time>2015-01-18T08:30:09Z</time>
      </trkpt>
      <trkpt lat="41.656112990" lon="2.469192020">
        <ele>241.43</ele>
        <time>2015-01-18T08:30:17Z</time>
      </trkpt>
      <trkpt lat="41.655986260" lon="2.469043580">
        <ele>241.43</ele>
        <time>2015-01-18T08:30:24Z</time>
      </trkpt>
      <trkpt lat="41.655783840" lon="2.468995380">
        <ele>241.43</ele>
        <time>2015-01-18T08:30:33Z</time>
      </trkpt>
      <trkpt lat="41.655605970" lon="2.469059670">
        <ele>243.35</ele>
        <time>2015-01-18T08:30:42Z</time>
      </trkpt>
      <trkpt lat="41.655499520" lon="2.469095550">
        <ele>244.79</ele>
        <time>2015-01-18T08:30:48Z</time>
      </trkpt>
      <trkpt lat="41.655502460" lon="2.469000580">
        <ele>246.72</ele>
        <time>2015-01-18T08:30:53Z</time>
      </trkpt>
      <trkpt lat="41.655535400" lon="2.468899240">
        <ele>247.68</ele>
        <time>2015-01-18T08:30:59Z</time>
      </trkpt>
      <trkpt lat="41.655550740" lon="2.468869660">
        <ele>247.68</ele>
        <time>2015-01-18T08:31:01Z</time>
      </trkpt>
      <trkpt lat="41.655639250" lon="2.468703270">
        <ele>249.12</ele>
        <time>2015-01-18T08:31:10Z</time>
      </trkpt>
      <trkpt lat="41.655659450" lon="2.468596150">
        <ele>250.56</ele>
        <time>2015-01-18T08:31:15Z</time>
      </trkpt>
      <trkpt lat="41.655555430" lon="2.468530190">
        <ele>251.04</ele>
        <time>2015-01-18T08:31:22Z</time>
      </trkpt>
      <trkpt lat="41.655396260" lon="2.468549720">
        <ele>252.00</ele>
        <time>2015-01-18T08:31:31Z</time>
      </trkpt>
      <trkpt lat="41.655243790" lon="2.468617280">
        <ele>252.96</ele>
        <time>2015-01-18T08:31:39Z</time>
      </trkpt>
      <trkpt lat="41.655140780" lon="2.468696900">
        <ele>254.41</ele>
        <time>2015-01-18T08:31:46Z</time>
      </trkpt>
      <trkpt lat="41.655034830" lon="2.468775690">
        <ele>255.85</ele>
        <time>2015-01-18T08:31:54Z</time>
      </trkpt>
      <trkpt lat="41.655030640" lon="2.468775190">
        <ele>256.33</ele>
        <time>2015-01-18T08:32:02Z</time>
      </trkpt>
      <trkpt lat="41.655032730" lon="2.468774350">
        <ele>256.33</ele>
        <time>2015-01-18T08:32:15Z</time>
      </trkpt>
      <trkpt lat="41.655024600" lon="2.468786930">
        <ele>256.33</ele>
        <time>2015-01-18T08:32:23Z</time>
      </trkpt>
      <trkpt lat="41.655021670" lon="2.468801260">
        <ele>256.33</ele>
        <time>2015-01-18T08:32:30Z</time>
      </trkpt>
      <trkpt lat="41.655020080" lon="2.468820200">
        <ele>256.33</ele>
        <time>2015-01-18T08:32:38Z</time>
      </trkpt>
      <trkpt lat="41.654986210" lon="2.468852050">
        <ele>256.81</ele>
        <time>2015-01-18T08:32:43Z</time>
      </trkpt>
      <trkpt lat="41.654931150" lon="2.468907960">
        <ele>257.29</ele>
        <time>2015-01-18T08:32:48Z</time>
      </trkpt>
      <trkpt lat="41.654810030" lon="2.469023800">
        <ele>259.21</ele>
        <time>2015-01-18T08:32:59Z</time>
      </trkpt>
      <trkpt lat="41.654701310" lon="2.469134360">
        <ele>260.65</ele>
        <time>2015-01-18T08:33:08Z</time>
      </trkpt>
      <trkpt lat="41.654605420" lon="2.469196300">
        <ele>263.06</ele>
        <time>2015-01-18T08:33:16Z</time>
      </trkpt>
      <trkpt lat="41.654566280" lon="2.469182220">
        <ele>263.06</ele>
        <time>2015-01-18T08:33:19Z</time>
      </trkpt>
      <trkpt lat="41.654504670" lon="2.469099910">
        <ele>264.50</ele>
        <time>2015-01-18T08:33:25Z</time>
      </trkpt>
      <trkpt lat="41.654448520" lon="2.468969400">
        <ele>264.98</ele>
        <time>2015-01-18T08:33:33Z</time>
      </trkpt>
      <trkpt lat="41.654384480" lon="2.468847690">
        <ele>266.42</ele>
        <time>2015-01-18T08:33:41Z</time>
      </trkpt>
      <trkpt lat="41.654310130" lon="2.468801760">
        <ele>267.38</ele>
        <time>2015-01-18T08:33:46Z</time>
      </trkpt>
      <trkpt lat="41.654141070" lon="2.468746360">
        <ele>267.38</ele>
        <time>2015-01-18T08:33:55Z</time>
      </trkpt>
      <trkpt lat="41.653992790" lon="2.468782900">
        <ele>269.31</ele>
        <time>2015-01-18T08:34:03Z</time>
      </trkpt>
      <trkpt lat="41.653835800" lon="2.468862280">
        <ele>269.79</ele>
        <time>2015-01-18T08:34:12Z</time>
      </trkpt>
      <trkpt lat="41.653770590" lon="2.468903180">
        <ele>270.75</ele>
        <time>2015-01-18T08:34:16Z</time>
      </trkpt>
      <trkpt lat="41.653605720" lon="2.469026820">
        <ele>270.75</ele>
        <time>2015-01-18T08:34:24Z</time>
      </trkpt>
      <trkpt lat="41.653428690" lon="2.469134860">
        <ele>270.75</ele>
        <time>2015-01-18T08:34:32Z</time>
      </trkpt>
      <trkpt lat="41.653395330" lon="2.469140390">
        <ele>270.75</ele>
        <time>2015-01-18T08:34:38Z</time>
      </trkpt>
      <trkpt lat="41.653374460" lon="2.469152630">
        <ele>270.75</ele>
        <time>2015-01-18T08:34:48Z</time>
      </trkpt>
      <trkpt lat="41.653364320" lon="2.469139800">
        <ele>271.23</ele>
        <time>2015-01-18T08:35:01Z</time>
      </trkpt>
      <trkpt lat="41.653364230" lon="2.469171820">
        <ele>271.23</ele>
        <time>2015-01-18T08:35:26Z</time>
      </trkpt>
      <trkpt lat="41.653346880" lon="2.469155480">
        <ele>271.23</ele>
        <time>2015-01-18T08:35:49Z</time>
      </trkpt>
      <trkpt lat="41.653358450" lon="2.469165540">
        <ele>271.23</ele>
        <time>2015-01-18T08:36:11Z</time>
      </trkpt>
      <trkpt lat="41.653380910" lon="2.469159750">
        <ele>271.23</ele>
        <time>2015-01-18T08:36:31Z</time>
      </trkpt>
      <trkpt lat="41.653370440" lon="2.469155650">
        <ele>271.23</ele>
        <time>2015-01-18T08:36:33Z</time>
      </trkpt>
      <trkpt lat="41.653349480" lon="2.469129410">
        <ele>271.23</ele>
        <time>2015-01-18T08:36:36Z</time>
      </trkpt>
      <trkpt lat="41.653324330" lon="2.469048110">
        <ele>271.23</ele>
        <time>2015-01-18T08:36:41Z</time>
      </trkpt>
      <trkpt lat="41.653242190" lon="2.468911060">
        <ele>270.27</ele>
        <time>2015-01-18T08:36:50Z</time>
      </trkpt>
      <trkpt lat="41.653188130" lon="2.468752390">
        <ele>270.27</ele>
        <time>2015-01-18T08:36:57Z</time>
      </trkpt>
      <trkpt lat="41.653178660" lon="2.468732950">
        <ele>270.27</ele>
        <time>2015-01-18T08:36:58Z</time>
      </trkpt>
      <trkpt lat="41.653146890" lon="2.468622140">
        <ele>270.27</ele>
        <time>2015-01-18T08:37:03Z</time>
      </trkpt>
      <trkpt lat="41.653132640" lon="2.468569160">
        <ele>271.71</ele>
        <time>2015-01-18T08:37:05Z</time>
      </trkpt>
      <trkpt lat="41.653075560" lon="2.468367160">
        <ele>272.19</ele>
        <time>2015-01-18T08:37:13Z</time>
      </trkpt>
      <trkpt lat="41.653021160" lon="2.468216290">
        <ele>272.67</ele>
        <time>2015-01-18T08:37:20Z</time>
      </trkpt>
      <trkpt lat="41.652930300" lon="2.468059460">
        <ele>273.63</ele>
        <time>2015-01-18T08:37:27Z</time>
      </trkpt>
      <trkpt lat="41.652823430" lon="2.467943790">
        <ele>274.59</ele>
        <time>2015-01-18T08:37:34Z</time>
      </trkpt>
      <trkpt lat="41.652765760" lon="2.467893410">
        <ele>275.56</ele>
        <time>2015-01-18T08:37:39Z</time>
      </trkpt>
      <trkpt lat="41.652727120" lon="2.467809010">
        <ele>275.56</ele>
        <time>2015-01-18T08:37:43Z</time>
      </trkpt>
      <trkpt lat="41.652705500" lon="2.467766510">
        <ele>275.56</ele>
        <time>2015-01-18T08:37:45Z</time>
      </trkpt>
      <trkpt lat="41.652534420" lon="2.467621590">
        <ele>276.04</ele>
        <time>2015-01-18T08:37:55Z</time>
      </trkpt>
      <trkpt lat="41.652469050" lon="2.467506000">
        <ele>276.04</ele>
        <time>2015-01-18T08:38:03Z</time>
      </trkpt>
      <trkpt lat="41.652471060" lon="2.467491080">
        <ele>276.04</ele>
        <time>2015-01-18T08:38:06Z</time>
      </trkpt>
      <trkpt lat="41.652493020" lon="2.467525620">
        <ele>276.04</ele>
        <time>2015-01-18T08:38:10Z</time>
      </trkpt>
      <trkpt lat="41.652505760" lon="2.467578420">
        <ele>276.04</ele>
        <time>2015-01-18T08:38:13Z</time>
      </trkpt>
      <trkpt lat="41.652665520" lon="2.467720750">
        <ele>276.04</ele>
        <time>2015-01-18T08:38:23Z</time>
      </trkpt>
      <trkpt lat="41.652725280" lon="2.467896180">
        <ele>276.04</ele>
        <time>2015-01-18T08:38:30Z</time>
      </trkpt>
      <trkpt lat="41.652726030" lon="2.467923590">
        <ele>276.04</ele>
        <time>2015-01-18T08:38:31Z</time>
      </trkpt>
      <trkpt lat="41.652783370" lon="2.468115200">
        <ele>277.00</ele>
        <time>2015-01-18T08:38:39Z</time>
      </trkpt>
      <trkpt lat="41.652782360" lon="2.468257520">
        <ele>278.92</ele>
        <time>2015-01-18T08:38:45Z</time>
      </trkpt>
      <trkpt lat="41.652784200" lon="2.468408730">
        <ele>280.36</ele>
        <time>2015-01-18T08:38:52Z</time>
      </trkpt>
      <trkpt lat="41.652773980" lon="2.468551730">
        <ele>281.80</ele>
        <time>2015-01-18T08:39:00Z</time>
      </trkpt>
      <trkpt lat="41.652761740" lon="2.468651470">
        <ele>283.25</ele>
        <time>2015-01-18T08:39:07Z</time>
      </trkpt>
      <trkpt lat="41.652763840" lon="2.468679390">
        <ele>283.73</ele>
        <time>2015-01-18T08:39:09Z</time>
      </trkpt>
      <trkpt lat="41.652756380" lon="2.468774520">
        <ele>284.21</ele>
        <time>2015-01-18T08:39:15Z</time>
      </trkpt>
      <trkpt lat="41.652754370" lon="2.468909130">
        <ele>285.65</ele>
        <time>2015-01-18T08:39:23Z</time>
      </trkpt>
      <trkpt lat="41.652736930" lon="2.469080040">
        <ele>287.57</ele>
        <time>2015-01-18T08:39:32Z</time>
      </trkpt>
      <trkpt lat="41.652749840" lon="2.469283130">
        <ele>289.01</ele>
        <time>2015-01-18T08:39:42Z</time>
      </trkpt>
      <trkpt lat="41.652728300" lon="2.469475420">
        <ele>290.94</ele>
        <time>2015-01-18T08:39:52Z</time>
      </trkpt>
      <trkpt lat="41.652718740" lon="2.469502820">
        <ele>290.94</ele>
        <time>2015-01-18T08:39:54Z</time>
      </trkpt>
      <trkpt lat="41.652711370" lon="2.469533920">
        <ele>291.90</ele>
        <time>2015-01-18T08:39:56Z</time>
      </trkpt>
      <trkpt lat="41.652661580" lon="2.469637520">
        <ele>293.34</ele>
        <time>2015-01-18T08:40:05Z</time>
      </trkpt>
      <trkpt lat="41.652646320" lon="2.469658640">
        <ele>293.34</ele>
        <time>2015-01-18T08:40:11Z</time>
      </trkpt>
      <trkpt lat="41.652611710" lon="2.469745230">
        <ele>293.34</ele>
        <time>2015-01-18T08:40:17Z</time>
      </trkpt>
      <trkpt lat="41.652550940" lon="2.469880930">
        <ele>295.74</ele>
        <time>2015-01-18T08:40:26Z</time>
      </trkpt>
      <trkpt lat="41.652489920" lon="2.470022500">
        <ele>298.15</ele>
        <time>2015-01-18T08:40:35Z</time>
      </trkpt>
      <trkpt lat="41.652486230" lon="2.470042030">
        <ele>298.15</ele>
        <time>2015-01-18T08:40:36Z</time>
      </trkpt>
      <trkpt lat="41.652435690" lon="2.470112780">
        <ele>299.59</ele>
        <time>2015-01-18T08:40:41Z</time>
      </trkpt>
      <trkpt lat="41.652321610" lon="2.470124680">
        <ele>299.59</ele>
        <time>2015-01-18T08:40:47Z</time>
      </trkpt>
      <trkpt lat="41.652243820" lon="2.469953850">
        <ele>299.59</ele>
        <time>2015-01-18T08:40:54Z</time>
      </trkpt>
      <trkpt lat="41.652161600" lon="2.469835920">
        <ele>300.55</ele>
        <time>2015-01-18T08:41:01Z</time>
      </trkpt>
      <trkpt lat="41.652042910" lon="2.469717570">
        <ele>301.51</ele>
        <time>2015-01-18T08:41:09Z</time>
      </trkpt>
      <trkpt lat="41.651905950" lon="2.469631490">
        <ele>302.47</ele>
        <time>2015-01-18T08:41:17Z</time>
      </trkpt>
      <trkpt lat="41.651761110" lon="2.469555970">
        <ele>304.39</ele>
        <time>2015-01-18T08:41:26Z</time>
      </trkpt>
      <trkpt lat="41.651703440" lon="2.469534510">
        <ele>305.36</ele>
        <time>2015-01-18T08:41:30Z</time>
      </trkpt>
      <trkpt lat="41.651580650" lon="2.469476920">
        <ele>307.76</ele>
        <time>2015-01-18T08:41:39Z</time>
      </trkpt>
      <trkpt lat="41.651460870" lon="2.469509700">
        <ele>310.16</ele>
        <time>2015-01-18T08:41:48Z</time>
      </trkpt>
      <trkpt lat="41.651316200" lon="2.469560070">
        <ele>311.60</ele>
        <time>2015-01-18T08:41:58Z</time>
      </trkpt>
      <trkpt lat="41.651168010" lon="2.469606930">
        <ele>312.57</ele>
        <time>2015-01-18T08:42:07Z</time>
      </trkpt>
      <trkpt lat="41.651041190" lon="2.469677500">
        <ele>313.05</ele>
        <time>2015-01-18T08:42:15Z</time>
      </trkpt>
      <trkpt lat="41.650927030" lon="2.469788730">
        <ele>313.53</ele>
        <time>2015-01-18T08:42:23Z</time>
      </trkpt>
      <trkpt lat="41.650844460" lon="2.469938260">
        <ele>315.93</ele>
        <time>2015-01-18T08:42:31Z</time>
      </trkpt>
      <trkpt lat="41.650765840" lon="2.470053430">
        <ele>316.89</ele>
        <time>2015-01-18T08:42:37Z</time>
      </trkpt>
      <trkpt lat="41.650649750" lon="2.470181090">
        <ele>317.85</ele>
        <time>2015-01-18T08:42:45Z</time>
      </trkpt>
      <trkpt lat="41.650566270" lon="2.470262480">
        <ele>319.30</ele>
        <time>2015-01-18T08:42:51Z</time>
      </trkpt>
      <trkpt lat="41.650518580" lon="2.470287450">
        <ele>321.22</ele>
        <time>2015-01-18T08:42:56Z</time>
      </trkpt>
      <trkpt lat="41.650408690" lon="2.470285860">
        <ele>323.14</ele>
        <time>2015-01-18T08:43:04Z</time>
      </trkpt>
      <trkpt lat="41.650395780" lon="2.470289300">
        <ele>323.14</ele>
        <time>2015-01-18T08:43:05Z</time>
      </trkpt>
      <trkpt lat="41.650358730" lon="2.470297090">
        <ele>324.10</ele>
        <time>2015-01-18T08:43:08Z</time>
      </trkpt>
      <trkpt lat="41.650298220" lon="2.470287370">
        <ele>325.54</ele>
        <time>2015-01-18T08:43:13Z</time>
      </trkpt>
      <trkpt lat="41.650255550" lon="2.470271610">
        <ele>325.54</ele>
        <time>2015-01-18T08:43:16Z</time>
      </trkpt>
      <trkpt lat="41.650165360" lon="2.470193660">
        <ele>326.99</ele>
        <time>2015-01-18T08:43:24Z</time>
      </trkpt>
      <trkpt lat="41.650092520" lon="2.470081430">
        <ele>329.39</ele>
        <time>2015-01-18T08:43:33Z</time>
      </trkpt>
      <trkpt lat="41.650017000" lon="2.469964670">
        <ele>329.87</ele>
        <time>2015-01-18T08:43:41Z</time>
      </trkpt>
      <trkpt lat="41.650006110" lon="2.469955610">
        <ele>330.35</ele>
        <time>2015-01-18T08:43:42Z</time>
      </trkpt>
      <trkpt lat="41.649934610" lon="2.469878080">
        <ele>332.75</ele>
        <time>2015-01-18T08:43:50Z</time>
      </trkpt>
      <trkpt lat="41.649863950" lon="2.469756630">
        <ele>334.68</ele>
        <time>2015-01-18T08:43:59Z</time>
      </trkpt>
      <trkpt lat="41.649844340" lon="2.469684540">
        <ele>335.16</ele>
        <time>2015-01-18T08:44:04Z</time>
      </trkpt>
      <trkpt lat="41.649828830" lon="2.469589330">
        <ele>335.64</ele>
        <time>2015-01-18T08:44:09Z</time>
      </trkpt>
      <trkpt lat="41.649816590" lon="2.469463090">
        <ele>336.60</ele>
        <time>2015-01-18T08:44:17Z</time>
      </trkpt>
      <trkpt lat="41.649789690" lon="2.469356560">
        <ele>338.04</ele>
        <time>2015-01-18T08:44:25Z</time>
      </trkpt>
      <trkpt lat="41.649732190" lon="2.469254380">
        <ele>339.00</ele>
        <time>2015-01-18T08:44:33Z</time>
      </trkpt>
      <trkpt lat="41.649613000" lon="2.469156900">
        <ele>340.92</ele>
        <time>2015-01-18T08:44:43Z</time>
      </trkpt>
      <trkpt lat="41.649512500" lon="2.469093450">
        <ele>341.89</ele>
        <time>2015-01-18T08:44:51Z</time>
      </trkpt>
      <trkpt lat="41.649463380" lon="2.469049030">
        <ele>342.37</ele>
        <time>2015-01-18T08:44:55Z</time>
      </trkpt>
      <trkpt lat="41.649414260" lon="2.469010390">
        <ele>342.37</ele>
        <time>2015-01-18T08:44:59Z</time>
      </trkpt>
      <trkpt lat="41.649362630" lon="2.468958000">
        <ele>343.81</ele>
        <time>2015-01-18T08:45:05Z</time>
      </trkpt>
      <trkpt lat="41.649373110" lon="2.468858590">
        <ele>344.77</ele>
        <time>2015-01-18T08:45:12Z</time>
      </trkpt>
      <trkpt lat="41.649418790" lon="2.468849710">
        <ele>345.25</ele>
        <time>2015-01-18T08:45:16Z</time>
      </trkpt>
      <trkpt lat="41.649527160" lon="2.468872000">
        <ele>346.69</ele>
        <time>2015-01-18T08:45:25Z</time>
      </trkpt>
      <trkpt lat="41.649634960" lon="2.468865210">
        <ele>348.13</ele>
        <time>2015-01-18T08:45:33Z</time>
      </trkpt>
      <trkpt lat="41.649737890" lon="2.468851470">
        <ele>351.02</ele>
        <time>2015-01-18T08:45:41Z</time>
      </trkpt>
      <trkpt lat="41.649812070" lon="2.468827330">
        <ele>352.46</ele>
        <time>2015-01-18T08:45:48Z</time>
      </trkpt>
      <trkpt lat="41.649837800" lon="2.468793630">
        <ele>352.94</ele>
        <time>2015-01-18T08:45:51Z</time>
      </trkpt>
      <trkpt lat="41.649876610" lon="2.468663960">
        <ele>354.38</ele>
        <time>2015-01-18T08:45:59Z</time>
      </trkpt>
      <trkpt lat="41.649879790" lon="2.468598840">
        <ele>355.34</ele>
        <time>2015-01-18T08:46:03Z</time>
      </trkpt>
      <trkpt lat="41.649876100" lon="2.468553490">
        <ele>356.31</ele>
        <time>2015-01-18T08:46:06Z</time>
      </trkpt>
      <trkpt lat="41.649824390" lon="2.468527170">
        <ele>357.27</ele>
        <time>2015-01-18T08:46:12Z</time>
      </trkpt>
      <trkpt lat="41.649732190" lon="2.468575790">
        <ele>357.75</ele>
        <time>2015-01-18T08:46:19Z</time>
      </trkpt>
      <trkpt lat="41.649624230" lon="2.468539490">
        <ele>357.75</ele>
        <time>2015-01-18T08:46:26Z</time>
      </trkpt>
      <trkpt lat="41.649486600" lon="2.468434050">
        <ele>358.23</ele>
        <time>2015-01-18T08:46:35Z</time>
      </trkpt>
      <trkpt lat="41.649361870" lon="2.468300610">
        <ele>358.71</ele>
        <time>2015-01-18T08:46:44Z</time>
      </trkpt>
      <trkpt lat="41.649271850" lon="2.468179410">
        <ele>359.67</ele>
        <time>2015-01-18T08:46:52Z</time>
      </trkpt>
      <trkpt lat="41.649200860" lon="2.468041100">
        <ele>360.63</ele>
        <time>2015-01-18T08:47:00Z</time>
      </trkpt>
      <trkpt lat="41.649085100" lon="2.467903220">
        <ele>362.55</ele>
        <time>2015-01-18T08:47:08Z</time>
      </trkpt>
      <trkpt lat="41.648947140" lon="2.467791660">
        <ele>363.04</ele>
        <time>2015-01-18T08:47:15Z</time>
      </trkpt>
      <trkpt lat="41.648787130" lon="2.467694680">
        <ele>363.52</ele>
        <time>2015-01-18T08:47:24Z</time>
      </trkpt>
      <trkpt lat="41.648655360" lon="2.467610190">
        <ele>364.96</ele>
        <time>2015-01-18T08:47:32Z</time>
      </trkpt>
      <trkpt lat="41.648591070" lon="2.467570630">
        <ele>366.88</ele>
        <time>2015-01-18T08:47:37Z</time>
      </trkpt>
      <trkpt lat="41.648537680" lon="2.467523520">
        <ele>367.36</ele>
        <time>2015-01-18T08:47:41Z</time>
      </trkpt>
      <trkpt lat="41.648387310" lon="2.467412960">
        <ele>368.80</ele>
        <time>2015-01-18T08:47:50Z</time>
      </trkpt>
      <trkpt lat="41.648312630" lon="2.467357980">
        <ele>369.76</ele>
        <time>2015-01-18T08:47:55Z</time>
      </trkpt>
      <trkpt lat="41.648228140" lon="2.467280190">
        <ele>370.73</ele>
        <time>2015-01-18T08:48:02Z</time>
      </trkpt>
      <trkpt lat="41.648111130" lon="2.467194450">
        <ele>371.69</ele>
        <time>2015-01-18T08:48:11Z</time>
      </trkpt>
      <trkpt lat="41.647999810" lon="2.467129240">
        <ele>374.57</ele>
        <time>2015-01-18T08:48:19Z</time>
      </trkpt>
      <trkpt lat="41.647938880" lon="2.467064360">
        <ele>375.05</ele>
        <time>2015-01-18T08:48:24Z</time>
      </trkpt>
      <trkpt lat="41.647845250" lon="2.466954390">
        <ele>376.49</ele>
        <time>2015-01-18T08:48:33Z</time>
      </trkpt>
      <trkpt lat="41.647730080" lon="2.466862690">
        <ele>377.94</ele>
        <time>2015-01-18T08:48:42Z</time>
      </trkpt>
      <trkpt lat="41.647581050" lon="2.466813160">
        <ele>379.38</ele>
        <time>2015-01-18T08:48:51Z</time>
      </trkpt>
      <trkpt lat="41.647473260" lon="2.466795550">
        <ele>380.34</ele>
        <time>2015-01-18T08:48:59Z</time>
      </trkpt>
      <trkpt lat="41.647410150" lon="2.466792950">
        <ele>381.78</ele>
        <time>2015-01-18T08:49:04Z</time>
      </trkpt>
      <trkpt lat="41.647347000" lon="2.466801050">
        <ele>382.40</ele>
        <time>2015-01-18T08:49:04Z</time>
      </trkpt>
      <trkpt lat="41.647323000" lon="2.466791050">
        <ele>383.00</ele>
        <time>2015-01-18T08:48:47Z</time>
      </trkpt>
      <trkpt lat="41.647303000" lon="2.466779050">
        <ele>383.60</ele>
        <time>2015-01-18T08:48:49Z</time>
      </trkpt>
      <trkpt lat="41.647229000" lon="2.466750050">
        <ele>384.60</ele>
        <time>2015-01-18T08:48:54Z</time>
      </trkpt>
      <trkpt lat="41.647210000" lon="2.466750050">
        <ele>384.80</ele>
        <time>2015-01-18T08:48:55Z</time>
      </trkpt>
      <trkpt lat="41.647143000" lon="2.466749050">
        <ele>385.80</ele>
        <time>2015-01-18T08:49:00Z</time>
      </trkpt>
      <trkpt lat="41.647132000" lon="2.466744050">
        <ele>386.00</ele>
        <time>2015-01-18T08:49:01Z</time>
      </trkpt>
      <trkpt lat="41.647083000" lon="2.466734050">
        <ele>386.80</ele>
        <time>2015-01-18T08:49:05Z</time>
      </trkpt>
      <trkpt lat="41.647040000" lon="2.466723050">
        <ele>387.80</ele>
        <time>2015-01-18T08:49:08Z</time>
      </trkpt>
      <trkpt lat="41.647030000" lon="2.466712050">
        <ele>388.00</ele>
        <time>2015-01-18T08:49:09Z</time>
      </trkpt>
      <trkpt lat="41.646988000" lon="2.466678050">
        <ele>389.20</ele>
        <time>2015-01-18T08:49:13Z</time>
      </trkpt>
      <trkpt lat="41.646965000" lon="2.466667050">
        <ele>390.00</ele>
        <time>2015-01-18T08:49:15Z</time>
      </trkpt>
      <trkpt lat="41.646962000" lon="2.466670050">
        <ele>390.00</ele>
        <time>2015-01-18T08:49:21Z</time>
      </trkpt>
      <trkpt lat="41.646934000" lon="2.466648050">
        <ele>390.00</ele>
        <time>2015-01-18T08:49:33Z</time>
      </trkpt>
      <trkpt lat="41.646888000" lon="2.466614050">
        <ele>390.40</ele>
        <time>2015-01-18T08:49:37Z</time>
      </trkpt>
      <trkpt lat="41.646833000" lon="2.466564050">
        <ele>390.80</ele>
        <time>2015-01-18T08:49:41Z</time>
      </trkpt>
      <trkpt lat="41.646751000" lon="2.466499050">
        <ele>391.40</ele>
        <time>2015-01-18T08:49:46Z</time>
      </trkpt>
      <trkpt lat="41.646718000" lon="2.466470050">
        <ele>391.80</ele>
        <time>2015-01-18T08:49:48Z</time>
      </trkpt>
      <trkpt lat="41.646676000" lon="2.466431050">
        <ele>392.00</ele>
        <time>2015-01-18T08:49:51Z</time>
      </trkpt>
      <trkpt lat="41.646637000" lon="2.466403050">
        <ele>392.40</ele>
        <time>2015-01-18T08:49:54Z</time>
      </trkpt>
      <trkpt lat="41.646625000" lon="2.466389050">
        <ele>392.60</ele>
        <time>2015-01-18T08:49:55Z</time>
      </trkpt>
      <trkpt lat="41.646531000" lon="2.466302050">
        <ele>393.60</ele>
        <time>2015-01-18T08:50:01Z</time>
      </trkpt>
      <trkpt lat="41.646505000" lon="2.466266050">
        <ele>393.80</ele>
        <time>2015-01-18T08:50:03Z</time>
      </trkpt>
      <trkpt lat="41.646437000" lon="2.466183050">
        <ele>394.80</ele>
        <time>2015-01-18T08:50:08Z</time>
      </trkpt>
      <trkpt lat="41.646425000" lon="2.466168050">
        <ele>395.00</ele>
        <time>2015-01-18T08:50:09Z</time>
      </trkpt>
      <trkpt lat="41.646315000" lon="2.466133050">
        <ele>395.80</ele>
        <time>2015-01-18T08:50:15Z</time>
      </trkpt>
      <trkpt lat="41.646282000" lon="2.466131050">
        <ele>395.80</ele>
        <time>2015-01-18T08:50:17Z</time>
      </trkpt>
      <trkpt lat="41.646185000" lon="2.466124050">
        <ele>396.20</ele>
        <time>2015-01-18T08:50:22Z</time>
      </trkpt>
      <trkpt lat="41.646073000" lon="2.466099050">
        <ele>397.00</ele>
        <time>2015-01-18T08:50:28Z</time>
      </trkpt>
      <trkpt lat="41.646037000" lon="2.466090050">
        <ele>397.40</ele>
        <time>2015-01-18T08:50:30Z</time>
      </trkpt>
      <trkpt lat="41.645989000" lon="2.466090050">
        <ele>398.00</ele>
        <time>2015-01-18T08:50:33Z</time>
      </trkpt>
      <trkpt lat="41.645935000" lon="2.466113050">
        <ele>398.60</ele>
        <time>2015-01-18T08:50:37Z</time>
      </trkpt>
      <trkpt lat="41.645836000" lon="2.466212050">
        <ele>398.80</ele>
        <time>2015-01-18T08:50:44Z</time>
      </trkpt>
      <trkpt lat="41.645802000" lon="2.466286050">
        <ele>399.00</ele>
        <time>2015-01-18T08:50:48Z</time>
      </trkpt>
      <trkpt lat="41.645766000" lon="2.466388050">
        <ele>399.80</ele>
        <time>2015-01-18T08:50:53Z</time>
      </trkpt>
      <trkpt lat="41.645746000" lon="2.466431050">
        <ele>400.20</ele>
        <time>2015-01-18T08:50:55Z</time>
      </trkpt>
      <trkpt lat="41.645711000" lon="2.466532050">
        <ele>400.80</ele>
        <time>2015-01-18T08:51:00Z</time>
      </trkpt>
      <trkpt lat="41.645699000" lon="2.466572050">
        <ele>401.20</ele>
        <time>2015-01-18T08:51:02Z</time>
      </trkpt>
      <trkpt lat="41.645681000" lon="2.466652050">
        <ele>402.40</ele>
        <time>2015-01-18T08:51:06Z</time>
      </trkpt>
      <trkpt lat="41.645681000" lon="2.466668050">
        <ele>402.60</ele>
        <time>2015-01-18T08:51:07Z</time>
      </trkpt>
      <trkpt lat="41.645667000" lon="2.466714050">
        <ele>403.40</ele>
        <time>2015-01-18T08:51:10Z</time>
      </trkpt>
      <trkpt lat="41.645660000" lon="2.466773050">
        <ele>404.40</ele>
        <time>2015-01-18T08:51:13Z</time>
      </trkpt>
      <trkpt lat="41.645657000" lon="2.466794050">
        <ele>405.00</ele>
        <time>2015-01-18T08:51:14Z</time>
      </trkpt>
      <trkpt lat="41.645638000" lon="2.466857050">
        <ele>406.40</ele>
        <time>2015-01-18T08:51:17Z</time>
      </trkpt>
      <trkpt lat="41.645611000" lon="2.466929050">
        <ele>407.00</ele>
        <time>2015-01-18T08:51:21Z</time>
      </trkpt>
      <trkpt lat="41.645609000" lon="2.466980050">
        <ele>407.60</ele>
        <time>2015-01-18T08:51:24Z</time>
      </trkpt>
      <trkpt lat="41.645613000" lon="2.467058050">
        <ele>408.40</ele>
        <time>2015-01-18T08:51:28Z</time>
      </trkpt>
      <trkpt lat="41.645622000" lon="2.467077050">
        <ele>408.60</ele>
        <time>2015-01-18T08:51:29Z</time>
      </trkpt>
      <trkpt lat="41.645650000" lon="2.467150050">
        <ele>409.80</ele>
        <time>2015-01-18T08:51:33Z</time>
      </trkpt>
      <trkpt lat="41.645661000" lon="2.467182050">
        <ele>410.20</ele>
        <time>2015-01-18T08:51:35Z</time>
      </trkpt>
      <trkpt lat="41.645686000" lon="2.467228050">
        <ele>411.20</ele>
        <time>2015-01-18T08:51:38Z</time>
      </trkpt>
      <trkpt lat="41.645728000" lon="2.467292050">
        <ele>412.20</ele>
        <time>2015-01-18T08:51:42Z</time>
      </trkpt>
      <trkpt lat="41.645738000" lon="2.467312050">
        <ele>412.40</ele>
        <time>2015-01-18T08:51:43Z</time>
      </trkpt>
      <trkpt lat="41.645753000" lon="2.467365050">
        <ele>413.80</ele>
        <time>2015-01-18T08:51:46Z</time>
      </trkpt>
      <trkpt lat="41.645764000" lon="2.467439050">
        <ele>414.40</ele>
        <time>2015-01-18T08:51:50Z</time>
      </trkpt>
      <trkpt lat="41.645780000" lon="2.467500050">
        <ele>414.80</ele>
        <time>2015-01-18T08:51:53Z</time>
      </trkpt>
      <trkpt lat="41.645774000" lon="2.467595050">
        <ele>415.80</ele>
        <time>2015-01-18T08:51:58Z</time>
      </trkpt>
      <trkpt lat="41.645771000" lon="2.467614050">
        <ele>416.00</ele>
        <time>2015-01-18T08:51:59Z</time>
      </trkpt>
      <trkpt lat="41.645765000" lon="2.467686050">
        <ele>417.00</ele>
        <time>2015-01-18T08:52:03Z</time>
      </trkpt>
      <trkpt lat="41.645749000" lon="2.467737050">
        <ele>417.60</ele>
        <time>2015-01-18T08:52:06Z</time>
      </trkpt>
      <trkpt lat="41.645735000" lon="2.467767050">
        <ele>418.20</ele>
        <time>2015-01-18T08:52:08Z</time>
      </trkpt>
      <trkpt lat="41.645701000" lon="2.467856050">
        <ele>418.60</ele>
        <time>2015-01-18T08:52:13Z</time>
      </trkpt>
      <trkpt lat="41.645679000" lon="2.467926050">
        <ele>419.20</ele>
        <time>2015-01-18T08:52:17Z</time>
      </trkpt>
      <trkpt lat="41.645653000" lon="2.467981050">
        <ele>419.80</ele>
        <time>2015-01-18T08:52:21Z</time>
      </trkpt>
      <trkpt lat="41.645635000" lon="2.467998050">
        <ele>420.40</ele>
        <time>2015-01-18T08:52:23Z</time>
      </trkpt>
      <trkpt lat="41.645609000" lon="2.468077050">
        <ele>421.00</ele>
        <time>2015-01-18T08:52:28Z</time>
      </trkpt>
      <trkpt lat="41.645597000" lon="2.468124050">
        <ele>421.40</ele>
        <time>2015-01-18T08:52:31Z</time>
      </trkpt>
      <trkpt lat="41.645588000" lon="2.468180050">
        <ele>421.80</ele>
        <time>2015-01-18T08:52:35Z</time>
      </trkpt>
      <trkpt lat="41.645581000" lon="2.468245050">
        <ele>422.60</ele>
        <time>2015-01-18T08:52:39Z</time>
      </trkpt>
      <trkpt lat="41.645572000" lon="2.468305050">
        <ele>423.20</ele>
        <time>2015-01-18T08:52:43Z</time>
      </trkpt>
      <trkpt lat="41.645561000" lon="2.468371050">
        <ele>423.80</ele>
        <time>2015-01-18T08:52:47Z</time>
      </trkpt>
      <trkpt lat="41.645548000" lon="2.468420050">
        <ele>424.20</ele>
        <time>2015-01-18T08:52:50Z</time>
      </trkpt>
      <trkpt lat="41.645532000" lon="2.468463050">
        <ele>424.80</ele>
        <time>2015-01-18T08:52:53Z</time>
      </trkpt>
      <trkpt lat="41.645512000" lon="2.468532050">
        <ele>425.60</ele>
        <time>2015-01-18T08:52:58Z</time>
      </trkpt>
      <trkpt lat="41.645493000" lon="2.468570050">
        <ele>426.00</ele>
        <time>2015-01-18T08:53:01Z</time>
      </trkpt>
      <trkpt lat="41.645453000" lon="2.468655050">
        <ele>426.40</ele>
        <time>2015-01-18T08:53:06Z</time>
      </trkpt>
      <trkpt lat="41.645423000" lon="2.468697050">
        <ele>427.00</ele>
        <time>2015-01-18T08:53:09Z</time>
      </trkpt>
      <trkpt lat="41.645376000" lon="2.468783050">
        <ele>428.00</ele>
        <time>2015-01-18T08:53:14Z</time>
      </trkpt>
      <trkpt lat="41.645300000" lon="2.468941050">
        <ele>429.00</ele>
        <time>2015-01-18T08:53:22Z</time>
      </trkpt>
      <trkpt lat="41.645240000" lon="2.469074050">
        <ele>429.40</ele>
        <time>2015-01-18T08:53:29Z</time>
      </trkpt>
      <trkpt lat="41.645200000" lon="2.469126050">
        <ele>430.20</ele>
        <time>2015-01-18T08:53:33Z</time>
      </trkpt>
      <trkpt lat="41.645156000" lon="2.469187050">
        <ele>431.20</ele>
        <time>2015-01-18T08:53:37Z</time>
      </trkpt>
      <trkpt lat="41.645145000" lon="2.469196050">
        <ele>431.60</ele>
        <time>2015-01-18T08:53:38Z</time>
      </trkpt>
      <trkpt lat="41.645115000" lon="2.469229050">
        <ele>432.20</ele>
        <time>2015-01-18T08:53:41Z</time>
      </trkpt>
      <trkpt lat="41.645073000" lon="2.469298050">
        <ele>433.40</ele>
        <time>2015-01-18T08:53:46Z</time>
      </trkpt>
      <trkpt lat="41.645008000" lon="2.469461050">
        <ele>434.20</ele>
        <time>2015-01-18T08:53:54Z</time>
      </trkpt>
      <trkpt lat="41.644991000" lon="2.469532050">
        <ele>434.40</ele>
        <time>2015-01-18T08:53:57Z</time>
      </trkpt>
      <trkpt lat="41.644985000" lon="2.469594050">
        <ele>434.80</ele>
        <time>2015-01-18T08:54:00Z</time>
      </trkpt>
      <trkpt lat="41.644973000" lon="2.469687050">
        <ele>435.60</ele>
        <time>2015-01-18T08:54:04Z</time>
      </trkpt>
      <trkpt lat="41.644963000" lon="2.469757050">
        <ele>435.80</ele>
        <time>2015-01-18T08:54:07Z</time>
      </trkpt>
      <trkpt lat="41.644946000" lon="2.469891050">
        <ele>436.60</ele>
        <time>2015-01-18T08:54:12Z</time>
      </trkpt>
      <trkpt lat="41.644942000" lon="2.469912050">
        <ele>436.80</ele>
        <time>2015-01-18T08:54:13Z</time>
      </trkpt>
      <trkpt lat="41.644910000" lon="2.470111050">
        <ele>437.60</ele>
        <time>2015-01-18T08:54:21Z</time>
      </trkpt>
      <trkpt lat="41.644886000" lon="2.470226050">
        <ele>438.60</ele>
        <time>2015-01-18T08:54:26Z</time>
      </trkpt>
      <trkpt lat="41.644860000" lon="2.470307050">
        <ele>439.60</ele>
        <time>2015-01-18T08:54:30Z</time>
      </trkpt>
      <trkpt lat="41.644857000" lon="2.470325050">
        <ele>439.80</ele>
        <time>2015-01-18T08:54:31Z</time>
      </trkpt>
      <trkpt lat="41.644846000" lon="2.470414050">
        <ele>440.80</ele>
        <time>2015-01-18T08:54:35Z</time>
      </trkpt>
      <trkpt lat="41.644835000" lon="2.470453050">
        <ele>441.20</ele>
        <time>2015-01-18T08:54:37Z</time>
      </trkpt>
      <trkpt lat="41.644762000" lon="2.470627050">
        <ele>441.60</ele>
        <time>2015-01-18T08:54:43Z</time>
      </trkpt>
      <trkpt lat="41.644677000" lon="2.470862050">
        <ele>441.60</ele>
        <time>2015-01-18T08:54:50Z</time>
      </trkpt>
      <trkpt lat="41.644744000" lon="2.470964050">
        <ele>441.60</ele>
        <time>2015-01-18T08:54:54Z</time>
      </trkpt>
      <trkpt lat="41.644784000" lon="2.471020050">
        <ele>442.00</ele>
        <time>2015-01-18T08:54:57Z</time>
      </trkpt>
      <trkpt lat="41.644803000" lon="2.471045050">
        <ele>442.60</ele>
        <time>2015-01-18T08:54:59Z</time>
      </trkpt>
      <trkpt lat="41.644817000" lon="2.471095050">
        <ele>443.20</ele>
        <time>2015-01-18T08:55:02Z</time>
      </trkpt>
      <trkpt lat="41.644828000" lon="2.471175050">
        <ele>444.40</ele>
        <time>2015-01-18T08:55:07Z</time>
      </trkpt>
      <trkpt lat="41.644826000" lon="2.471190050">
        <ele>444.60</ele>
        <time>2015-01-18T08:55:08Z</time>
      </trkpt>
      <trkpt lat="41.644807000" lon="2.471246050">
        <ele>444.80</ele>
        <time>2015-01-18T08:55:12Z</time>
      </trkpt>
      <trkpt lat="41.644806000" lon="2.471257050">
        <ele>445.00</ele>
        <time>2015-01-18T08:55:13Z</time>
      </trkpt>
      <trkpt lat="41.644806000" lon="2.471256050">
        <ele>444.80</ele>
        <time>2015-01-18T08:55:18Z</time>
      </trkpt>
      <trkpt lat="41.644806000" lon="2.471256050">
        <ele>445.00</ele>
        <time>2015-01-18T08:55:30Z</time>
      </trkpt>
      <trkpt lat="41.644806000" lon="2.471256050">
        <ele>445.00</ele>
        <time>2015-01-18T08:55:46Z</time>
      </trkpt>
      <trkpt lat="41.644804000" lon="2.471303050">
        <ele>444.80</ele>
        <time>2015-01-18T08:55:57Z</time>
      </trkpt>
      <trkpt lat="41.644774000" lon="2.471524050">
        <ele>444.40</ele>
        <time>2015-01-18T08:56:03Z</time>
      </trkpt>
      <trkpt lat="41.644770000" lon="2.471739050">
        <ele>444.20</ele>
        <time>2015-01-18T08:56:09Z</time>
      </trkpt>
      <trkpt lat="41.644852000" lon="2.472017050">
        <ele>444.60</ele>
        <time>2015-01-18T08:56:17Z</time>
      </trkpt>
      <trkpt lat="41.644896000" lon="2.472263050">
        <ele>445.00</ele>
        <time>2015-01-18T08:56:24Z</time>
      </trkpt>
      <trkpt lat="41.644896000" lon="2.472360050">
        <ele>445.40</ele>
        <time>2015-01-18T08:56:27Z</time>
      </trkpt>
      <trkpt lat="41.644904000" lon="2.472476050">
        <ele>445.60</ele>
        <time>2015-01-18T08:56:30Z</time>
      </trkpt>
      <trkpt lat="41.644937000" lon="2.472901050">
        <ele>444.80</ele>
        <time>2015-01-18T08:56:39Z</time>
      </trkpt>
      <trkpt lat="41.644914000" lon="2.473182050">
        <ele>445.00</ele>
        <time>2015-01-18T08:56:46Z</time>
      </trkpt>
      <trkpt lat="41.644836000" lon="2.473396050">
        <ele>445.20</ele>
        <time>2015-01-18T08:56:53Z</time>
      </trkpt>
      <trkpt lat="41.644787000" lon="2.473417050">
        <ele>445.40</ele>
        <time>2015-01-18T08:56:55Z</time>
      </trkpt>
      <trkpt lat="41.644718000" lon="2.473421050">
        <ele>445.20</ele>
        <time>2015-01-18T08:56:57Z</time>
      </trkpt>
      <trkpt lat="41.644493000" lon="2.473399050">
        <ele>444.60</ele>
        <time>2015-01-18T08:57:03Z</time>
      </trkpt>
      <trkpt lat="41.644330000" lon="2.473416050">
        <ele>444.60</ele>
        <time>2015-01-18T08:57:08Z</time>
      </trkpt>
      <trkpt lat="41.644215000" lon="2.473528050">
        <ele>445.00</ele>
        <time>2015-01-18T08:57:13Z</time>
      </trkpt>
      <trkpt lat="41.644071000" lon="2.473625050">
        <ele>446.00</ele>
        <time>2015-01-18T08:57:19Z</time>
      </trkpt>
      <trkpt lat="41.643901000" lon="2.473832050">
        <ele>446.00</ele>
        <time>2015-01-18T08:57:26Z</time>
      </trkpt>
      <trkpt lat="41.643726000" lon="2.473939050">
        <ele>445.60</ele>
        <time>2015-01-18T08:57:33Z</time>
      </trkpt>
      <trkpt lat="41.643606000" lon="2.473963050">
        <ele>446.80</ele>
        <time>2015-01-18T08:57:38Z</time>
      </trkpt>
      <trkpt lat="41.643572000" lon="2.474009050">
        <ele>447.00</ele>
        <time>2015-01-18T08:57:40Z</time>
      </trkpt>
      <trkpt lat="41.643581000" lon="2.474165050">
        <ele>447.00</ele>
        <time>2015-01-18T08:57:44Z</time>
      </trkpt>
      <trkpt lat="41.643657000" lon="2.474392050">
        <ele>446.40</ele>
        <time>2015-01-18T08:57:49Z</time>
      </trkpt>
      <trkpt lat="41.643684000" lon="2.474613050">
        <ele>446.40</ele>
        <time>2015-01-18T08:57:55Z</time>
      </trkpt>
      <trkpt lat="41.643633000" lon="2.474746050">
        <ele>447.40</ele>
        <time>2015-01-18T08:58:00Z</time>
      </trkpt>
      <trkpt lat="41.643608000" lon="2.474790050">
        <ele>448.00</ele>
        <time>2015-01-18T08:58:02Z</time>
      </trkpt>
      <trkpt lat="41.643558000" lon="2.474847050">
        <ele>449.00</ele>
        <time>2015-01-18T08:58:06Z</time>
      </trkpt>
      <trkpt lat="41.643491000" lon="2.474896050">
        <ele>450.00</ele>
        <time>2015-01-18T08:58:10Z</time>
      </trkpt>
      <trkpt lat="41.643442000" lon="2.474921050">
        <ele>451.00</ele>
        <time>2015-01-18T08:58:13Z</time>
      </trkpt>
      <trkpt lat="41.643384000" lon="2.474931050">
        <ele>452.20</ele>
        <time>2015-01-18T08:58:17Z</time>
      </trkpt>
      <trkpt lat="41.643357000" lon="2.474945050">
        <ele>452.80</ele>
        <time>2015-01-18T08:58:19Z</time>
      </trkpt>
      <trkpt lat="41.643333000" lon="2.474962050">
        <ele>453.40</ele>
        <time>2015-01-18T08:58:21Z</time>
      </trkpt>
      <trkpt lat="41.643289000" lon="2.475006050">
        <ele>453.80</ele>
        <time>2015-01-18T08:58:24Z</time>
      </trkpt>
      <trkpt lat="41.643273000" lon="2.475028050">
        <ele>454.40</ele>
        <time>2015-01-18T08:58:26Z</time>
      </trkpt>
      <trkpt lat="41.643226000" lon="2.475078050">
        <ele>455.40</ele>
        <time>2015-01-18T08:58:30Z</time>
      </trkpt>
      <trkpt lat="41.643204000" lon="2.475109050">
        <ele>455.80</ele>
        <time>2015-01-18T08:58:32Z</time>
      </trkpt>
      <trkpt lat="41.643177000" lon="2.475160050">
        <ele>456.60</ele>
        <time>2015-01-18T08:58:35Z</time>
      </trkpt>
      <trkpt lat="41.643141000" lon="2.475227050">
        <ele>456.80</ele>
        <time>2015-01-18T08:58:39Z</time>
      </trkpt>
      <trkpt lat="41.643046000" lon="2.475377050">
        <ele>457.20</ele>
        <time>2015-01-18T08:58:46Z</time>
      </trkpt>
      <trkpt lat="41.643011000" lon="2.475431050">
        <ele>457.60</ele>
        <time>2015-01-18T08:58:49Z</time>
      </trkpt>
      <trkpt lat="41.642963000" lon="2.475527050">
        <ele>458.20</ele>
        <time>2015-01-18T08:58:54Z</time>
      </trkpt>
      <trkpt lat="41.642937000" lon="2.475598050">
        <ele>458.60</ele>
        <time>2015-01-18T08:58:57Z</time>
      </trkpt>
      <trkpt lat="41.642913000" lon="2.475726050">
        <ele>459.20</ele>
        <time>2015-01-18T08:59:02Z</time>
      </trkpt>
      <trkpt lat="41.642904000" lon="2.475852050">
        <ele>459.60</ele>
        <time>2015-01-18T08:59:07Z</time>
      </trkpt>
      <trkpt lat="41.642898000" lon="2.475946050">
        <ele>460.00</ele>
        <time>2015-01-18T08:59:11Z</time>
      </trkpt>
      <trkpt lat="41.642869000" lon="2.476037050">
        <ele>460.80</ele>
        <time>2015-01-18T08:59:15Z</time>
      </trkpt>
      <trkpt lat="41.642839000" lon="2.476088050">
        <ele>461.20</ele>
        <time>2015-01-18T08:59:18Z</time>
      </trkpt>
      <trkpt lat="41.642799000" lon="2.476128050">
        <ele>462.00</ele>
        <time>2015-01-18T08:59:21Z</time>
      </trkpt>
      <trkpt lat="41.642764000" lon="2.476200050">
        <ele>463.00</ele>
        <time>2015-01-18T08:59:25Z</time>
      </trkpt>
      <trkpt lat="41.642754000" lon="2.476221050">
        <ele>463.00</ele>
        <time>2015-01-18T08:59:26Z</time>
      </trkpt>
      <trkpt lat="41.642718000" lon="2.476323050">
        <ele>464.20</ele>
        <time>2015-01-18T08:59:32Z</time>
      </trkpt>
      <trkpt lat="41.642690000" lon="2.476443050">
        <ele>465.40</ele>
        <time>2015-01-18T08:59:38Z</time>
      </trkpt>
      <trkpt lat="41.642681000" lon="2.476460050">
        <ele>465.80</ele>
        <time>2015-01-18T08:59:39Z</time>
      </trkpt>
      <trkpt lat="41.642651000" lon="2.476542050">
        <ele>466.60</ele>
        <time>2015-01-18T08:59:43Z</time>
      </trkpt>
      <trkpt lat="41.642641000" lon="2.476585050">
        <ele>467.00</ele>
        <time>2015-01-18T08:59:45Z</time>
      </trkpt>
      <trkpt lat="41.642635000" lon="2.476603050">
        <ele>467.20</ele>
        <time>2015-01-18T08:59:46Z</time>
      </trkpt>
      <trkpt lat="41.642600000" lon="2.476679050">
        <ele>467.80</ele>
        <time>2015-01-18T08:59:50Z</time>
      </trkpt>
      <trkpt lat="41.642575000" lon="2.476727050">
        <ele>468.20</ele>
        <time>2015-01-18T08:59:53Z</time>
      </trkpt>
      <trkpt lat="41.642547000" lon="2.476777050">
        <ele>468.80</ele>
        <time>2015-01-18T08:59:56Z</time>
      </trkpt>
      <trkpt lat="41.642506000" lon="2.476862050">
        <ele>469.40</ele>
        <time>2015-01-18T09:00:00Z</time>
      </trkpt>
      <trkpt lat="41.642479000" lon="2.476909050">
        <ele>469.80</ele>
        <time>2015-01-18T09:00:02Z</time>
      </trkpt>
      <trkpt lat="41.642409000" lon="2.477052050">
        <ele>469.80</ele>
        <time>2015-01-18T09:00:07Z</time>
      </trkpt>
      <trkpt lat="41.642299000" lon="2.477274050">
        <ele>470.60</ele>
        <time>2015-01-18T09:00:15Z</time>
      </trkpt>
      <trkpt lat="41.642227000" lon="2.477385050">
        <ele>471.00</ele>
        <time>2015-01-18T09:00:21Z</time>
      </trkpt>
      <trkpt lat="41.642200000" lon="2.477417050">
        <ele>471.20</ele>
        <time>2015-01-18T09:00:23Z</time>
      </trkpt>
      <trkpt lat="41.642159000" lon="2.477464050">
        <ele>472.00</ele>
        <time>2015-01-18T09:00:26Z</time>
      </trkpt>
      <trkpt lat="41.642113000" lon="2.477500050">
        <ele>472.80</ele>
        <time>2015-01-18T09:00:29Z</time>
      </trkpt>
      <trkpt lat="41.642085000" lon="2.477521050">
        <ele>473.00</ele>
        <time>2015-01-18T09:00:31Z</time>
      </trkpt>
      <trkpt lat="41.641995000" lon="2.477560050">
        <ele>474.00</ele>
        <time>2015-01-18T09:00:37Z</time>
      </trkpt>
      <trkpt lat="41.641942000" lon="2.477590050">
        <ele>475.20</ele>
        <time>2015-01-18T09:00:41Z</time>
      </trkpt>
      <trkpt lat="41.641883000" lon="2.477621050">
        <ele>476.40</ele>
        <time>2015-01-18T09:00:45Z</time>
      </trkpt>
      <trkpt lat="41.641870000" lon="2.477636050">
        <ele>476.60</ele>
        <time>2015-01-18T09:00:46Z</time>
      </trkpt>
      <trkpt lat="41.641839000" lon="2.477699050">
        <ele>477.40</ele>
        <time>2015-01-18T09:00:50Z</time>
      </trkpt>
      <trkpt lat="41.641816000" lon="2.477748050">
        <ele>478.20</ele>
        <time>2015-01-18T09:00:53Z</time>
      </trkpt>
      <trkpt lat="41.641806000" lon="2.477782050">
        <ele>478.60</ele>
        <time>2015-01-18T09:00:55Z</time>
      </trkpt>
      <trkpt lat="41.641770000" lon="2.477857050">
        <ele>479.40</ele>
        <time>2015-01-18T09:00:59Z</time>
      </trkpt>
      <trkpt lat="41.641752000" lon="2.477886050">
        <ele>479.80</ele>
        <time>2015-01-18T09:01:01Z</time>
      </trkpt>
      <trkpt lat="41.641692000" lon="2.477952050">
        <ele>480.80</ele>
        <time>2015-01-18T09:01:06Z</time>
      </trkpt>
      <trkpt lat="41.641679000" lon="2.477961050">
        <ele>481.00</ele>
        <time>2015-01-18T09:01:07Z</time>
      </trkpt>
      <trkpt lat="41.641632000" lon="2.477998050">
        <ele>481.80</ele>
        <time>2015-01-18T09:01:11Z</time>
      </trkpt>
      <trkpt lat="41.641598000" lon="2.478026050">
        <ele>482.80</ele>
        <time>2015-01-18T09:01:14Z</time>
      </trkpt>
      <trkpt lat="41.641584000" lon="2.478036050">
        <ele>483.00</ele>
        <time>2015-01-18T09:01:15Z</time>
      </trkpt>
      <trkpt lat="41.641505000" lon="2.478101050">
        <ele>484.00</ele>
        <time>2015-01-18T09:01:21Z</time>
      </trkpt>
      <trkpt lat="41.641492000" lon="2.478115050">
        <ele>484.20</ele>
        <time>2015-01-18T09:01:22Z</time>
      </trkpt>
      <trkpt lat="41.641382000" lon="2.478271050">
        <ele>484.60</ele>
        <time>2015-01-18T09:01:29Z</time>
      </trkpt>
      <trkpt lat="41.641340000" lon="2.478328050">
        <ele>484.40</ele>
        <time>2015-01-18T09:01:32Z</time>
      </trkpt>
      <trkpt lat="41.641302250" lon="2.478410100">
        <ele>478.87</ele>
        <time>2015-01-18T09:04:16Z</time>
      </trkpt>
      <trkpt lat="41.641305690" lon="2.478558970">
        <ele>477.91</ele>
        <time>2015-01-18T09:04:23Z</time>
      </trkpt>
      <trkpt lat="41.641326230" lon="2.478603730">
        <ele>477.91</ele>
        <time>2015-01-18T09:04:25Z</time>
      </trkpt>
      <trkpt lat="41.641306610" lon="2.478761560">
        <ele>476.47</ele>
        <time>2015-01-18T09:04:30Z</time>
      </trkpt>
      <trkpt lat="41.641102930" lon="2.479029860">
        <ele>473.11</ele>
        <time>2015-01-18T09:04:36Z</time>
      </trkpt>
      <trkpt lat="41.640930430" lon="2.479183920">
        <ele>471.66</ele>
        <time>2015-01-18T09:04:39Z</time>
      </trkpt>
      <trkpt lat="41.640895310" lon="2.479261710">
        <ele>471.18</ele>
        <time>2015-01-18T09:04:40Z</time>
      </trkpt>
      <trkpt lat="41.640635310" lon="2.479688930">
        <ele>469.74</ele>
        <time>2015-01-18T09:04:47Z</time>
      </trkpt>
      <trkpt lat="41.640536230" lon="2.479910720">
        <ele>469.26</ele>
        <time>2015-01-18T09:04:51Z</time>
      </trkpt>
      <trkpt lat="41.640497010" lon="2.480220930">
        <ele>469.26</ele>
        <time>2015-01-18T09:04:58Z</time>
      </trkpt>
      <trkpt lat="41.640450650" lon="2.480433660">
        <ele>470.70</ele>
        <time>2015-01-18T09:05:05Z</time>
      </trkpt>
      <trkpt lat="41.640361130" lon="2.480568530">
        <ele>472.14</ele>
        <time>2015-01-18T09:05:12Z</time>
      </trkpt>
      <trkpt lat="41.640248480" lon="2.480744550">
        <ele>473.11</ele>
        <time>2015-01-18T09:05:19Z</time>
      </trkpt>
      <trkpt lat="41.640168270" lon="2.480906740">
        <ele>473.11</ele>
        <time>2015-01-18T09:05:23Z</time>
      </trkpt>
      <trkpt lat="41.640084200" lon="2.481038250">
        <ele>471.66</ele>
        <time>2015-01-18T09:05:26Z</time>
      </trkpt>
      <trkpt lat="41.640003060" lon="2.481229610">
        <ele>470.70</ele>
        <time>2015-01-18T09:05:29Z</time>
      </trkpt>
      <trkpt lat="41.639972300" lon="2.481481400">
        <ele>469.26</ele>
        <time>2015-01-18T09:05:32Z</time>
      </trkpt>
      <trkpt lat="41.639979840" lon="2.481572760">
        <ele>469.26</ele>
        <time>2015-01-18T09:05:33Z</time>
      </trkpt>
      <trkpt lat="41.639881190" lon="2.482032430">
        <ele>468.30</ele>
        <time>2015-01-18T09:05:39Z</time>
      </trkpt>
      <trkpt lat="41.639819500" lon="2.482133930">
        <ele>467.34</ele>
        <time>2015-01-18T09:05:41Z</time>
      </trkpt>
      <trkpt lat="41.639566190" lon="2.482462000">
        <ele>466.38</ele>
        <time>2015-01-18T09:05:49Z</time>
      </trkpt>
      <trkpt lat="41.639369470" lon="2.482599130">
        <ele>465.90</ele>
        <time>2015-01-18T09:05:55Z</time>
      </trkpt>
      <trkpt lat="41.639177860" lon="2.482652350">
        <ele>465.90</ele>
        <time>2015-01-18T09:06:02Z</time>
      </trkpt>
      <trkpt lat="41.639066470" lon="2.482696270">
        <ele>467.34</ele>
        <time>2015-01-18T09:06:07Z</time>
      </trkpt>
      <trkpt lat="41.638951550" lon="2.482621510">
        <ele>468.78</ele>
        <time>2015-01-18T09:06:14Z</time>
      </trkpt>
      <trkpt lat="41.638880300" lon="2.482454620">
        <ele>470.22</ele>
        <time>2015-01-18T09:06:22Z</time>
      </trkpt>
      <trkpt lat="41.638828080" lon="2.482316990">
        <ele>471.66</ele>
        <time>2015-01-18T09:06:29Z</time>
      </trkpt>
      <trkpt lat="41.638763120" lon="2.482239880">
        <ele>472.63</ele>
        <time>2015-01-18T09:06:35Z</time>
      </trkpt>
      <trkpt lat="41.638629520" lon="2.482229570">
        <ele>474.55</ele>
        <time>2015-01-18T09:06:44Z</time>
      </trkpt>
      <trkpt lat="41.638523070" lon="2.482303000">
        <ele>476.47</ele>
        <time>2015-01-18T09:06:53Z</time>
      </trkpt>
      <trkpt lat="41.638438660" lon="2.482404750">
        <ele>478.39</ele>
        <time>2015-01-18T09:07:01Z</time>
      </trkpt>
      <trkpt lat="41.638397840" lon="2.482470210">
        <ele>478.87</ele>
        <time>2015-01-18T09:07:05Z</time>
      </trkpt>
      <trkpt lat="41.638350060" lon="2.482527130">
        <ele>479.35</ele>
        <time>2015-01-18T09:07:09Z</time>
      </trkpt>
      <trkpt lat="41.638283510" lon="2.482603240">
        <ele>479.84</ele>
        <time>2015-01-18T09:07:15Z</time>
      </trkpt>
      <trkpt lat="41.638194080" lon="2.482703990">
        <ele>481.28</ele>
        <time>2015-01-18T09:07:23Z</time>
      </trkpt>
      <trkpt lat="41.638084190" lon="2.482844630">
        <ele>483.68</ele>
        <time>2015-01-18T09:07:34Z</time>
      </trkpt>
      <trkpt lat="41.638030630" lon="2.482975060">
        <ele>485.12</ele>
        <time>2015-01-18T09:07:42Z</time>
      </trkpt>
      <trkpt lat="41.638020570" lon="2.483096260">
        <ele>486.56</ele>
        <time>2015-01-18T09:07:50Z</time>
      </trkpt>
      <trkpt lat="41.638012690" lon="2.483229110">
        <ele>488.49</ele>
        <time>2015-01-18T09:07:59Z</time>
      </trkpt>
      <trkpt lat="41.638013780" lon="2.483255430">
        <ele>488.97</ele>
        <time>2015-01-18T09:08:01Z</time>
      </trkpt>
      <trkpt lat="41.638013030" lon="2.483460960">
        <ele>491.37</ele>
        <time>2015-01-18T09:08:13Z</time>
      </trkpt>
      <trkpt lat="41.638016970" lon="2.483525410">
        <ele>491.85</ele>
        <time>2015-01-18T09:08:17Z</time>
      </trkpt>
      <trkpt lat="41.638027780" lon="2.483590370">
        <ele>492.33</ele>
        <time>2015-01-18T09:08:21Z</time>
      </trkpt>
      <trkpt lat="41.638022420" lon="2.483664970">
        <ele>492.81</ele>
        <time>2015-01-18T09:08:25Z</time>
      </trkpt>
      <trkpt lat="41.638016460" lon="2.483848200">
        <ele>494.74</ele>
        <time>2015-01-18T09:08:34Z</time>
      </trkpt>
      <trkpt lat="41.637968020" lon="2.484019440">
        <ele>494.74</ele>
        <time>2015-01-18T09:08:42Z</time>
      </trkpt>
      <trkpt lat="41.637899290" lon="2.484165370">
        <ele>495.70</ele>
        <time>2015-01-18T09:08:50Z</time>
      </trkpt>
      <trkpt lat="41.637870540" lon="2.484324380">
        <ele>496.66</ele>
        <time>2015-01-18T09:08:58Z</time>
      </trkpt>
      <trkpt lat="41.637859640" lon="2.484497710">
        <ele>497.62</ele>
        <time>2015-01-18T09:09:06Z</time>
      </trkpt>
      <trkpt lat="41.637833400" lon="2.484699800">
        <ele>500.02</ele>
        <time>2015-01-18T09:09:16Z</time>
      </trkpt>
      <trkpt lat="41.637779510" lon="2.484800550">
        <ele>500.50</ele>
        <time>2015-01-18T09:09:23Z</time>
      </trkpt>
      <trkpt lat="41.637727790" lon="2.484994680">
        <ele>501.95</ele>
        <time>2015-01-18T09:09:34Z</time>
      </trkpt>
      <trkpt lat="41.637744980" lon="2.485201630">
        <ele>502.43</ele>
        <time>2015-01-18T09:09:43Z</time>
      </trkpt>
      <trkpt lat="41.637789570" lon="2.485493740">
        <ele>502.91</ele>
        <time>2015-01-18T09:09:51Z</time>
      </trkpt>
      <trkpt lat="41.637745650" lon="2.485876790">
        <ele>502.91</ele>
        <time>2015-01-18T09:09:58Z</time>
      </trkpt>
      <trkpt lat="41.637741960" lon="2.485934540">
        <ele>501.46</ele>
        <time>2015-01-18T09:09:59Z</time>
      </trkpt>
      <trkpt lat="41.637722260" lon="2.486361350">
        <ele>500.98</ele>
        <time>2015-01-18T09:10:06Z</time>
      </trkpt>
      <trkpt lat="41.637735080" lon="2.486605010">
        <ele>501.46</ele>
        <time>2015-01-18T09:10:10Z</time>
      </trkpt>
      <trkpt lat="41.637767860" lon="2.486821260">
        <ele>501.46</ele>
        <time>2015-01-18T09:10:14Z</time>
      </trkpt>
      <trkpt lat="41.637665510" lon="2.487099710">
        <ele>501.46</ele>
        <time>2015-01-18T09:10:20Z</time>
      </trkpt>
      <trkpt lat="41.637569960" lon="2.487145310">
        <ele>501.46</ele>
        <time>2015-01-18T09:10:23Z</time>
      </trkpt>
      <trkpt lat="41.637352700" lon="2.487128370">
        <ele>502.91</ele>
        <time>2015-01-18T09:10:31Z</time>
      </trkpt>
      <trkpt lat="41.637198470" lon="2.487130050">
        <ele>503.87</ele>
        <time>2015-01-18T09:10:37Z</time>
      </trkpt>
      <trkpt lat="41.637044670" lon="2.487199280">
        <ele>503.87</ele>
        <time>2015-01-18T09:10:42Z</time>
      </trkpt>
      <trkpt lat="41.636743170" lon="2.487214880">
        <ele>503.87</ele>
        <time>2015-01-18T09:10:49Z</time>
      </trkpt>
      <trkpt lat="41.636555330" lon="2.487164420">
        <ele>503.87</ele>
        <time>2015-01-18T09:10:55Z</time>
      </trkpt>
      <trkpt lat="41.636269680" lon="2.487101050">
        <ele>504.35</ele>
        <time>2015-01-18T09:11:05Z</time>
      </trkpt>
      <trkpt lat="41.636009840" lon="2.487050170">
        <ele>504.83</ele>
        <time>2015-01-18T09:11:14Z</time>
      </trkpt>
      <trkpt lat="41.635745220" lon="2.486940540">
        <ele>505.31</ele>
        <time>2015-01-18T09:11:24Z</time>
      </trkpt>
      <trkpt lat="41.635659220" lon="2.486864180">
        <ele>505.79</ele>
        <time>2015-01-18T09:11:28Z</time>
      </trkpt>
      <trkpt lat="41.635543470" lon="2.486920000">
        <ele>505.79</ele>
        <time>2015-01-18T09:11:35Z</time>
      </trkpt>
      <trkpt lat="41.635523180" lon="2.486931990">
        <ele>505.79</ele>
        <time>2015-01-18T09:11:37Z</time>
      </trkpt>
      <trkpt lat="41.635457720" lon="2.486996110">
        <ele>505.79</ele>
        <time>2015-01-18T09:11:42Z</time>
      </trkpt>
      <trkpt lat="41.635271310" lon="2.487106830">
        <ele>506.27</ele>
        <time>2015-01-18T09:11:51Z</time>
      </trkpt>
      <trkpt lat="41.635127220" lon="2.487111950">
        <ele>507.71</ele>
        <time>2015-01-18T09:11:58Z</time>
      </trkpt>
      <trkpt lat="41.634972910" lon="2.487121500">
        <ele>508.19</ele>
        <time>2015-01-18T09:12:05Z</time>
      </trkpt>
      <trkpt lat="41.634816420" lon="2.487127030">
        <ele>509.16</ele>
        <time>2015-01-18T09:12:13Z</time>
      </trkpt>
      <trkpt lat="41.634687420" lon="2.487090740">
        <ele>510.12</ele>
        <time>2015-01-18T09:12:20Z</time>
      </trkpt>
      <trkpt lat="41.634584830" lon="2.487100040">
        <ele>510.12</ele>
        <time>2015-01-18T09:12:24Z</time>
      </trkpt>
      <trkpt lat="41.634531520" lon="2.487249490">
        <ele>510.12</ele>
        <time>2015-01-18T09:12:29Z</time>
      </trkpt>
      <trkpt lat="41.634541580" lon="2.487443620">
        <ele>510.12</ele>
        <time>2015-01-18T09:12:36Z</time>
      </trkpt>
      <trkpt lat="41.634489110" lon="2.487575210">
        <ele>510.60</ele>
        <time>2015-01-18T09:12:44Z</time>
      </trkpt>
      <trkpt lat="41.634431610" lon="2.487697420">
        <ele>513.48</ele>
        <time>2015-01-18T09:12:52Z</time>
      </trkpt>
      <trkpt lat="41.634388780" lon="2.487816610">
        <ele>516.37</ele>
        <time>2015-01-18T09:13:01Z</time>
      </trkpt>
      <trkpt lat="41.634384750" lon="2.487828350">
        <ele>516.37</ele>
        <time>2015-01-18T09:13:02Z</time>
      </trkpt>
      <trkpt lat="41.634329010" lon="2.487953740">
        <ele>518.29</ele>
        <time>2015-01-18T09:13:10Z</time>
      </trkpt>
      <trkpt lat="41.634263130" lon="2.488057680">
        <ele>519.25</ele>
        <time>2015-01-18T09:13:18Z</time>
      </trkpt>
      <trkpt lat="41.634197500" lon="2.488129590">
        <ele>521.17</ele>
        <time>2015-01-18T09:13:26Z</time>
      </trkpt>
      <trkpt lat="41.634080990" lon="2.488193290">
        <ele>521.65</ele>
        <time>2015-01-18T09:13:35Z</time>
      </trkpt>
      <trkpt lat="41.633998930" lon="2.488301000">
        <ele>523.58</ele>
        <time>2015-01-18T09:13:44Z</time>
      </trkpt>
      <trkpt lat="41.633934900" lon="2.488417930">
        <ele>524.54</ele>
        <time>2015-01-18T09:13:52Z</time>
      </trkpt>
      <trkpt lat="41.633889470" lon="2.488545000">
        <ele>525.98</ele>
        <time>2015-01-18T09:14:01Z</time>
      </trkpt>
      <trkpt lat="41.633884770" lon="2.488563690">
        <ele>526.46</ele>
        <time>2015-01-18T09:14:02Z</time>
      </trkpt>
      <trkpt lat="41.633840770" lon="2.488702830">
        <ele>526.94</ele>
        <time>2015-01-18T09:14:10Z</time>
      </trkpt>
      <trkpt lat="41.633791400" lon="2.488798550">
        <ele>527.42</ele>
        <time>2015-01-18T09:14:17Z</time>
      </trkpt>
      <trkpt lat="41.633778740" lon="2.488805840">
        <ele>527.42</ele>
        <time>2015-01-18T09:14:18Z</time>
      </trkpt>
      <trkpt lat="41.633650580" lon="2.488875580">
        <ele>529.34</ele>
        <time>2015-01-18T09:14:29Z</time>
      </trkpt>
      <trkpt lat="41.633598450" lon="2.489017150">
        <ele>529.82</ele>
        <time>2015-01-18T09:14:36Z</time>
      </trkpt>
      <trkpt lat="41.633609090" lon="2.489247740">
        <ele>529.82</ele>
        <time>2015-01-18T09:14:43Z</time>
      </trkpt>
      <trkpt lat="41.633633320" lon="2.489454850">
        <ele>529.82</ele>
        <time>2015-01-18T09:14:47Z</time>
      </trkpt>
      <trkpt lat="41.633571040" lon="2.489673450">
        <ele>526.94</ele>
        <time>2015-01-18T09:14:51Z</time>
      </trkpt>
      <trkpt lat="41.633447070" lon="2.489682760">
        <ele>525.50</ele>
        <time>2015-01-18T09:14:53Z</time>
      </trkpt>
      <trkpt lat="41.633179100" lon="2.489651490">
        <ele>520.69</ele>
        <time>2015-01-18T09:14:57Z</time>
      </trkpt>
      <trkpt lat="41.632836280" lon="2.489520490">
        <ele>514.92</ele>
        <time>2015-01-18T09:15:02Z</time>
      </trkpt>
      <trkpt lat="41.632664870" lon="2.489630960">
        <ele>510.12</ele>
        <time>2015-01-18T09:15:06Z</time>
      </trkpt>
      <trkpt lat="41.632610810" lon="2.489794490">
        <ele>506.75</ele>
        <time>2015-01-18T09:15:08Z</time>
      </trkpt>
      <trkpt lat="41.632601920" lon="2.489903290">
        <ele>505.79</ele>
        <time>2015-01-18T09:15:10Z</time>
      </trkpt>
      <trkpt lat="41.632637550" lon="2.490081740">
        <ele>502.43</ele>
        <time>2015-01-18T09:15:13Z</time>
      </trkpt>
      <trkpt lat="41.632616170" lon="2.490200680">
        <ele>500.98</ele>
        <time>2015-01-18T09:15:15Z</time>
      </trkpt>
      <trkpt lat="41.632576940" lon="2.490288440">
        <ele>499.06</ele>
        <time>2015-01-18T09:15:17Z</time>
      </trkpt>
      <trkpt lat="41.632458510" lon="2.490263290">
        <ele>498.10</ele>
        <time>2015-01-18T09:15:23Z</time>
      </trkpt>
      <trkpt lat="41.632363040" lon="2.490022060">
        <ele>497.62</ele>
        <time>2015-01-18T09:15:31Z</time>
      </trkpt>
      <trkpt lat="41.632302190" lon="2.489784260">
        <ele>497.14</ele>
        <time>2015-01-18T09:15:37Z</time>
      </trkpt>
      <trkpt lat="41.632203780" lon="2.489791300">
        <ele>497.14</ele>
        <time>2015-01-18T09:15:42Z</time>
      </trkpt>
      <trkpt lat="41.632094150" lon="2.489960950">
        <ele>498.10</ele>
        <time>2015-01-18T09:15:51Z</time>
      </trkpt>
      <trkpt lat="41.632063050" lon="2.489988280">
        <ele>498.10</ele>
        <time>2015-01-18T09:15:52Z</time>
      </trkpt>
      <trkpt lat="41.631853500" lon="2.490067990">
        <ele>494.74</ele>
        <time>2015-01-18T09:15:56Z</time>
      </trkpt>
      <trkpt lat="41.631533150" lon="2.490115180">
        <ele>490.89</ele>
        <time>2015-01-18T09:16:00Z</time>
      </trkpt>
      <trkpt lat="41.631304400" lon="2.490170250">
        <ele>488.01</ele>
        <time>2015-01-18T09:16:05Z</time>
      </trkpt>
      <trkpt lat="41.631248080" lon="2.490148790">
        <ele>486.56</ele>
        <time>2015-01-18T09:16:07Z</time>
      </trkpt>
      <trkpt lat="41.631129890" lon="2.490046450">
        <ele>484.64</ele>
        <time>2015-01-18T09:16:11Z</time>
      </trkpt>
      <trkpt lat="41.630948930" lon="2.489958440">
        <ele>483.68</ele>
        <time>2015-01-18T09:16:16Z</time>
      </trkpt>
      <trkpt lat="41.630905590" lon="2.489987780">
        <ele>483.68</ele>
        <time>2015-01-18T09:16:18Z</time>
      </trkpt>
      <trkpt lat="41.630775250" lon="2.490172850">
        <ele>483.68</ele>
        <time>2015-01-18T09:16:25Z</time>
      </trkpt>
      <trkpt lat="41.630719770" lon="2.490365800">
        <ele>483.20</ele>
        <time>2015-01-18T09:16:31Z</time>
      </trkpt>
      <trkpt lat="41.630582300" lon="2.490411150">
        <ele>483.20</ele>
        <time>2015-01-18T09:16:37Z</time>
      </trkpt>
      <trkpt lat="41.630464450" lon="2.490530670">
        <ele>483.20</ele>
        <time>2015-01-18T09:16:42Z</time>
      </trkpt>
      <trkpt lat="41.630443250" lon="2.490615080">
        <ele>482.72</ele>
        <time>2015-01-18T09:16:44Z</time>
      </trkpt>
      <trkpt lat="41.630440730" lon="2.490731250">
        <ele>482.24</ele>
        <time>2015-01-18T09:16:46Z</time>
      </trkpt>
      <trkpt lat="41.630330340" lon="2.491052030">
        <ele>478.87</ele>
        <time>2015-01-18T09:16:52Z</time>
      </trkpt>
      <trkpt lat="41.630299160" lon="2.491097210">
        <ele>477.91</ele>
        <time>2015-01-18T09:16:53Z</time>
      </trkpt>
      <trkpt lat="41.630105960" lon="2.491247580">
        <ele>477.91</ele>
        <time>2015-01-18T09:16:59Z</time>
      </trkpt>
      <trkpt lat="41.629963380" lon="2.491272390">
        <ele>477.43</ele>
        <time>2015-01-18T09:17:05Z</time>
      </trkpt>
      <trkpt lat="41.629841340" lon="2.491167030">
        <ele>477.43</ele>
        <time>2015-01-18T09:17:12Z</time>
      </trkpt>
      <trkpt lat="41.629821230" lon="2.491124870">
        <ele>478.39</ele>
        <time>2015-01-18T09:17:14Z</time>
      </trkpt>
      <trkpt lat="41.629712090" lon="2.490969800">
        <ele>479.35</ele>
        <time>2015-01-18T09:17:21Z</time>
      </trkpt>
      <trkpt lat="41.629550910" lon="2.490823620">
        <ele>480.32</ele>
        <time>2015-01-18T09:17:30Z</time>
      </trkpt>
      <trkpt lat="41.629391910" lon="2.490712810">
        <ele>481.28</ele>
        <time>2015-01-18T09:17:39Z</time>
      </trkpt>
      <trkpt lat="41.629258210" lon="2.490730080">
        <ele>481.28</ele>
        <time>2015-01-18T09:17:46Z</time>
      </trkpt>
      <trkpt lat="41.629219910" lon="2.490740470">
        <ele>481.28</ele>
        <time>2015-01-18T09:17:54Z</time>
      </trkpt>
      <trkpt lat="41.629191830" lon="2.490721190">
        <ele>481.28</ele>
        <time>2015-01-18T09:18:00Z</time>
      </trkpt>
      <trkpt lat="41.629156710" lon="2.490682550">
        <ele>481.28</ele>
        <time>2015-01-18T09:18:10Z</time>
      </trkpt>
      <trkpt lat="41.629145390" lon="2.490668140">
        <ele>481.28</ele>
        <time>2015-01-18T09:18:17Z</time>
      </trkpt>
      <trkpt lat="41.629133410" lon="2.490629750">
        <ele>481.28</ele>
        <time>2015-01-18T09:18:24Z</time>
      </trkpt>
      <trkpt lat="41.629123270" lon="2.490605020">
        <ele>481.28</ele>
        <time>2015-01-18T09:18:32Z</time>
      </trkpt>
      <trkpt lat="41.629123010" lon="2.490593540">
        <ele>481.28</ele>
        <time>2015-01-18T09:18:35Z</time>
      </trkpt>
      <trkpt lat="41.629123350" lon="2.490413160">
        <ele>479.84</ele>
        <time>2015-01-18T09:18:44Z</time>
      </trkpt>
      <trkpt lat="41.629138270" lon="2.490215930">
        <ele>477.91</ele>
        <time>2015-01-18T09:18:51Z</time>
      </trkpt>
      <trkpt lat="41.629130980" lon="2.490035800">
        <ele>476.47</ele>
        <time>2015-01-18T09:18:57Z</time>
      </trkpt>
      <trkpt lat="41.629118070" lon="2.489983000">
        <ele>475.51</ele>
        <time>2015-01-18T09:18:59Z</time>
      </trkpt>
      <trkpt lat="41.629017820" lon="2.489846290">
        <ele>471.66</ele>
        <time>2015-01-18T09:19:05Z</time>
      </trkpt>
      <trkpt lat="41.628937940" lon="2.489777560">
        <ele>470.22</ele>
        <time>2015-01-18T09:19:11Z</time>
      </trkpt>
      <trkpt lat="41.628921600" lon="2.489758280">
        <ele>469.74</ele>
        <time>2015-01-18T09:19:17Z</time>
      </trkpt>
      <trkpt lat="41.628899220" lon="2.489742610">
        <ele>469.26</ele>
        <time>2015-01-18T09:19:24Z</time>
      </trkpt>
      <trkpt lat="41.628837440" lon="2.489721990">
        <ele>468.30</ele>
        <time>2015-01-18T09:19:33Z</time>
      </trkpt>
      <trkpt lat="41.628766200" lon="2.489656440">
        <ele>466.86</ele>
        <time>2015-01-18T09:19:42Z</time>
      </trkpt>
      <trkpt lat="41.628725380" lon="2.489617460">
        <ele>465.90</ele>
        <time>2015-01-18T09:19:48Z</time>
      </trkpt>
      <trkpt lat="41.628698220" lon="2.489575050">
        <ele>465.42</ele>
        <time>2015-01-18T09:19:55Z</time>
      </trkpt>
      <trkpt lat="41.628684050" lon="2.489550660">
        <ele>465.42</ele>
        <time>2015-01-18T09:19:59Z</time>
      </trkpt>
      <trkpt lat="41.628641980" lon="2.489472290">
        <ele>464.45</ele>
        <time>2015-01-18T09:20:07Z</time>
      </trkpt>
      <trkpt lat="41.628630490" lon="2.489436250">
        <ele>465.90</ele>
        <time>2015-01-18T09:20:14Z</time>
      </trkpt>
      <trkpt lat="41.628631420" lon="2.489425270">
        <ele>465.90</ele>
        <time>2015-01-18T09:20:16Z</time>
      </trkpt>
      <trkpt lat="41.628634430" lon="2.489324010">
        <ele>466.38</ele>
        <time>2015-01-18T09:20:22Z</time>
      </trkpt>
      <trkpt lat="41.628630160" lon="2.489269530">
        <ele>466.86</ele>
        <time>2015-01-18T09:20:25Z</time>
      </trkpt>
      <trkpt lat="41.628695790" lon="2.489044230">
        <ele>466.86</ele>
        <time>2015-01-18T09:20:34Z</time>
      </trkpt>
      <trkpt lat="41.628707190" lon="2.488977840">
        <ele>465.42</ele>
        <time>2015-01-18T09:20:36Z</time>
      </trkpt>
      <trkpt lat="41.628618000" lon="2.488851530">
        <ele>463.97</ele>
        <time>2015-01-18T09:20:41Z</time>
      </trkpt>
      <trkpt lat="41.628408460" lon="2.488700320">
        <ele>461.09</ele>
        <time>2015-01-18T09:20:49Z</time>
      </trkpt>
      <trkpt lat="41.628362270" lon="2.488613310">
        <ele>460.13</ele>
        <time>2015-01-18T09:20:52Z</time>
      </trkpt>
      <trkpt lat="41.628403010" lon="2.488302010">
        <ele>457.72</ele>
        <time>2015-01-18T09:20:59Z</time>
      </trkpt>
      <trkpt lat="41.628377190" lon="2.488236210">
        <ele>457.72</ele>
        <time>2015-01-18T09:21:01Z</time>
      </trkpt>
      <trkpt lat="41.628288340" lon="2.488191280">
        <ele>457.72</ele>
        <time>2015-01-18T09:21:05Z</time>
      </trkpt>
      <trkpt lat="41.628101180" lon="2.488107970">
        <ele>457.24</ele>
        <time>2015-01-18T09:21:12Z</time>
      </trkpt>
      <trkpt lat="41.627980980" lon="2.487860370">
        <ele>456.28</ele>
        <time>2015-01-18T09:21:18Z</time>
      </trkpt>
      <trkpt lat="41.627940660" lon="2.487782670">
        <ele>455.80</ele>
        <time>2015-01-18T09:21:20Z</time>
      </trkpt>
      <trkpt lat="41.627855920" lon="2.487778810">
        <ele>455.80</ele>
        <time>2015-01-18T09:21:24Z</time>
      </trkpt>
      <trkpt lat="41.627742350" lon="2.488044010">
        <ele>455.80</ele>
        <time>2015-01-18T09:21:34Z</time>
      </trkpt>
      <trkpt lat="41.627683090" lon="2.488279040">
        <ele>454.84</ele>
        <time>2015-01-18T09:21:40Z</time>
      </trkpt>
      <trkpt lat="41.627615860" lon="2.488521530">
        <ele>452.44</ele>
        <time>2015-01-18T09:21:45Z</time>
      </trkpt>
      <trkpt lat="41.627454850" lon="2.488921600">
        <ele>450.03</ele>
        <time>2015-01-18T09:21:52Z</time>
      </trkpt>
      <trkpt lat="41.627307660" lon="2.489044560">
        <ele>450.03</ele>
        <time>2015-01-18T09:21:57Z</time>
      </trkpt>
      <trkpt lat="41.627161230" lon="2.489186630">
        <ele>450.03</ele>
        <time>2015-01-18T09:22:03Z</time>
      </trkpt>
      <trkpt lat="41.627214960" lon="2.489435410">
        <ele>450.03</ele>
        <time>2015-01-18T09:22:09Z</time>
      </trkpt>
      <trkpt lat="41.627251500" lon="2.489636410">
        <ele>451.48</ele>
        <time>2015-01-18T09:22:15Z</time>
      </trkpt>
      <trkpt lat="41.627230550" lon="2.489910910">
        <ele>451.96</ele>
        <time>2015-01-18T09:22:22Z</time>
      </trkpt>
      <trkpt lat="41.627128540" lon="2.489921980">
        <ele>453.40</ele>
        <time>2015-01-18T09:22:27Z</time>
      </trkpt>
      <trkpt lat="41.627005330" lon="2.489751490">
        <ele>453.88</ele>
        <time>2015-01-18T09:22:35Z</time>
      </trkpt>
      <trkpt lat="41.626954870" lon="2.489738250">
        <ele>454.36</ele>
        <time>2015-01-18T09:22:37Z</time>
      </trkpt>
      <trkpt lat="41.626868030" lon="2.489877050">
        <ele>455.32</ele>
        <time>2015-01-18T09:22:44Z</time>
      </trkpt>
      <trkpt lat="41.626850760" lon="2.490054410">
        <ele>455.32</ele>
        <time>2015-01-18T09:22:49Z</time>
      </trkpt>
      <trkpt lat="41.626836100" lon="2.490159940">
        <ele>453.40</ele>
        <time>2015-01-18T09:22:51Z</time>
      </trkpt>
      <trkpt lat="41.626836010" lon="2.490469400">
        <ele>451.96</ele>
        <time>2015-01-18T09:22:57Z</time>
      </trkpt>
      <trkpt lat="41.626770470" lon="2.490609460">
        <ele>451.96</ele>
        <time>2015-01-18T09:23:02Z</time>
      </trkpt>
      <trkpt lat="41.626733250" lon="2.490627990">
        <ele>453.40</ele>
        <time>2015-01-18T09:23:04Z</time>
      </trkpt>
      <trkpt lat="41.626583470" lon="2.490626810">
        <ele>454.36</ele>
        <time>2015-01-18T09:23:11Z</time>
      </trkpt>
      <trkpt lat="41.626439720" lon="2.490649700">
        <ele>455.80</ele>
        <time>2015-01-18T09:23:18Z</time>
      </trkpt>
      <trkpt lat="41.626302840" lon="2.490719100">
        <ele>457.24</ele>
        <time>2015-01-18T09:23:26Z</time>
      </trkpt>
      <trkpt lat="41.626226140" lon="2.490820770">
        <ele>457.72</ele>
        <time>2015-01-18T09:23:33Z</time>
      </trkpt>
      <trkpt lat="41.626260590" lon="2.490914310">
        <ele>457.72</ele>
        <time>2015-01-18T09:23:37Z</time>
      </trkpt>
      <trkpt lat="41.626420770" lon="2.491037270">
        <ele>455.80</ele>
        <time>2015-01-18T09:23:43Z</time>
      </trkpt>
      <trkpt lat="41.626503670" lon="2.491143140">
        <ele>453.40</ele>
        <time>2015-01-18T09:23:46Z</time>
      </trkpt>
      <trkpt lat="41.626630990" lon="2.491425360">
        <ele>451.00</ele>
        <time>2015-01-18T09:23:52Z</time>
      </trkpt>
      <trkpt lat="41.626584050" lon="2.491641360">
        <ele>450.03</ele>
        <time>2015-01-18T09:23:56Z</time>
      </trkpt>
      <trkpt lat="41.626424710" lon="2.491714280">
        <ele>449.07</ele>
        <time>2015-01-18T09:24:00Z</time>
      </trkpt>
      <trkpt lat="41.626285240" lon="2.491897930">
        <ele>447.63</ele>
        <time>2015-01-18T09:24:04Z</time>
      </trkpt>
      <trkpt lat="41.626192110" lon="2.492268240">
        <ele>446.19</ele>
        <time>2015-01-18T09:24:10Z</time>
      </trkpt>
      <trkpt lat="41.626007130" lon="2.492466560">
        <ele>445.71</ele>
        <time>2015-01-18T09:24:15Z</time>
      </trkpt>
      <trkpt lat="41.625824900" lon="2.492648020">
        <ele>444.75</ele>
        <time>2015-01-18T09:24:21Z</time>
      </trkpt>
      <trkpt lat="41.625864800" lon="2.492822280">
        <ele>444.75</ele>
        <time>2015-01-18T09:24:26Z</time>
      </trkpt>
      <trkpt lat="41.625822890" lon="2.493040880">
        <ele>444.75</ele>
        <time>2015-01-18T09:24:33Z</time>
      </trkpt>
      <trkpt lat="41.625772350" lon="2.493143730">
        <ele>444.75</ele>
        <time>2015-01-18T09:24:36Z</time>
      </trkpt>
      <trkpt lat="41.625840070" lon="2.493322940">
        <ele>444.75</ele>
        <time>2015-01-18T09:24:41Z</time>
      </trkpt>
      <trkpt lat="41.625864380" lon="2.493338860">
        <ele>444.75</ele>
        <time>2015-01-18T09:24:42Z</time>
      </trkpt>
      <trkpt lat="41.626062610" lon="2.493449500">
        <ele>444.27</ele>
        <time>2015-01-18T09:24:47Z</time>
      </trkpt>
      <trkpt lat="41.626251880" lon="2.493430480">
        <ele>442.82</ele>
        <time>2015-01-18T09:24:51Z</time>
      </trkpt>
      <trkpt lat="41.626394290" lon="2.493345900">
        <ele>441.38</ele>
        <time>2015-01-18T09:24:54Z</time>
      </trkpt>
      <trkpt lat="41.626721100" lon="2.493221430">
        <ele>439.46</ele>
        <time>2015-01-18T09:25:00Z</time>
      </trkpt>
      <trkpt lat="41.626993760" lon="2.493353530">
        <ele>438.02</ele>
        <time>2015-01-18T09:25:05Z</time>
      </trkpt>
      <trkpt lat="41.627041700" lon="2.493546560">
        <ele>437.54</ele>
        <time>2015-01-18T09:25:08Z</time>
      </trkpt>
      <trkpt lat="41.627012280" lon="2.493749320">
        <ele>436.58</ele>
        <time>2015-01-18T09:25:11Z</time>
      </trkpt>
      <trkpt lat="41.626945810" lon="2.493933810">
        <ele>436.58</ele>
        <time>2015-01-18T09:25:14Z</time>
      </trkpt>
      <trkpt lat="41.626794860" lon="2.494111090">
        <ele>435.13</ele>
        <time>2015-01-18T09:25:18Z</time>
      </trkpt>
      <trkpt lat="41.626742050" lon="2.494329940">
        <ele>434.65</ele>
        <time>2015-01-18T09:25:22Z</time>
      </trkpt>
      <trkpt lat="41.626768030" lon="2.494558260">
        <ele>434.17</ele>
        <time>2015-01-18T09:25:26Z</time>
      </trkpt>
      <trkpt lat="41.626745490" lon="2.494650880">
        <ele>433.69</ele>
        <time>2015-01-18T09:25:28Z</time>
      </trkpt>
      <trkpt lat="41.626604590" lon="2.494908200">
        <ele>433.69</ele>
        <time>2015-01-18T09:25:35Z</time>
      </trkpt>
      <trkpt lat="41.626486070" lon="2.495141220">
        <ele>433.69</ele>
        <time>2015-01-18T09:25:42Z</time>
      </trkpt>
      <trkpt lat="41.626322620" lon="2.495366190">
        <ele>433.69</ele>
        <time>2015-01-18T09:25:49Z</time>
      </trkpt>
      <trkpt lat="41.626229580" lon="2.495604490">
        <ele>433.69</ele>
        <time>2015-01-18T09:25:55Z</time>
      </trkpt>
      <trkpt lat="41.626229500" lon="2.495659390">
        <ele>433.69</ele>
        <time>2015-01-18T09:25:56Z</time>
      </trkpt>
      <trkpt lat="41.626334020" lon="2.495843370">
        <ele>433.21</ele>
        <time>2015-01-18T09:26:01Z</time>
      </trkpt>
      <trkpt lat="41.626388170" lon="2.495835660">
        <ele>433.21</ele>
        <time>2015-01-18T09:26:03Z</time>
      </trkpt>
      <trkpt lat="41.626590090" lon="2.495883100">
        <ele>433.21</ele>
        <time>2015-01-18T09:26:10Z</time>
      </trkpt>
      <trkpt lat="41.626765940" lon="2.496050160">
        <ele>433.21</ele>
        <time>2015-01-18T09:26:16Z</time>
      </trkpt>
      <trkpt lat="41.626763930" lon="2.496331280">
        <ele>432.25</ele>
        <time>2015-01-18T09:26:22Z</time>
      </trkpt>
      <trkpt lat="41.626628900" lon="2.496688520">
        <ele>432.25</ele>
        <time>2015-01-18T09:26:31Z</time>
      </trkpt>
      <trkpt lat="41.626530910" lon="2.496892960">
        <ele>431.77</ele>
        <time>2015-01-18T09:26:37Z</time>
      </trkpt>
      <trkpt lat="41.626543900" lon="2.496982470">
        <ele>430.81</ele>
        <time>2015-01-18T09:26:39Z</time>
      </trkpt>
      <trkpt lat="41.626606850" lon="2.497176260">
        <ele>429.85</ele>
        <time>2015-01-18T09:26:42Z</time>
      </trkpt>
      <trkpt lat="41.626568040" lon="2.497415480">
        <ele>429.85</ele>
        <time>2015-01-18T09:26:46Z</time>
      </trkpt>
      <trkpt lat="41.626562260" lon="2.497588910">
        <ele>428.89</ele>
        <time>2015-01-18T09:26:49Z</time>
      </trkpt>
      <trkpt lat="41.626598550" lon="2.497643970">
        <ele>428.89</ele>
        <time>2015-01-18T09:26:51Z</time>
      </trkpt>
      <trkpt lat="41.626740960" lon="2.497861230">
        <ele>429.37</ele>
        <time>2015-01-18T09:26:58Z</time>
      </trkpt>
      <trkpt lat="41.626900470" lon="2.498051750">
        <ele>429.37</ele>
        <time>2015-01-18T09:27:04Z</time>
      </trkpt>
      <trkpt lat="41.627127620" lon="2.498145040">
        <ele>429.37</ele>
        <time>2015-01-18T09:27:11Z</time>
      </trkpt>
      <trkpt lat="41.627275890" lon="2.498241600">
        <ele>429.37</ele>
        <time>2015-01-18T09:27:16Z</time>
      </trkpt>
      <trkpt lat="41.627240100" lon="2.498389290">
        <ele>430.81</ele>
        <time>2015-01-18T09:27:21Z</time>
      </trkpt>
      <trkpt lat="41.627116390" lon="2.498386440">
        <ele>430.81</ele>
        <time>2015-01-18T09:27:25Z</time>
      </trkpt>
      <trkpt lat="41.626906590" lon="2.498360380">
        <ele>430.81</ele>
        <time>2015-01-18T09:27:32Z</time>
      </trkpt>
      <trkpt lat="41.626763760" lon="2.498462300">
        <ele>430.81</ele>
        <time>2015-01-18T09:27:37Z</time>
      </trkpt>
      <trkpt lat="41.626710120" lon="2.498542510">
        <ele>429.85</ele>
        <time>2015-01-18T09:27:39Z</time>
      </trkpt>
      <trkpt lat="41.626642470" lon="2.498623230">
        <ele>429.85</ele>
        <time>2015-01-18T09:27:41Z</time>
      </trkpt>
      <trkpt lat="41.626611630" lon="2.498792210">
        <ele>428.40</ele>
        <time>2015-01-18T09:27:45Z</time>
      </trkpt>
      <trkpt lat="41.626715900" lon="2.498941830">
        <ele>429.85</ele>
        <time>2015-01-18T09:27:51Z</time>
      </trkpt>
      <trkpt lat="41.626779850" lon="2.499175260">
        <ele>430.81</ele>
        <time>2015-01-18T09:27:57Z</time>
      </trkpt>
      <trkpt lat="41.626769790" lon="2.499402250">
        <ele>430.81</ele>
        <time>2015-01-18T09:28:04Z</time>
      </trkpt>
      <trkpt lat="41.626725790" lon="2.499672060">
        <ele>431.29</ele>
        <time>2015-01-18T09:28:11Z</time>
      </trkpt>
      <trkpt lat="41.626726130" lon="2.499819500">
        <ele>431.77</ele>
        <time>2015-01-18T09:28:15Z</time>
      </trkpt>
      <trkpt lat="41.626869460" lon="2.499926280">
        <ele>432.73</ele>
        <time>2015-01-18T09:28:21Z</time>
      </trkpt>
      <trkpt lat="41.626937010" lon="2.499933240">
        <ele>432.73</ele>
        <time>2015-01-18T09:28:23Z</time>
      </trkpt>
      <trkpt lat="41.627170790" lon="2.499981600">
        <ele>432.73</ele>
        <time>2015-01-18T09:28:30Z</time>
      </trkpt>
      <trkpt lat="41.627390140" lon="2.500183360">
        <ele>432.73</ele>
        <time>2015-01-18T09:28:38Z</time>
      </trkpt>
      <trkpt lat="41.627431380" lon="2.500304640">
        <ele>433.21</ele>
        <time>2015-01-18T09:28:41Z</time>
      </trkpt>
      <trkpt lat="41.627379830" lon="2.500584510">
        <ele>434.65</ele>
        <time>2015-01-18T09:28:49Z</time>
      </trkpt>
      <trkpt lat="41.627428280" lon="2.500757680">
        <ele>436.10</ele>
        <time>2015-01-18T09:28:54Z</time>
      </trkpt>
      <trkpt lat="41.627528860" lon="2.500944260">
        <ele>436.58</ele>
        <time>2015-01-18T09:29:00Z</time>
      </trkpt>
      <trkpt lat="41.627668590" lon="2.501028000">
        <ele>436.58</ele>
        <time>2015-01-18T09:29:06Z</time>
      </trkpt>
      <trkpt lat="41.627780820" lon="2.501095310">
        <ele>437.06</ele>
        <time>2015-01-18T09:29:10Z</time>
      </trkpt>
      <trkpt lat="41.627804290" lon="2.501220360">
        <ele>438.50</ele>
        <time>2015-01-18T09:29:14Z</time>
      </trkpt>
      <trkpt lat="41.627735640" lon="2.501495540">
        <ele>439.46</ele>
        <time>2015-01-18T09:29:22Z</time>
      </trkpt>
      <trkpt lat="41.627724410" lon="2.501740960">
        <ele>439.94</ele>
        <time>2015-01-18T09:29:28Z</time>
      </trkpt>
      <trkpt lat="41.627687780" lon="2.502038770">
        <ele>440.42</ele>
        <time>2015-01-18T09:29:36Z</time>
      </trkpt>
      <trkpt lat="41.627622400" lon="2.502327610">
        <ele>440.42</ele>
        <time>2015-01-18T09:29:42Z</time>
      </trkpt>
      <trkpt lat="41.627570600" lon="2.502533640">
        <ele>440.42</ele>
        <time>2015-01-18T09:29:46Z</time>
      </trkpt>
      <trkpt lat="41.627432890" lon="2.502560550">
        <ele>438.98</ele>
        <time>2015-01-18T09:29:50Z</time>
      </trkpt>
      <trkpt lat="41.627369770" lon="2.502512850">
        <ele>438.50</ele>
        <time>2015-01-18T09:29:52Z</time>
      </trkpt>
      <trkpt lat="41.627185030" lon="2.502479330">
        <ele>439.94</ele>
        <time>2015-01-18T09:30:00Z</time>
      </trkpt>
      <trkpt lat="41.627003150" lon="2.502437250">
        <ele>440.90</ele>
        <time>2015-01-18T09:30:07Z</time>
      </trkpt>
      <trkpt lat="41.626905580" lon="2.502383520">
        <ele>439.46</ele>
        <time>2015-01-18T09:30:10Z</time>
      </trkpt>
      <trkpt lat="41.626764680" lon="2.502403890">
        <ele>438.02</ele>
        <time>2015-01-18T09:30:14Z</time>
      </trkpt>
      <trkpt lat="41.626522190" lon="2.502384280">
        <ele>434.17</ele>
        <time>2015-01-18T09:30:19Z</time>
      </trkpt>
      <trkpt lat="41.626461930" lon="2.502373040">
        <ele>434.17</ele>
        <time>2015-01-18T09:30:20Z</time>
      </trkpt>
      <trkpt lat="41.626231340" lon="2.502426440">
        <ele>432.73</ele>
        <time>2015-01-18T09:30:24Z</time>
      </trkpt>
      <trkpt lat="41.626090860" lon="2.502502380">
        <ele>431.29</ele>
        <time>2015-01-18T09:30:27Z</time>
      </trkpt>
      <trkpt lat="41.626079550" lon="2.502613690">
        <ele>431.29</ele>
        <time>2015-01-18T09:30:29Z</time>
      </trkpt>
      <trkpt lat="41.626082060" lon="2.502921220">
        <ele>430.81</ele>
        <time>2015-01-18T09:30:35Z</time>
      </trkpt>
      <trkpt lat="41.625957920" lon="2.503244340">
        <ele>430.81</ele>
        <time>2015-01-18T09:30:44Z</time>
      </trkpt>
      <trkpt lat="41.625916010" lon="2.503329670">
        <ele>432.25</ele>
        <time>2015-01-18T09:30:47Z</time>
      </trkpt>
      <trkpt lat="41.625853320" lon="2.503411230">
        <ele>432.25</ele>
        <time>2015-01-18T09:30:50Z</time>
      </trkpt>
      <trkpt lat="41.625683580" lon="2.503490020">
        <ele>431.29</ele>
        <time>2015-01-18T09:30:54Z</time>
      </trkpt>
      <trkpt lat="41.625501030" lon="2.503516340">
        <ele>429.85</ele>
        <time>2015-01-18T09:30:58Z</time>
      </trkpt>
      <trkpt lat="41.625386450" lon="2.503596380">
        <ele>428.40</ele>
        <time>2015-01-18T09:31:01Z</time>
      </trkpt>
      <trkpt lat="41.625427850" lon="2.503726470">
        <ele>427.44</ele>
        <time>2015-01-18T09:31:04Z</time>
      </trkpt>
      <trkpt lat="41.625497510" lon="2.503999720">
        <ele>426.48</ele>
        <time>2015-01-18T09:31:09Z</time>
      </trkpt>
      <trkpt lat="41.625472610" lon="2.504397940">
        <ele>426.00</ele>
        <time>2015-01-18T09:31:17Z</time>
      </trkpt>
      <trkpt lat="41.625367250" lon="2.504597270">
        <ele>427.44</ele>
        <time>2015-01-18T09:31:23Z</time>
      </trkpt>
      <trkpt lat="41.625328950" lon="2.504644880">
        <ele>427.44</ele>
        <time>2015-01-18T09:31:24Z</time>
      </trkpt>
      <trkpt lat="41.625263480" lon="2.504758870">
        <ele>426.00</ele>
        <time>2015-01-18T09:31:26Z</time>
      </trkpt>
      <trkpt lat="41.625135160" lon="2.504915020">
        <ele>424.08</ele>
        <time>2015-01-18T09:31:29Z</time>
      </trkpt>
      <trkpt lat="41.625023260" lon="2.505105040">
        <ele>423.12</ele>
        <time>2015-01-18T09:31:34Z</time>
      </trkpt>
      <trkpt lat="41.625202380" lon="2.505384750">
        <ele>421.19</ele>
        <time>2015-01-18T09:31:40Z</time>
      </trkpt>
      <trkpt lat="41.625224840" lon="2.505746420">
        <ele>421.19</ele>
        <time>2015-01-18T09:31:45Z</time>
      </trkpt>
      <trkpt lat="41.625221070" lon="2.505809710">
        <ele>420.71</ele>
        <time>2015-01-18T09:31:46Z</time>
      </trkpt>
      <trkpt lat="41.625280580" lon="2.506128140">
        <ele>419.27</ele>
        <time>2015-01-18T09:31:51Z</time>
      </trkpt>
      <trkpt lat="41.625254010" lon="2.506430890">
        <ele>416.87</ele>
        <time>2015-01-18T09:31:56Z</time>
      </trkpt>
      <trkpt lat="41.625257030" lon="2.506657290">
        <ele>413.98</ele>
        <time>2015-01-18T09:31:59Z</time>
      </trkpt>
      <trkpt lat="41.625268510" lon="2.506829700">
        <ele>412.54</ele>
        <time>2015-01-18T09:32:02Z</time>
      </trkpt>
      <trkpt lat="41.625333050" lon="2.507080070">
        <ele>411.58</ele>
        <time>2015-01-18T09:32:07Z</time>
      </trkpt>
      <trkpt lat="41.625367920" lon="2.507197000">
        <ele>411.58</ele>
        <time>2015-01-18T09:32:09Z</time>
      </trkpt>
      <trkpt lat="41.625426760" lon="2.507551470">
        <ele>410.14</ele>
        <time>2015-01-18T09:32:15Z</time>
      </trkpt>
      <trkpt lat="41.625462470" lon="2.507859590">
        <ele>409.66</ele>
        <time>2015-01-18T09:32:22Z</time>
      </trkpt>
      <trkpt lat="41.625480910" lon="2.507878450">
        <ele>409.66</ele>
        <time>2015-01-18T09:32:23Z</time>
      </trkpt>
      <trkpt lat="41.625535980" lon="2.507910970">
        <ele>409.66</ele>
        <time>2015-01-18T09:32:26Z</time>
      </trkpt>
      <trkpt lat="41.625694480" lon="2.507915410">
        <ele>409.66</ele>
        <time>2015-01-18T09:32:34Z</time>
      </trkpt>
      <trkpt lat="41.625730100" lon="2.507923790">
        <ele>411.10</ele>
        <time>2015-01-18T09:32:36Z</time>
      </trkpt>
      <trkpt lat="41.625851640" lon="2.507939380">
        <ele>411.58</ele>
        <time>2015-01-18T09:32:41Z</time>
      </trkpt>
      <trkpt lat="41.626079960" lon="2.507920690">
        <ele>412.54</ele>
        <time>2015-01-18T09:32:50Z</time>
      </trkpt>
      <trkpt lat="41.626259000" lon="2.507882800">
        <ele>413.50</ele>
        <time>2015-01-18T09:32:57Z</time>
      </trkpt>
      <trkpt lat="41.626419430" lon="2.507854470">
        <ele>414.95</ele>
        <time>2015-01-18T09:33:04Z</time>
      </trkpt>
      <trkpt lat="41.626637860" lon="2.507851620">
        <ele>416.39</ele>
        <time>2015-01-18T09:33:13Z</time>
      </trkpt>
      <trkpt lat="41.626704920" lon="2.507874420">
        <ele>417.35</ele>
        <time>2015-01-18T09:33:16Z</time>
      </trkpt>
      <trkpt lat="41.626786390" lon="2.508004170">
        <ele>418.79</ele>
        <time>2015-01-18T09:33:23Z</time>
      </trkpt>
      <trkpt lat="41.626785640" lon="2.508024120">
        <ele>418.79</ele>
        <time>2015-01-18T09:33:24Z</time>
      </trkpt>
      <trkpt lat="41.626730990" lon="2.508183630">
        <ele>419.75</ele>
        <time>2015-01-18T09:33:31Z</time>
      </trkpt>
      <trkpt lat="41.626698380" lon="2.508338950">
        <ele>420.23</ele>
        <time>2015-01-18T09:33:37Z</time>
      </trkpt>
      <trkpt lat="41.626644150" lon="2.508521250">
        <ele>421.68</ele>
        <time>2015-01-18T09:33:45Z</time>
      </trkpt>
      <trkpt lat="41.626576340" lon="2.508663160">
        <ele>423.12</ele>
        <time>2015-01-18T09:33:52Z</time>
      </trkpt>
      <trkpt lat="41.626481880" lon="2.508820990">
        <ele>424.08</ele>
        <time>2015-01-18T09:33:59Z</time>
      </trkpt>
      <trkpt lat="41.626443990" lon="2.509058200">
        <ele>424.56</ele>
        <time>2015-01-18T09:34:07Z</time>
      </trkpt>
      <trkpt lat="41.626481790" lon="2.509361040">
        <ele>425.04</ele>
        <time>2015-01-18T09:34:16Z</time>
      </trkpt>
      <trkpt lat="41.626477100" lon="2.509599330">
        <ele>425.52</ele>
        <time>2015-01-18T09:34:24Z</time>
      </trkpt>
      <trkpt lat="41.626388920" lon="2.509770330">
        <ele>426.48</ele>
        <time>2015-01-18T09:34:31Z</time>
      </trkpt>
      <trkpt lat="41.626293620" lon="2.509959250">
        <ele>426.96</ele>
        <time>2015-01-18T09:34:38Z</time>
      </trkpt>
      <trkpt lat="41.626214830" lon="2.510198720">
        <ele>428.40</ele>
        <time>2015-01-18T09:34:46Z</time>
      </trkpt>
      <trkpt lat="41.626143830" lon="2.510417070">
        <ele>429.85</ele>
        <time>2015-01-18T09:34:54Z</time>
      </trkpt>
      <trkpt lat="41.626084160" lon="2.510618490">
        <ele>431.29</ele>
        <time>2015-01-18T09:35:01Z</time>
      </trkpt>
      <trkpt lat="41.626034200" lon="2.510785120">
        <ele>432.25</ele>
        <time>2015-01-18T09:35:08Z</time>
      </trkpt>
      <trkpt lat="41.625963960" lon="2.510971870">
        <ele>433.69</ele>
        <time>2015-01-18T09:35:15Z</time>
      </trkpt>
      <trkpt lat="41.625879550" lon="2.511184020">
        <ele>435.13</ele>
        <time>2015-01-18T09:35:23Z</time>
      </trkpt>
      <trkpt lat="41.625824820" lon="2.511335980">
        <ele>436.58</ele>
        <time>2015-01-18T09:35:30Z</time>
      </trkpt>
      <trkpt lat="41.625816440" lon="2.511520970">
        <ele>438.02</ele>
        <time>2015-01-18T09:35:38Z</time>
      </trkpt>
      <trkpt lat="41.625820290" lon="2.511567410">
        <ele>438.50</ele>
        <time>2015-01-18T09:35:40Z</time>
      </trkpt>
      <trkpt lat="41.625940910" lon="2.511702440">
        <ele>439.46</ele>
        <time>2015-01-18T09:35:49Z</time>
      </trkpt>
      <trkpt lat="41.626049450" lon="2.511725400">
        <ele>441.38</ele>
        <time>2015-01-18T09:35:56Z</time>
      </trkpt>
      <trkpt lat="41.626148530" lon="2.511792210">
        <ele>442.82</ele>
        <time>2015-01-18T09:36:03Z</time>
      </trkpt>
      <trkpt lat="41.626206870" lon="2.511858680">
        <ele>443.79</ele>
        <time>2015-01-18T09:36:08Z</time>
      </trkpt>
      <trkpt lat="41.626269560" lon="2.511993620">
        <ele>445.23</ele>
        <time>2015-01-18T09:36:17Z</time>
      </trkpt>
      <trkpt lat="41.626278950" lon="2.512068890">
        <ele>446.19</ele>
        <time>2015-01-18T09:36:21Z</time>
      </trkpt>
      <trkpt lat="41.626327650" lon="2.512258830">
        <ele>448.11</ele>
        <time>2015-01-18T09:36:31Z</time>
      </trkpt>
      <trkpt lat="41.626367460" lon="2.512502570">
        <ele>449.07</ele>
        <time>2015-01-18T09:36:41Z</time>
      </trkpt>
      <trkpt lat="41.626375850" lon="2.512565020">
        <ele>449.55</ele>
        <time>2015-01-18T09:36:44Z</time>
      </trkpt>
      <trkpt lat="41.626376350" lon="2.512667610">
        <ele>450.03</ele>
        <time>2015-01-18T09:36:48Z</time>
      </trkpt>
      <trkpt lat="41.626420770" lon="2.512900040">
        <ele>451.48</ele>
        <time>2015-01-18T09:36:59Z</time>
      </trkpt>
      <trkpt lat="41.626541890" lon="2.512911950">
        <ele>452.44</ele>
        <time>2015-01-18T09:37:06Z</time>
      </trkpt>
      <trkpt lat="41.626694940" lon="2.512918150">
        <ele>453.40</ele>
        <time>2015-01-18T09:37:14Z</time>
      </trkpt>
      <trkpt lat="41.626879430" lon="2.512958300">
        <ele>453.40</ele>
        <time>2015-01-18T09:37:22Z</time>
      </trkpt>
      <trkpt lat="41.627042290" lon="2.513082770">
        <ele>454.36</ele>
        <time>2015-01-18T09:37:30Z</time>
      </trkpt>
      <trkpt lat="41.627127620" lon="2.513238760">
        <ele>454.84</ele>
        <time>2015-01-18T09:37:36Z</time>
      </trkpt>
      <trkpt lat="41.627222670" lon="2.513438500">
        <ele>456.28</ele>
        <time>2015-01-18T09:37:44Z</time>
      </trkpt>
      <trkpt lat="41.627291820" lon="2.513585680">
        <ele>456.76</ele>
        <time>2015-01-18T09:37:49Z</time>
      </trkpt>
      <trkpt lat="41.627345970" lon="2.513665980">
        <ele>456.76</ele>
        <time>2015-01-18T09:37:51Z</time>
      </trkpt>
      <trkpt lat="41.627423080" lon="2.513818030">
        <ele>455.80</ele>
        <time>2015-01-18T09:37:54Z</time>
      </trkpt>
      <trkpt lat="41.627435400" lon="2.513887180">
        <ele>455.80</ele>
        <time>2015-01-18T09:37:55Z</time>
      </trkpt>
      <trkpt lat="41.627493320" lon="2.514252210">
        <ele>452.92</ele>
        <time>2015-01-18T09:38:00Z</time>
      </trkpt>
      <trkpt lat="41.627509250" lon="2.514537110">
        <ele>451.00</ele>
        <time>2015-01-18T09:38:03Z</time>
      </trkpt>
      <trkpt lat="41.627479490" lon="2.514725710">
        <ele>450.52</ele>
        <time>2015-01-18T09:38:05Z</time>
      </trkpt>
      <trkpt lat="41.627421910" lon="2.514930640">
        <ele>449.55</ele>
        <time>2015-01-18T09:38:07Z</time>
      </trkpt>
      <trkpt lat="41.627271030" lon="2.515229290">
        <ele>446.67</ele>
        <time>2015-01-18T09:38:11Z</time>
      </trkpt>
      <trkpt lat="41.627101380" lon="2.515388970">
        <ele>442.82</ele>
        <time>2015-01-18T09:38:16Z</time>
      </trkpt>
      <trkpt lat="41.627037680" lon="2.515436240">
        <ele>442.82</ele>
        <time>2015-01-18T09:38:18Z</time>
      </trkpt>
      <trkpt lat="41.626833830" lon="2.515540930">
        <ele>438.50</ele>
        <time>2015-01-18T09:38:24Z</time>
      </trkpt>
      <trkpt lat="41.626659820" lon="2.515623490">
        <ele>435.61</ele>
        <time>2015-01-18T09:38:28Z</time>
      </trkpt>
      <trkpt lat="41.626532670" lon="2.515696330">
        <ele>434.17</ele>
        <time>2015-01-18T09:38:31Z</time>
      </trkpt>
      <trkpt lat="41.626449190" lon="2.515744110">
        <ele>433.21</ele>
        <time>2015-01-18T09:38:33Z</time>
      </trkpt>
      <trkpt lat="41.626251120" lon="2.515857510">
        <ele>429.85</ele>
        <time>2015-01-18T09:38:37Z</time>
      </trkpt>
      <trkpt lat="41.626086080" lon="2.516143760">
        <ele>427.92</ele>
        <time>2015-01-18T09:38:43Z</time>
      </trkpt>
      <trkpt lat="41.625972010" lon="2.516306780">
        <ele>427.44</ele>
        <time>2015-01-18T09:38:48Z</time>
      </trkpt>
      <trkpt lat="41.625940320" lon="2.516212320">
        <ele>426.48</ele>
        <time>2015-01-18T09:38:51Z</time>
      </trkpt>
      <trkpt lat="41.625957340" lon="2.516178040">
        <ele>426.00</ele>
        <time>2015-01-18T09:38:52Z</time>
      </trkpt>
      <trkpt lat="41.626132020" lon="2.515738490">
        <ele>422.64</ele>
        <time>2015-01-18T09:39:00Z</time>
      </trkpt>
      <trkpt lat="41.626296050" lon="2.515459960">
        <ele>418.79</ele>
        <time>2015-01-18T09:39:06Z</time>
      </trkpt>
      <trkpt lat="41.626483970" lon="2.515101550">
        <ele>415.43</ele>
        <time>2015-01-18T09:39:12Z</time>
      </trkpt>
      <trkpt lat="41.626581030" lon="2.514943300">
        <ele>412.06</ele>
        <time>2015-01-18T09:39:15Z</time>
      </trkpt>
      <trkpt lat="41.626634680" lon="2.514671640">
        <ele>410.14</ele>
        <time>2015-01-18T09:39:19Z</time>
      </trkpt>
      <trkpt lat="41.626489080" lon="2.514440640">
        <ele>407.74</ele>
        <time>2015-01-18T09:39:23Z</time>
      </trkpt>
      <trkpt lat="41.626411890" lon="2.514353890">
        <ele>406.29</ele>
        <time>2015-01-18T09:39:25Z</time>
      </trkpt>
      <trkpt lat="41.626343830" lon="2.514272410">
        <ele>405.33</ele>
        <time>2015-01-18T09:39:27Z</time>
      </trkpt>
      <trkpt lat="41.626136880" lon="2.514198150">
        <ele>402.93</ele>
        <time>2015-01-18T09:39:31Z</time>
      </trkpt>
      <trkpt lat="41.625824320" lon="2.514126650">
        <ele>398.60</ele>
        <time>2015-01-18T09:39:37Z</time>
      </trkpt>
      <trkpt lat="41.625777960" lon="2.514098910">
        <ele>397.64</ele>
        <time>2015-01-18T09:39:38Z</time>
      </trkpt>
      <trkpt lat="41.625551230" lon="2.514010900">
        <ele>393.80</ele>
        <time>2015-01-18T09:39:44Z</time>
      </trkpt>
      <trkpt lat="41.625514690" lon="2.514001760">
        <ele>393.32</ele>
        <time>2015-01-18T09:39:45Z</time>
      </trkpt>
      <trkpt lat="41.625427680" lon="2.513994390">
        <ele>391.39</ele>
        <time>2015-01-18T09:39:47Z</time>
      </trkpt>
      <trkpt lat="41.625215370" lon="2.514017180">
        <ele>387.07</ele>
        <time>2015-01-18T09:39:52Z</time>
      </trkpt>
      <trkpt lat="41.625069360" lon="2.514054990">
        <ele>383.70</ele>
        <time>2015-01-18T09:39:56Z</time>
      </trkpt>
      <trkpt lat="41.624962740" lon="2.514052970">
        <ele>380.82</ele>
        <time>2015-01-18T09:39:59Z</time>
      </trkpt>
      <trkpt lat="41.624829640" lon="2.514031940">
        <ele>377.45</ele>
        <time>2015-01-18T09:40:04Z</time>
      </trkpt>
      <trkpt lat="41.624809180" lon="2.514026910">
        <ele>376.97</ele>
        <time>2015-01-18T09:40:05Z</time>
      </trkpt>
      <trkpt lat="41.624790830" lon="2.513953310">
        <ele>376.01</ele>
        <time>2015-01-18T09:40:09Z</time>
      </trkpt>
      <trkpt lat="41.624848830" lon="2.513737730">
        <ele>375.05</ele>
        <time>2015-01-18T09:40:14Z</time>
      </trkpt>
      <trkpt lat="41.624931480" lon="2.513530780">
        <ele>373.13</ele>
        <time>2015-01-18T09:40:18Z</time>
      </trkpt>
      <trkpt lat="41.624977740" lon="2.513374880">
        <ele>372.65</ele>
        <time>2015-01-18T09:40:21Z</time>
      </trkpt>
      <trkpt lat="41.624977070" lon="2.513030210">
        <ele>369.28</ele>
        <time>2015-01-18T09:40:28Z</time>
      </trkpt>
      <trkpt lat="41.624967600" lon="2.512978750">
        <ele>368.80</ele>
        <time>2015-01-18T09:40:29Z</time>
      </trkpt>
      <trkpt lat="41.624847740" lon="2.512741790">
        <ele>366.88</ele>
        <time>2015-01-18T09:40:35Z</time>
      </trkpt>
      <trkpt lat="41.624821420" lon="2.512722260">
        <ele>366.88</ele>
        <time>2015-01-18T09:40:36Z</time>
      </trkpt>
      <trkpt lat="41.624554790" lon="2.512604330">
        <ele>363.52</ele>
        <time>2015-01-18T09:40:44Z</time>
      </trkpt>
      <trkpt lat="41.624378520" lon="2.512527970">
        <ele>360.63</ele>
        <time>2015-01-18T09:40:52Z</time>
      </trkpt>
      <trkpt lat="41.624337030" lon="2.512644230">
        <ele>358.71</ele>
        <time>2015-01-18T09:40:58Z</time>
      </trkpt>
      <trkpt lat="41.624388500" lon="2.512691000">
        <ele>358.23</ele>
        <time>2015-01-18T09:41:01Z</time>
      </trkpt>
      <trkpt lat="41.624564520" lon="2.512852270">
        <ele>353.42</ele>
        <time>2015-01-18T09:41:08Z</time>
      </trkpt>
      <trkpt lat="41.624593010" lon="2.512878920">
        <ele>353.42</ele>
        <time>2015-01-18T09:41:09Z</time>
      </trkpt>
      <trkpt lat="41.624599130" lon="2.513091740">
        <ele>350.54</ele>
        <time>2015-01-18T09:41:13Z</time>
      </trkpt>
      <trkpt lat="41.624476590" lon="2.513234570">
        <ele>348.62</ele>
        <time>2015-01-18T09:41:17Z</time>
      </trkpt>
      <trkpt lat="41.624438450" lon="2.513250660">
        <ele>348.13</ele>
        <time>2015-01-18T09:41:18Z</time>
      </trkpt>
      <trkpt lat="41.624246670" lon="2.513317880">
        <ele>344.77</ele>
        <time>2015-01-18T09:41:23Z</time>
      </trkpt>
      <trkpt lat="41.624099660" lon="2.513362720">
        <ele>341.41</ele>
        <time>2015-01-18T09:41:28Z</time>
      </trkpt>
      <trkpt lat="41.623961270" lon="2.513431370">
        <ele>339.00</ele>
        <time>2015-01-18T09:41:33Z</time>
      </trkpt>
      <trkpt lat="41.623913330" lon="2.513486360">
        <ele>338.52</ele>
        <time>2015-01-18T09:41:35Z</time>
      </trkpt>
      <trkpt lat="41.623788020" lon="2.513580990">
        <ele>335.16</ele>
        <time>2015-01-18T09:41:41Z</time>
      </trkpt>
      <trkpt lat="41.623673770" lon="2.513616780">
        <ele>333.71</ele>
        <time>2015-01-18T09:41:46Z</time>
      </trkpt>
      <trkpt lat="41.623654070" lon="2.513623150">
        <ele>332.75</ele>
        <time>2015-01-18T09:41:48Z</time>
      </trkpt>
      <trkpt lat="41.623627590" lon="2.513629190">
        <ele>332.27</ele>
        <time>2015-01-18T09:41:50Z</time>
      </trkpt>
      <trkpt lat="41.623514180" lon="2.513649890">
        <ele>328.43</ele>
        <time>2015-01-18T09:41:55Z</time>
      </trkpt>
      <trkpt lat="41.623433460" lon="2.513688950">
        <ele>325.54</ele>
        <time>2015-01-18T09:41:58Z</time>
      </trkpt>
      <trkpt lat="41.623383590" lon="2.513581410">
        <ele>323.62</ele>
        <time>2015-01-18T09:42:02Z</time>
      </trkpt>
      <trkpt lat="41.623414600" lon="2.513505640">
        <ele>323.14</ele>
        <time>2015-01-18T09:42:04Z</time>
      </trkpt>
      <trkpt lat="41.623541090" lon="2.513325430">
        <ele>319.78</ele>
        <time>2015-01-18T09:42:09Z</time>
      </trkpt>
      <trkpt lat="41.623570090" lon="2.513296840">
        <ele>319.30</ele>
        <time>2015-01-18T09:42:10Z</time>
      </trkpt>
      <trkpt lat="41.623603780" lon="2.513115710">
        <ele>317.37</ele>
        <time>2015-01-18T09:42:14Z</time>
      </trkpt>
      <trkpt lat="41.623556420" lon="2.513083440">
        <ele>315.93</ele>
        <time>2015-01-18T09:42:18Z</time>
      </trkpt>
      <trkpt lat="41.623488950" lon="2.513172200">
        <ele>314.97</ele>
        <time>2015-01-18T09:42:22Z</time>
      </trkpt>
      <trkpt lat="41.623265660" lon="2.513194840">
        <ele>310.64</ele>
        <time>2015-01-18T09:42:28Z</time>
      </trkpt>
      <trkpt lat="41.623064490" lon="2.513253010">
        <ele>306.80</ele>
        <time>2015-01-18T09:42:33Z</time>
      </trkpt>
      <trkpt lat="41.622971540" lon="2.513341850">
        <ele>303.43</ele>
        <time>2015-01-18T09:42:36Z</time>
      </trkpt>
      <trkpt lat="41.622787640" lon="2.513412350">
        <ele>300.55</ele>
        <time>2015-01-18T09:42:40Z</time>
      </trkpt>
      <trkpt lat="41.622673730" lon="2.513500360">
        <ele>298.15</ele>
        <time>2015-01-18T09:42:43Z</time>
      </trkpt>
      <trkpt lat="41.622564090" lon="2.513687020">
        <ele>295.26</ele>
        <time>2015-01-18T09:42:49Z</time>
      </trkpt>
      <trkpt lat="41.622429560" lon="2.513816020">
        <ele>293.82</ele>
        <time>2015-01-18T09:42:53Z</time>
      </trkpt>
      <trkpt lat="41.622363680" lon="2.513846360">
        <ele>291.90</ele>
        <time>2015-01-18T09:42:56Z</time>
      </trkpt>
      <trkpt lat="41.622288240" lon="2.513861030">
        <ele>289.97</ele>
        <time>2015-01-18T09:42:59Z</time>
      </trkpt>
      <trkpt lat="41.622199560" lon="2.513905200">
        <ele>287.57</ele>
        <time>2015-01-18T09:43:03Z</time>
      </trkpt>
      <trkpt lat="41.622133850" lon="2.513920880">
        <ele>286.13</ele>
        <time>2015-01-18T09:43:06Z</time>
      </trkpt>
      <trkpt lat="41.622006610" lon="2.514008300">
        <ele>282.28</ele>
        <time>2015-01-18T09:43:12Z</time>
      </trkpt>
      <trkpt lat="41.621870320" lon="2.514089270">
        <ele>278.92</ele>
        <time>2015-01-18T09:43:17Z</time>
      </trkpt>
      <trkpt lat="41.621799580" lon="2.514127910">
        <ele>277.00</ele>
        <time>2015-01-18T09:43:19Z</time>
      </trkpt>
      <trkpt lat="41.621625570" lon="2.514171240">
        <ele>273.15</ele>
        <time>2015-01-18T09:43:24Z</time>
      </trkpt>
      <trkpt lat="41.621492880" lon="2.514205020">
        <ele>269.79</ele>
        <time>2015-01-18T09:43:29Z</time>
      </trkpt>
      <trkpt lat="41.621422220" lon="2.514316330">
        <ele>267.38</ele>
        <time>2015-01-18T09:43:32Z</time>
      </trkpt>
      <trkpt lat="41.621306050" lon="2.514585810">
        <ele>262.10</ele>
        <time>2015-01-18T09:43:37Z</time>
      </trkpt>
      <trkpt lat="41.621222150" lon="2.514735260">
        <ele>259.69</ele>
        <time>2015-01-18T09:43:40Z</time>
      </trkpt>
      <trkpt lat="41.621114520" lon="2.514858980">
        <ele>257.77</ele>
        <time>2015-01-18T09:43:43Z</time>
      </trkpt>
      <trkpt lat="41.621016120" lon="2.515036260">
        <ele>255.37</ele>
        <time>2015-01-18T09:43:47Z</time>
      </trkpt>
      <trkpt lat="41.620863400" lon="2.515253350">
        <ele>253.93</ele>
        <time>2015-01-18T09:43:53Z</time>
      </trkpt>
      <trkpt lat="41.620782430" lon="2.515374550">
        <ele>252.48</ele>
        <time>2015-01-18T09:43:56Z</time>
      </trkpt>
      <trkpt lat="41.620697270" lon="2.515533970">
        <ele>250.08</ele>
        <time>2015-01-18T09:44:00Z</time>
      </trkpt>
      <trkpt lat="41.620547570" lon="2.515695660">
        <ele>246.23</ele>
        <time>2015-01-18T09:44:05Z</time>
      </trkpt>
      <trkpt lat="41.620427460" lon="2.515875950">
        <ele>242.39</ele>
        <time>2015-01-18T09:44:09Z</time>
      </trkpt>
      <trkpt lat="41.620381020" lon="2.515953740">
        <ele>241.91</ele>
        <time>2015-01-18T09:44:11Z</time>
      </trkpt>
      <trkpt lat="41.620315140" lon="2.516113830">
        <ele>238.06</ele>
        <time>2015-01-18T09:44:15Z</time>
      </trkpt>
      <trkpt lat="41.620242220" lon="2.516196310">
        <ele>235.18</ele>
        <time>2015-01-18T09:44:18Z</time>
      </trkpt>
      <trkpt lat="41.620161920" lon="2.516229420">
        <ele>232.78</ele>
        <time>2015-01-18T09:44:23Z</time>
      </trkpt>
      <trkpt lat="41.620072240" lon="2.516218690">
        <ele>230.85</ele>
        <time>2015-01-18T09:44:27Z</time>
      </trkpt>
      <trkpt lat="41.619912810" lon="2.516166560">
        <ele>227.01</ele>
        <time>2015-01-18T09:44:32Z</time>
      </trkpt>
      <trkpt lat="41.619835190" lon="2.516170160">
        <ele>226.53</ele>
        <time>2015-01-18T09:44:34Z</time>
      </trkpt>
      <trkpt lat="41.619747020" lon="2.516269650">
        <ele>225.09</ele>
        <time>2015-01-18T09:44:37Z</time>
      </trkpt>
      <trkpt lat="41.619689770" lon="2.516370490">
        <ele>224.12</ele>
        <time>2015-01-18T09:44:39Z</time>
      </trkpt>
      <trkpt lat="41.619518190" lon="2.516519940">
        <ele>222.20</ele>
        <time>2015-01-18T09:44:45Z</time>
      </trkpt>
      <trkpt lat="41.619506040" lon="2.516632250">
        <ele>221.24</ele>
        <time>2015-01-18T09:44:48Z</time>
      </trkpt>
      <trkpt lat="41.619372350" lon="2.516885560">
        <ele>219.32</ele>
        <time>2015-01-18T09:44:55Z</time>
      </trkpt>
      <trkpt lat="41.619331690" lon="2.517099800">
        <ele>217.40</ele>
        <time>2015-01-18T09:45:01Z</time>
      </trkpt>
      <trkpt lat="41.619311490" lon="2.517184200">
        <ele>216.43</ele>
        <time>2015-01-18T09:45:05Z</time>
      </trkpt>
      <trkpt lat="41.619293560" lon="2.517397440">
        <ele>215.95</ele>
        <time>2015-01-18T09:45:12Z</time>
      </trkpt>
      <trkpt lat="41.619240420" lon="2.517701030">
        <ele>214.03</ele>
        <time>2015-01-18T09:45:19Z</time>
      </trkpt>
      <trkpt lat="41.619227420" lon="2.517760290">
        <ele>213.55</ele>
        <time>2015-01-18T09:45:25Z</time>
      </trkpt>
      <trkpt lat="41.619153240" lon="2.517893230">
        <ele>213.07</ele>
        <time>2015-01-18T09:45:31Z</time>
      </trkpt>
      <trkpt lat="41.618970600" lon="2.518046780">
        <ele>210.19</ele>
        <time>2015-01-18T09:45:38Z</time>
      </trkpt>
      <trkpt lat="41.618944280" lon="2.518072680">
        <ele>210.19</ele>
        <time>2015-01-18T09:45:39Z</time>
      </trkpt>
      <trkpt lat="41.618866920" lon="2.518434530">
        <ele>207.30</ele>
        <time>2015-01-18T09:45:46Z</time>
      </trkpt>
      <trkpt lat="41.618797850" lon="2.518699900">
        <ele>205.86</ele>
        <time>2015-01-18T09:45:49Z</time>
      </trkpt>
      <trkpt lat="41.618693080" lon="2.519086060">
        <ele>203.46</ele>
        <time>2015-01-18T09:45:54Z</time>
      </trkpt>
      <trkpt lat="41.618465840" lon="2.519451420">
        <ele>200.57</ele>
        <time>2015-01-18T09:46:00Z</time>
      </trkpt>
      <trkpt lat="41.618257890" lon="2.519516300">
        <ele>199.61</ele>
        <time>2015-01-18T09:46:04Z</time>
      </trkpt>
      <trkpt lat="41.617863440" lon="2.519572040">
        <ele>197.69</ele>
        <time>2015-01-18T09:46:12Z</time>
      </trkpt>
      <trkpt lat="41.617589350" lon="2.519604140">
        <ele>196.25</ele>
        <time>2015-01-18T09:46:18Z</time>
      </trkpt>
      <trkpt lat="41.617210990" lon="2.519657700">
        <ele>194.80</ele>
        <time>2015-01-18T09:46:26Z</time>
      </trkpt>
      <trkpt lat="41.616967830" lon="2.519690640">
        <ele>193.84</ele>
        <time>2015-01-18T09:46:32Z</time>
      </trkpt>
      <trkpt lat="41.616799350" lon="2.519723420">
        <ele>192.88</ele>
        <time>2015-01-18T09:46:36Z</time>
      </trkpt>
      <trkpt lat="41.616646050" lon="2.519783850">
        <ele>191.92</ele>
        <time>2015-01-18T09:46:39Z</time>
      </trkpt>
      <trkpt lat="41.616414290" lon="2.519945030">
        <ele>190.48</ele>
        <time>2015-01-18T09:46:45Z</time>
      </trkpt>
      <trkpt lat="41.616369110" lon="2.519998510">
        <ele>190.48</ele>
        <time>2015-01-18T09:46:48Z</time>
      </trkpt>
      <trkpt lat="41.616348660" lon="2.520035310">
        <ele>192.40</ele>
        <time>2015-01-18T09:46:50Z</time>
      </trkpt>
      <trkpt lat="41.616323350" lon="2.520077220">
        <ele>192.40</ele>
        <time>2015-01-18T09:46:52Z</time>
      </trkpt>
      <trkpt lat="41.616204320" lon="2.520347620">
        <ele>192.40</ele>
        <time>2015-01-18T09:46:59Z</time>
      </trkpt>
      <trkpt lat="41.616089150" lon="2.520638470">
        <ele>190.96</ele>
        <time>2015-01-18T09:47:05Z</time>
      </trkpt>
      <trkpt lat="41.615994690" lon="2.521074160">
        <ele>190.00</ele>
        <time>2015-01-18T09:47:12Z</time>
      </trkpt>
      <trkpt lat="41.615944230" lon="2.521523760">
        <ele>189.04</ele>
        <time>2015-01-18T09:47:18Z</time>
      </trkpt>
      <trkpt lat="41.615878180" lon="2.521950320">
        <ele>188.56</ele>
        <time>2015-01-18T09:47:25Z</time>
      </trkpt>
      <trkpt lat="41.615808700" lon="2.522448540">
        <ele>187.11</ele>
        <time>2015-01-18T09:47:31Z</time>
      </trkpt>
      <trkpt lat="41.615692440" lon="2.523122280">
        <ele>184.71</ele>
        <time>2015-01-18T09:47:38Z</time>
      </trkpt>
      <trkpt lat="41.615674670" lon="2.523226800">
        <ele>184.23</ele>
        <time>2015-01-18T09:47:39Z</time>
      </trkpt>
      <trkpt lat="41.615623370" lon="2.523869440">
        <ele>182.79</ele>
        <time>2015-01-18T09:47:46Z</time>
      </trkpt>
      <trkpt lat="41.615589010" lon="2.524251490">
        <ele>179.90</ele>
        <time>2015-01-18T09:47:50Z</time>
      </trkpt>
      <trkpt lat="41.615524800" lon="2.525056650">
        <ele>177.02</ele>
        <time>2015-01-18T09:47:58Z</time>
      </trkpt>
      <trkpt lat="41.615528820" lon="2.525917060">
        <ele>174.62</ele>
        <time>2015-01-18T09:48:06Z</time>
      </trkpt>
      <trkpt lat="41.615567300" lon="2.526502450">
        <ele>173.17</ele>
        <time>2015-01-18T09:48:12Z</time>
      </trkpt>
      <trkpt lat="41.615574510" lon="2.526590040">
        <ele>173.17</ele>
        <time>2015-01-18T09:48:13Z</time>
      </trkpt>
      <trkpt lat="41.615571070" lon="2.526904950">
        <ele>170.77</ele>
        <time>2015-01-18T09:48:16Z</time>
      </trkpt>
      <trkpt lat="41.615463860" lon="2.527593770">
        <ele>168.37</ele>
        <time>2015-01-18T09:48:23Z</time>
      </trkpt>
      <trkpt lat="41.615342660" lon="2.528198360">
        <ele>166.45</ele>
        <time>2015-01-18T09:48:30Z</time>
      </trkpt>
      <trkpt lat="41.615225650" lon="2.528768500">
        <ele>165.00</ele>
        <time>2015-01-18T09:48:37Z</time>
      </trkpt>
      <trkpt lat="41.615198160" lon="2.528925240">
        <ele>165.00</ele>
        <time>2015-01-18T09:48:39Z</time>
      </trkpt>
      <trkpt lat="41.615173260" lon="2.529529400">
        <ele>163.56</ele>
        <time>2015-01-18T09:48:46Z</time>
      </trkpt>
      <trkpt lat="41.615182320" lon="2.530102140">
        <ele>162.12</ele>
        <time>2015-01-18T09:48:53Z</time>
      </trkpt>
      <trkpt lat="41.615169910" lon="2.530599690">
        <ele>160.20</ele>
        <time>2015-01-18T09:48:59Z</time>
      </trkpt>
      <trkpt lat="41.615116850" lon="2.531166140">
        <ele>157.79</ele>
        <time>2015-01-18T09:49:06Z</time>
      </trkpt>
      <trkpt lat="41.615111070" lon="2.531231270">
        <ele>157.79</ele>
        <time>2015-01-18T09:49:07Z</time>
      </trkpt>
      <trkpt lat="41.615151720" lon="2.531512230">
        <ele>156.83</ele>
        <time>2015-01-18T09:49:12Z</time>
      </trkpt>
      <trkpt lat="41.615224060" lon="2.531819930">
        <ele>154.91</ele>
        <time>2015-01-18T09:49:17Z</time>
      </trkpt>
      <trkpt lat="41.615184410" lon="2.532290910">
        <ele>153.95</ele>
        <time>2015-01-18T09:49:24Z</time>
      </trkpt>
      <trkpt lat="41.615094640" lon="2.532570780">
        <ele>153.47</ele>
        <time>2015-01-18T09:49:29Z</time>
      </trkpt>
      <trkpt lat="41.615013510" lon="2.532860120">
        <ele>152.51</ele>
        <time>2015-01-18T09:49:34Z</time>
      </trkpt>
      <trkpt lat="41.614983160" lon="2.532993140">
        <ele>152.51</ele>
        <time>2015-01-18T09:49:36Z</time>
      </trkpt>
      <trkpt lat="41.614745540" lon="2.533713990">
        <ele>150.10</ele>
        <time>2015-01-18T09:49:46Z</time>
      </trkpt>
      <trkpt lat="41.614506990" lon="2.534437430">
        <ele>147.70</ele>
        <time>2015-01-18T09:49:55Z</time>
      </trkpt>
      <trkpt lat="41.614420490" lon="2.534693080">
        <ele>146.74</ele>
        <time>2015-01-18T09:49:58Z</time>
      </trkpt>
      <trkpt lat="41.614226610" lon="2.535271010">
        <ele>145.30</ele>
        <time>2015-01-18T09:50:05Z</time>
      </trkpt>
      <trkpt lat="41.614131810" lon="2.535516180">
        <ele>143.85</ele>
        <time>2015-01-18T09:50:08Z</time>
      </trkpt>
      <trkpt lat="41.613915640" lon="2.536184720">
        <ele>142.41</ele>
        <time>2015-01-18T09:50:16Z</time>
      </trkpt>
      <trkpt lat="41.613784800" lon="2.536491250">
        <ele>140.97</ele>
        <time>2015-01-18T09:50:21Z</time>
      </trkpt>
      <trkpt lat="41.613678270" lon="2.536625690">
        <ele>140.01</ele>
        <time>2015-01-18T09:50:27Z</time>
      </trkpt>
      <trkpt lat="41.613664860" lon="2.536637430">
        <ele>140.01</ele>
        <time>2015-01-18T09:50:28Z</time>
      </trkpt>
      <trkpt lat="41.613610040" lon="2.536787880">
        <ele>139.53</ele>
        <time>2015-01-18T09:50:34Z</time>
      </trkpt>
      <trkpt lat="41.613528650" lon="2.536951500">
        <ele>139.05</ele>
        <time>2015-01-18T09:50:40Z</time>
      </trkpt>
      <trkpt lat="41.613362690" lon="2.537174450">
        <ele>138.09</ele>
        <time>2015-01-18T09:50:47Z</time>
      </trkpt>
      <trkpt lat="41.613142580" lon="2.537427920">
        <ele>137.13</ele>
        <time>2015-01-18T09:50:55Z</time>
      </trkpt>
      <trkpt lat="41.612923480" lon="2.537684330">
        <ele>136.16</ele>
        <time>2015-01-18T09:51:02Z</time>
      </trkpt>
      <trkpt lat="41.612779640" lon="2.537836880">
        <ele>135.68</ele>
        <time>2015-01-18T09:51:06Z</time>
      </trkpt>
      <trkpt lat="41.612542440" lon="2.538139550">
        <ele>134.24</ele>
        <time>2015-01-18T09:51:13Z</time>
      </trkpt>
      <trkpt lat="41.612511760" lon="2.538180200">
        <ele>134.24</ele>
        <time>2015-01-18T09:51:14Z</time>
      </trkpt>
      <trkpt lat="41.612347890" lon="2.538381360">
        <ele>133.28</ele>
        <time>2015-01-18T09:51:20Z</time>
      </trkpt>
      <trkpt lat="41.612199450" lon="2.538647740">
        <ele>132.32</ele>
        <time>2015-01-18T09:51:28Z</time>
      </trkpt>
      <trkpt lat="41.612174810" lon="2.538693090">
        <ele>132.32</ele>
        <time>2015-01-18T09:51:33Z</time>
      </trkpt>
      <trkpt lat="41.612152260" lon="2.538708760">
        <ele>132.32</ele>
        <time>2015-01-18T09:51:50Z</time>
      </trkpt>
      <trkpt lat="41.612148240" lon="2.538714380">
        <ele>132.32</ele>
        <time>2015-01-18T09:52:00Z</time>
      </trkpt>
      <trkpt lat="41.612125190" lon="2.538836420">
        <ele>132.32</ele>
        <time>2015-01-18T09:52:08Z</time>
      </trkpt>
      <trkpt lat="41.612010270" lon="2.538989640">
        <ele>131.36</ele>
        <time>2015-01-18T09:52:14Z</time>
      </trkpt>
      <trkpt lat="41.611954280" lon="2.539047220">
        <ele>130.88</ele>
        <time>2015-01-18T09:52:17Z</time>
      </trkpt>
      <trkpt lat="41.611909520" lon="2.539053760">
        <ele>130.88</ele>
        <time>2015-01-18T09:52:21Z</time>
      </trkpt>
      <trkpt lat="41.611867270" lon="2.538939850">
        <ele>130.88</ele>
        <time>2015-01-18T09:52:27Z</time>
      </trkpt>
      <trkpt lat="41.611824780" lon="2.538812360">
        <ele>132.32</ele>
        <time>2015-01-18T09:52:32Z</time>
      </trkpt>
      <trkpt lat="41.611720760" lon="2.538758970">
        <ele>133.28</ele>
        <time>2015-01-18T09:52:38Z</time>
      </trkpt>
      <trkpt lat="41.611697290" lon="2.538756790">
        <ele>133.28</ele>
        <time>2015-01-18T09:52:39Z</time>
      </trkpt>
      <trkpt lat="41.611628890" lon="2.538749080">
        <ele>133.28</ele>
        <time>2015-01-18T09:52:41Z</time>
      </trkpt>
      <trkpt lat="41.611346340" lon="2.538775570">
        <ele>131.84</ele>
        <time>2015-01-18T09:52:47Z</time>
      </trkpt>
      <trkpt lat="41.611182720" lon="2.538786630">
        <ele>131.36</ele>
        <time>2015-01-18T09:52:50Z</time>
      </trkpt>
      <trkpt lat="41.610808720" lon="2.538965250">
        <ele>129.92</ele>
        <time>2015-01-18T09:52:57Z</time>
      </trkpt>
      <trkpt lat="41.610697660" lon="2.539043280">
        <ele>128.95</ele>
        <time>2015-01-18T09:53:00Z</time>
      </trkpt>
      <trkpt lat="41.610478480" lon="2.539144200">
        <ele>128.47</ele>
        <time>2015-01-18T09:53:05Z</time>
      </trkpt>
      <trkpt lat="41.610245790" lon="2.539270180">
        <ele>127.03</ele>
        <time>2015-01-18T09:53:11Z</time>
      </trkpt>
      <trkpt lat="41.609803980" lon="2.539521970">
        <ele>124.63</ele>
        <time>2015-01-18T09:53:21Z</time>
      </trkpt>
      <trkpt lat="41.609715390" lon="2.539571850">
        <ele>123.67</ele>
        <time>2015-01-18T09:53:24Z</time>
      </trkpt>
      <trkpt lat="41.609666860" lon="2.539557600">
        <ele>123.67</ele>
        <time>2015-01-18T09:53:26Z</time>
      </trkpt>
      <trkpt lat="41.609471810" lon="2.539646280">
        <ele>122.71</ele>
        <time>2015-01-18T09:53:34Z</time>
      </trkpt>
      <trkpt lat="41.609441130" lon="2.539663210">
        <ele>122.71</ele>
        <time>2015-01-18T09:53:35Z</time>
      </trkpt>
      <trkpt lat="41.609336860" lon="2.539816770">
        <ele>121.74</ele>
        <time>2015-01-18T09:53:40Z</time>
      </trkpt>
      <trkpt lat="41.609203760" lon="2.540016260">
        <ele>120.78</ele>
        <time>2015-01-18T09:53:45Z</time>
      </trkpt>
      <trkpt lat="41.609150870" lon="2.540118010">
        <ele>120.30</ele>
        <time>2015-01-18T09:53:50Z</time>
      </trkpt>
      <trkpt lat="41.609087330" lon="2.540155140">
        <ele>120.30</ele>
        <time>2015-01-18T09:53:57Z</time>
      </trkpt>
      <trkpt lat="41.609016920" lon="2.540250950">
        <ele>119.82</ele>
        <time>2015-01-18T09:54:04Z</time>
      </trkpt>
      <trkpt lat="41.608929330" lon="2.540412970">
        <ele>119.82</ele>
        <time>2015-01-18T09:54:12Z</time>
      </trkpt>
      <trkpt lat="41.608918600" lon="2.540433420">
        <ele>119.82</ele>
        <time>2015-01-18T09:54:13Z</time>
      </trkpt>
      <trkpt lat="41.608843500" lon="2.540345080">
        <ele>119.82</ele>
        <time>2015-01-18T09:54:19Z</time>
      </trkpt>
      <trkpt lat="41.608781060" lon="2.540276180">
        <ele>118.86</ele>
        <time>2015-01-18T09:54:22Z</time>
      </trkpt>
      <trkpt lat="41.608548290" lon="2.540326300">
        <ele>118.38</ele>
        <time>2015-01-18T09:54:29Z</time>
      </trkpt>
      <trkpt lat="41.608328600" lon="2.540389750">
        <ele>118.38</ele>
        <time>2015-01-18T09:54:36Z</time>
      </trkpt>
      <trkpt lat="41.608143610" lon="2.540425460">
        <ele>117.42</ele>
        <time>2015-01-18T09:54:43Z</time>
      </trkpt>
      <trkpt lat="41.608053420" lon="2.540433170">
        <ele>117.42</ele>
        <time>2015-01-18T09:54:49Z</time>
      </trkpt>
      <trkpt lat="41.607944380" lon="2.540470470">
        <ele>116.94</ele>
        <time>2015-01-18T09:54:56Z</time>
      </trkpt>
      <trkpt lat="41.607719490" lon="2.540499050">
        <ele>116.94</ele>
        <time>2015-01-18T09:55:03Z</time>
      </trkpt>
      <trkpt lat="41.607589150" lon="2.540678010">
        <ele>116.46</ele>
        <time>2015-01-18T09:55:08Z</time>
      </trkpt>
      <trkpt lat="41.607429060" lon="2.540824350">
        <ele>115.98</ele>
        <time>2015-01-18T09:55:14Z</time>
      </trkpt>
      <trkpt lat="41.607115070" lon="2.540774400">
        <ele>115.50</ele>
        <time>2015-01-18T09:55:21Z</time>
      </trkpt>
      <trkpt lat="41.606745340" lon="2.540651180">
        <ele>114.53</ele>
        <time>2015-01-18T09:55:29Z</time>
      </trkpt>
      <trkpt lat="41.606701090" lon="2.540628130">
        <ele>114.05</ele>
        <time>2015-01-18T09:55:30Z</time>
      </trkpt>
      <trkpt lat="41.606268250" lon="2.540387990">
        <ele>113.09</ele>
        <time>2015-01-18T09:55:40Z</time>
      </trkpt>
      <trkpt lat="41.606130030" lon="2.540318250">
        <ele>112.13</ele>
        <time>2015-01-18T09:55:45Z</time>
      </trkpt>
      <trkpt lat="41.606126010" lon="2.540297300">
        <ele>111.65</ele>
        <time>2015-01-18T09:55:55Z</time>
      </trkpt>
      <trkpt lat="41.606057690" lon="2.540301410">
        <ele>111.65</ele>
        <time>2015-01-18T09:56:05Z</time>
      </trkpt>
      <trkpt lat="41.605966830" lon="2.540359830">
        <ele>111.65</ele>
        <time>2015-01-18T09:56:12Z</time>
      </trkpt>
      <trkpt lat="41.605950150" lon="2.540359750">
        <ele>111.65</ele>
        <time>2015-01-18T09:56:14Z</time>
      </trkpt>
      <trkpt lat="41.605914190" lon="2.540389080">
        <ele>111.65</ele>
        <time>2015-01-18T09:56:18Z</time>
      </trkpt>
      <trkpt lat="41.605941770" lon="2.540444910">
        <ele>113.09</ele>
        <time>2015-01-18T09:56:23Z</time>
      </trkpt>
      <trkpt lat="41.605960040" lon="2.540477090">
        <ele>113.09</ele>
        <time>2015-01-18T09:56:28Z</time>
      </trkpt>
      <trkpt lat="41.605965580" lon="2.540588570">
        <ele>113.09</ele>
        <time>2015-01-18T09:56:33Z</time>
      </trkpt>
      <trkpt lat="41.606072610" lon="2.540664090">
        <ele>113.57</ele>
        <time>2015-01-18T09:56:39Z</time>
      </trkpt>
      <trkpt lat="41.606118290" lon="2.540669290">
        <ele>113.57</ele>
        <time>2015-01-18T09:56:41Z</time>
      </trkpt>
      <trkpt lat="41.606328180" lon="2.540705580">
        <ele>114.53</ele>
        <time>2015-01-18T09:56:50Z</time>
      </trkpt>
      <trkpt lat="41.606510150" lon="2.540804910">
        <ele>115.01</ele>
        <time>2015-01-18T09:56:59Z</time>
      </trkpt>
      <trkpt lat="41.606604110" lon="2.540973130">
        <ele>115.98</ele>
        <time>2015-01-18T09:57:06Z</time>
      </trkpt>
      <trkpt lat="41.606653650" lon="2.541147730">
        <ele>116.94</ele>
        <time>2015-01-18T09:57:13Z</time>
      </trkpt>
      <trkpt lat="41.606693040" lon="2.541327270">
        <ele>117.90</ele>
        <time>2015-01-18T09:57:20Z</time>
      </trkpt>
      <trkpt lat="41.606766050" lon="2.541573780">
        <ele>119.82</ele>
        <time>2015-01-18T09:57:30Z</time>
      </trkpt>
      <trkpt lat="41.606848860" lon="2.541846700">
        <ele>120.78</ele>
        <time>2015-01-18T09:57:40Z</time>
      </trkpt>
      <trkpt lat="41.606937040" lon="2.542099240">
        <ele>122.71</ele>
        <time>2015-01-18T09:57:50Z</time>
      </trkpt>
      <trkpt lat="41.607023960" lon="2.542270990">
        <ele>124.15</ele>
        <time>2015-01-18T09:58:00Z</time>
      </trkpt>
      <trkpt lat="41.607076760" lon="2.542356150">
        <ele>125.11</ele>
        <time>2015-01-18T09:58:07Z</time>
      </trkpt>
      <trkpt lat="41.607079870" lon="2.542374590">
        <ele>125.11</ele>
        <time>2015-01-18T09:58:14Z</time>
      </trkpt>
      <trkpt lat="41.607069640" lon="2.542402830">
        <ele>125.11</ele>
        <time>2015-01-18T09:58:26Z</time>
      </trkpt>
      <trkpt lat="41.607062600" lon="2.542427140">
        <ele>125.11</ele>
        <time>2015-01-18T09:58:38Z</time>
      </trkpt>
    </trkseg>
  </trk>
</gpx>
